[[{"header":{"parameterUnit":"m.s-1","parameterCategory":1,"la1":30.6,"la2":28.766,"lo1":-90.7593,"lo2":-88.6598,"dy":0.0162,"dx":0.0183,"nx":116,"ny":114,"refTime":"2023-10-23T18:00:00:Z","depth":0,"parameterNumber":2,"parameterNumberName":"U-component_of_WINDS"},"data":[0.0,0.0,0.0,0.0,0.0,0.0,0.0,0.0,0.0,0.0,0.0,0.0,0.0,0.0,0.0,0.0,0.0,0.0,0.0,0.0,0.0,0.0,0.0,0.0,0.0,0.0,0.0,0.0,0.0,0.0,0.0,0.0,0.0,0.0,0.0,0.0,0.0,0.0,0.0,0.0,0.0,0.0,0.0,0.0,0.0,0.0,0.0,0.0,0.0,0.0,0.0,0.0,0.0,0.0,0.0,0.0,0.0,0.0,0.0,0.0,0.0,0.0,0.0,0.0,0.0,0.0,0.0,0.0,0.0,0.0,0.0,0.0,0.0,0.0,0.0,0.0,0.0,0.0,0.0,0.0,0.0,0.0,0.0,0.0,0.0,0.0,0.0,0.0,0.0,0.0,0.0,0.0,0.0,0.0,0.0,0.0,0.0,0.0,0.0,0.0,0.0,0.0,0.0,0.0,0.0,0.0,0.0,0.0,0.0,0.0,0.0,0.0,0.0,0.0,0.0,0.0,0.0,0.0,0.0,0.0,0.0,0.0,0.0,0.0,0.0,0.0,0.0,0.0,0.0,0.0,0.0,0.0,0.0,0.0,0.0,0.0,0.0,0.0,0.0,0.0,0.0,0.0,0.0,0.0,0.0,0.0,0.0,0.0,0.0,0.0,0.0,0.0,0.0,0.0,0.0,0.0,0.0,0.0,0.0,0.0,0.0,0.0,0.0,0.0,0.0,0.0,0.0,0.0,0.0,0.0,0.0,0.0,0.0,0.0,0.0,0.0,0.0,0.0,0.0,0.0,0.0,0.0,0.0,0.0,0.0,0.0,0.0,0.0,0.0,0.0,0.0,0.0,0.0,0.0,0.0,0.0,0.0,0.0,0.0,0.0,0.0,0.0,0.0,0.0,0.0,0.0,0.0,0.0,0.0,0.0,0.0,0.0,0.0,0.0,0.0,0.0,0.0,0.0,0.0,0.0,0.0,0.0,0.0,0.0,0.0,0.0,0.0,0.0,0.0,0.0,0.0,0.0,0.0,0.0,0.0,0.0,0.0,0.0,0.0,0.0,0.0,0.0,0.0,0.0,0.0,0.0,0.0,0.0,0.0,0.0,0.0,0.0,0.0,0.0,0.0,0.0,0.0,0.0,0.0,0.0,0.0,0.0,0.0,0.0,0.0,0.0,0.0,0.0,0.0,0.0,0.0,0.0,0.0,0.0,0.0,0.0,0.0,0.0,0.0,0.0,0.0,0.0,0.0,0.0,0.0,0.0,0.0,0.0,0.0,0.0,0.0,0.0,0.0,0.0,0.0,0.0,0.0,0.0,0.0,0.0,0.0,0.0,0.0,0.0,0.0,0.0,0.0,0.0,0.0,0.0,0.0,0.0,0.0,0.0,0.0,0.0,0.0,0.0,0.0,0.0,0.0,0.0,0.0,0.0,0.0,0.0,0.0,0.0,0.0,0.0,0.0,0.0,0.0,0.0,0.0,0.0,0.0,0.0,0.0,0.0,0.0,0.0,0.0,0.0,0.0,0.0,0.0,0.0,0.0,0.0,0.0,0.0,0.0,0.0,0.0,0.0,0.0,0.0,0.0,0.0,0.0,0.0,0.0,0.0,0.0,0.0,0.0,0.0,0.0,0.0,0.0,0.0,0.0,0.0,0.0,0.0,0.0,0.0,0.0,0.0,0.0,0.0,0.0,0.0,0.0,0.0,0.0,0.0,0.0,0.0,0.0,0.0,0.0,0.0,0.0,0.0,0.0,0.0,0.0,0.0,0.0,0.0,0.0,0.0,0.0,0.0,0.0,0.0,0.0,0.0,0.0,0.0,0.0,0.0,0.0,0.0,0.0,0.0,0.0,0.0,0.0,0.0,0.0,0.0,0.0,0.0,0.0,0.0,0.0,0.0,0.0,0.0,0.0,0.0,0.0,0.0,0.0,0.0,0.0,0.0,0.0,0.0,0.0,0.0,0.0,0.0,0.0,0.0,0.0,0.0,0.0,0.0,0.0,0.0,0.0,0.0,0.0,0.0,0.0,0.0,0.0,0.0,0.0,0.0,0.0,0.0,0.0,0.0,0.0,0.0,0.0,0.0,0.0,0.0,0.0,0.0,0.0,0.0,0.0,0.0,0.0,0.0,0.0,0.0,0.0,0.0,0.0,0.0,0.0,0.0,0.0,0.0,0.0,0.0,0.0,0.0,0.0,0.0,0.0,0.0,0.0,0.0,0.0,0.0,0.0,0.0,0.0,0.0,0.0,0.0,0.0,0.0,0.0,0.0,0.0,0.0,0.0,0.0,0.0,0.0,0.0,0.0,0.0,0.0,0.0,0.0,0.0,0.0,0.0,0.0,0.0,0.0,0.0,0.0,0.0,0.0,0.0,0.0,0.0,0.0,0.0,0.0,0.0,0.0,0.0,0.0,0.0,0.0,0.0,0.0,0.0,0.0,0.0,0.0,0.0,0.0,0.0,0.0,0.0,0.0,0.0,0.0,0.0,0.0,0.0,0.0,0.0,0.0,0.0,0.0,0.0,0.0,0.0,0.0,0.0,0.0,0.0,0.0,0.0,0.0,0.0,0.0,0.0,0.0,0.0,0.0,0.0,0.0,0.0,0.0,0.0,0.0,0.0,0.0,0.0,0.0,0.0,0.0,0.0,0.0,0.0,0.0,0.0,0.0,0.0,0.0,0.0,0.0,0.0,0.0,0.0,0.0,0.0,0.0,0.0,0.0,0.0,0.0,0.0,0.0,0.0,0.0,0.0,0.0,0.0,0.0,0.0,0.0,0.0,0.0,0.0,0.0,0.0,0.0,0.0,0.0,0.0,0.0,0.0,0.0,0.0,0.0,0.0,0.0,0.0,0.0,0.0,0.0,0.0,0.0,0.0,0.0,0.0,0.0,0.0,0.0,0.0,0.0,0.0,0.0,0.0,0.0,0.0,0.0,0.0,0.0,0.0,0.0,0.0,0.0,0.0,0.0,0.0,0.0,0.0,0.0,0.0,0.0,0.0,0.0,0.0,0.0,0.0,0.0,0.0,0.0,0.0,0.0,0.0,0.0,0.0,0.0,0.0,0.0,0.0,0.0,0.0,0.0,0.0,0.0,0.0,0.0,0.0,0.0,0.0,0.0,0.0,0.0,0.0,0.0,0.0,0.0,0.0,0.0,0.0,0.0,0.0,0.0,0.0,0.0,0.0,0.0,0.0,0.0,0.0,0.0,0.0,0.0,0.0,0.0,0.0,0.0,0.0,0.0,0.0,0.0,0.0,0.0,0.0,0.0,0.0,0.0,0.0,0.0,0.0,0.0,0.0,0.0,0.0,0.0,0.0,0.0,0.0,0.0,0.0,0.0,0.0,0.0,0.0,0.0,0.0,0.0,0.0,0.0,0.0,0.0,0.0,0.0,0.0,0.0,0.0,0.0,0.0,0.0,0.0,0.0,0.0,0.0,0.0,0.0,0.0,0.0,0.0,0.0,0.0,0.0,0.0,0.0,0.0,0.0,0.0,0.0,0.0,0.0,0.0,0.0,0.0,0.0,0.0,0.0,0.0,0.0,0.0,0.0,0.0,0.0,0.0,0.0,0.0,0.0,0.0,0.0,0.0,0.0,0.0,0.0,0.0,0.0,0.0,0.0,0.0,0.0,0.0,0.0,0.0,0.0,0.0,0.0,0.0,0.0,0.0,0.0,0.0,0.0,0.0,0.0,0.0,0.0,0.0,0.0,0.0,0.0,0.0,0.0,0.0,0.0,0.0,0.0,0.0,0.0,0.0,0.0,0.0,0.0,0.0,0.0,0.0,0.0,0.0,0.0,0.0,0.0,0.0,0.0,0.0,0.0,0.0,0.0,0.0,0.0,0.0,0.0,0.0,0.0,0.0,0.0,0.0,0.0,0.0,0.0,0.0,0.0,0.0,0.0,0.0,0.0,0.0,0.0,0.0,0.0,0.0,0.0,0.0,0.0,0.0,0.0,0.0,0.0,0.0,0.0,0.0,0.0,0.0,0.0,0.0,0.0,0.0,0.0,0.0,0.0,0.0,0.0,0.0,0.0,0.0,0.0,0.0,0.0,0.0,0.0,0.0,0.0,0.0,0.0,0.0,0.0,0.0,0.0,0.0,0.0,0.0,0.0,0.0,0.0,0.0,0.0,0.0,0.0,0.0,0.0,0.0,0.0,0.0,0.0,0.0,0.0,0.0,0.0,0.0,0.0,0.0,0.0,0.0,0.0,0.0,0.0,0.0,0.0,0.0,0.0,0.0,0.0,0.0,0.0,0.0,0.0,0.0,0.0,0.0,0.0,0.0,0.0,0.0,0.0,0.0,0.0,0.0,0.0,0.0,0.0,0.0,0.0,0.0,0.0,0.0,0.0,0.0,0.0,0.0,0.0,0.0,0.0,0.0,0.0,0.0,0.0,0.0,0.0,0.0,0.0,0.0,0.0,0.0,0.0,0.0,0.0,0.0,0.0,0.0,0.0,0.0,0.0,0.0,0.0,0.0,0.0,0.0,0.0,0.0,0.0,0.0,0.0,0.0,0.0,0.0,0.0,0.0,0.0,0.0,0.0,0.0,0.0,0.0,0.0,0.0,0.0,0.0,0.0,0.0,0.0,0.0,0.0,0.0,0.0,0.0,0.0,0.0,0.0,0.0,0.0,0.0,0.0,0.0,0.0,0.0,0.0,0.0,0.0,0.0,0.0,0.0,0.0,0.0,0.0,0.0,0.0,0.0,0.0,0.0,0.0,0.0,0.0,0.0,0.0,0.0,0.0,0.0,0.0,0.0,0.0,0.0,0.0,0.0,0.0,0.0,0.0,0.0,0.0,0.0,0.0,0.0,0.0,0.0,0.0,0.0,0.0,0.0,0.0,0.0,0.0,0.0,0.0,0.0,0.0,0.0,0.0,0.0,0.0,0.0,0.0,0.0,0.0,0.0,0.0,0.0,0.0,0.0,0.0,0.0,0.0,0.0,0.0,0.0,0.0,0.0,0.0,0.0,0.0,0.0,0.0,0.0,0.0,0.0,0.0,0.0,0.0,0.0,0.0,0.0,0.0,0.0,0.0,0.0,0.0,0.0,0.0,0.0,0.0,0.0,0.0,0.0,0.0,0.0,0.0,0.0,0.0,0.0,0.0,0.0,0.0,0.0,0.0,0.0,0.0,0.0,0.0,0.0,0.0,0.0,0.0,0.0,0.0,0.0,0.0,0.0,0.0,0.0,0.0,0.0,0.0,0.0,0.0,0.0,0.0,0.0,0.0,0.0,0.0,0.0,0.0,0.0,0.0,0.0,0.0,0.0,0.0,0.0,0.0,0.0,0.0,0.0,0.0,0.0,0.0,0.0,0.0,0.0,0.0,0.0,0.0,0.0,0.0,0.0,0.0,0.0,0.0,0.0,0.0,0.0,0.0,0.0,0.0,0.0,0.0,0.0,0.0,0.0,0.0,0.0,0.0,0.0,0.0,0.0,0.0,0.0,0.0,0.0,0.0,0.0,0.0,0.0,0.0,0.0,0.0,0.0,0.0,0.0,0.0,0.0,0.0,0.0,0.0,0.0,0.0,0.0,0.0,0.0,0.0,0.0,0.0,0.0,0.0,0.0,0.0,0.0,0.0,0.0,0.0,0.0,0.0,0.0,0.0,0.0,0.0,0.0,0.0,0.0,0.0,0.0,0.0,0.0,0.0,0.0,0.0,0.0,0.0,0.0,0.0,0.0,0.0,0.0,0.0,0.0,0.0,0.0,0.0,0.0,0.0,0.0,0.0,0.0,0.0,0.0,0.0,0.0,0.0,0.0,0.0,0.0,0.0,0.0,0.0,0.0,0.0,0.0,0.0,0.0,0.0,0.0,0.0,0.0,0.0,0.0,0.0,0.0,0.0,0.0,0.0,0.0,0.0,0.0,0.0,0.0,0.0,0.0,0.0,0.0,0.0,0.0,0.0,0.0,0.0,0.0,0.0,0.0,0.0,0.0,0.0,0.0,0.0,0.0,0.0,0.0,0.0,0.0,0.0,0.0,0.0,0.0,0.0,0.0,0.0,0.0,0.0,0.0,0.0,0.0,0.0,0.0,0.0,0.0,0.0,0.0,0.0,0.0,0.0,0.0,0.0,0.0,0.0,-0.648,-0.6147,0.0,0.0,0.0,0.0,0.0,0.0,0.0,0.0,0.0,0.0,0.0,0.0,0.0,0.0,0.0,0.0,0.0,0.0,0.0,0.0,0.0,0.0,0.0,0.0,0.0,0.0,0.0,0.0,0.0,0.0,0.0,0.0,0.0,0.0,0.0,0.0,0.0,-0.9074,-0.8725,-0.8426,-0.8241,-0.8167,-0.8018,-0.779,0.0,0.0,0.0,0.0,0.0,0.0,0.0,0.0,0.0,0.0,0.0,0.0,0.0,0.0,0.0,0.0,0.0,0.0,0.0,0.0,0.0,0.0,0.0,0.0,0.0,0.0,0.0,0.0,0.0,0.0,0.0,0.0,0.0,0.0,0.0,0.0,0.0,0.0,0.0,0.0,0.0,0.0,0.0,0.0,0.0,0.0,0.0,0.0,0.0,0.0,0.0,0.0,0.0,0.0,0.0,0.0,0.0,0.0,0.0,0.0,0.0,0.0,0.0,0.0,0.0,0.0,0.0,0.0,0.0,0.0,-0.8237,-0.7533,0.0,0.0,0.0,0.0,0.0,0.0,0.0,0.0,0.0,0.0,0.0,0.0,0.0,0.0,0.0,0.0,0.0,0.0,0.0,0.0,0.0,0.0,0.0,-1.5971,-1.6239,-1.6494,-1.6367,-1.6342,0.0,0.0,0.0,0.0,0.0,0.0,-1.3346,-1.2061,-1.0967,-1.014,-0.9467,-0.901,-0.8791,-0.8893,-0.8709,-0.825,-0.8323,0.0,0.0,0.0,0.0,0.0,0.0,0.0,0.0,0.0,0.0,0.0,0.0,0.0,0.0,0.0,0.0,0.0,0.0,0.0,0.0,0.0,0.0,0.0,0.0,0.0,0.0,0.0,0.0,0.0,0.0,0.0,0.0,0.0,0.0,0.0,0.0,0.0,0.0,0.0,0.0,0.0,0.0,0.0,0.0,0.0,0.0,0.0,0.0,0.0,0.0,0.0,0.0,0.0,0.0,0.0,0.0,0.0,0.0,0.0,0.0,0.0,0.0,0.0,-1.2274,-1.2487,-1.2946,-1.3041,-1.3172,-1.3227,-1.0678,-0.9652,-0.9774,-0.9745,0.0,0.0,0.0,0.0,0.0,0.0,0.0,0.0,0.0,0.0,0.0,0.0,0.0,0.0,0.0,0.0,0.0,0.0,0.0,0.0,0.0,-1.6677,-1.6898,-1.7396,-1.7396,-1.7396,-1.7449,0.0,0.0,0.0,0.0,0.0,-1.4236,-1.309,-1.2148,-1.1442,-1.0504,-0.9721,-0.9159,-0.9686,-0.9678,-0.9191,-0.8818,-0.8554,-0.8403,0.0,0.0,0.0,0.0,0.0,0.0,0.0,0.0,0.0,0.0,0.0,0.0,0.0,0.0,0.0,0.0,0.0,0.0,0.0,0.0,0.0,0.0,0.0,0.0,0.0,0.0,0.0,0.0,0.0,0.0,0.0,0.0,0.0,0.0,0.0,0.0,0.0,0.0,0.0,0.0,0.0,-1.003,-1.0041,0.0,0.0,0.0,0.0,0.0,0.0,0.0,0.0,0.0,0.0,0.0,0.0,0.0,-1.2919,-1.3544,-1.3865,-1.445,-1.5247,-1.5471,-1.5813,-1.6276,-1.5927,-1.59,-1.6051,-1.5128,0.0,-1.2376,-1.1799,0.0,0.0,0.0,0.0,0.0,0.0,0.0,0.0,0.0,0.0,0.0,0.0,0.0,0.0,0.0,0.0,0.0,0.0,0.0,0.0,0.0,-1.7689,-1.8167,-1.8557,-1.8612,-1.8612,-1.8612,-1.8207,0.0,0.0,0.0,-1.6375,-1.542,-1.425,-1.293,-1.1482,-1.1192,-1.1003,-1.089,-1.1402,-1.1402,-1.0948,-1.0426,-0.9667,-0.8703,-0.8574,0.0,0.0,0.0,0.0,0.0,0.0,0.0,0.0,0.0,0.0,0.0,0.0,0.0,0.0,0.0,0.0,0.0,0.0,0.0,0.0,0.0,0.0,0.0,0.0,0.0,0.0,0.0,0.0,0.0,0.0,0.0,0.0,0.0,0.0,0.0,0.0,0.0,0.0,0.0,-1.1679,-1.1985,-1.2148,-1.2253,-1.2426,0.0,0.0,0.0,0.0,0.0,0.0,0.0,0.0,0.0,-1.4758,-1.5259,-1.5852,-1.6515,-1.6839,-1.7413,-1.8217,-1.8351,-1.8541,-1.8864,-1.8824,-1.8876,-1.8928,-1.8689,-1.8004,-1.6956,-1.481,-1.3778,-1.3527,0.0,0.0,0.0,0.0,-1.3371,-1.3576,0.0,0.0,0.0,0.0,0.0,0.0,0.0,0.0,0.0,0.0,0.0,0.0,-1.8157,-1.8878,-1.9519,-1.9923,-1.9963,-1.9923,-1.9843,-1.9399,-1.889,-1.8383,-1.8188,-1.757,-1.6463,-1.5257,-1.38,-1.2086,-1.2599,-1.2932,-1.3095,-1.3532,-1.3434,-1.289,-1.2256,-1.0956,-0.927,-0.907,-0.8757,-0.8396,0.0,0.0,0.0,0.0,0.0,0.0,0.0,0.0,0.0,0.0,0.0,0.0,0.0,0.0,0.0,0.0,0.0,0.0,0.0,0.0,0.0,0.0,0.0,0.0,0.0,0.0,0.0,0.0,0.0,0.0,0.0,0.0,0.0,0.0,0.0,0.0,0.0,-1.3393,-1.3946,-1.4325,-1.4325,-1.442,0.0,0.0,0.0,0.0,0.0,0.0,-1.5745,-1.6358,-1.697,-1.7582,-1.8017,-1.862,-1.9324,-1.9643,-2.0175,-2.087,-2.0904,-2.1079,-2.1261,-2.1383,-2.1427,-2.1427,-2.1314,-2.1127,-2.0651,-1.7686,-1.6227,-1.5858,-1.5493,-1.5295,-1.5246,-1.5299,-1.5419,-1.5602,0.0,0.0,0.0,0.0,0.0,0.0,0.0,0.0,0.0,0.0,0.0,-1.8758,-1.9599,-2.0227,-2.0846,-2.1422,-2.1475,-2.1355,-2.1042,-2.0227,-1.9626,-1.9348,-1.8489,-1.7715,-1.7077,-1.5939,-1.4971,-1.4157,-1.5423,-1.587,-1.5549,-1.6015,-1.5717,-1.483,-1.3891,-1.2319,-1.0259,-0.9493,-0.8995,-0.8662,-0.8403,0.0,0.0,0.0,0.0,0.0,0.0,0.0,0.0,0.0,0.0,0.0,0.0,0.0,0.0,0.0,0.0,0.0,0.0,0.0,0.0,0.0,0.0,0.0,0.0,0.0,0.0,0.0,0.0,0.0,0.0,0.0,0.0,0.0,0.0,0.0,0.0,0.0,0.0,-1.6437,-1.6333,0.0,0.0,0.0,0.0,-1.6902,-1.7421,-1.7921,-1.839,-1.869,-1.93,-2.0278,-2.0518,-2.093,-2.1543,-2.2036,-2.2538,-2.2947,-2.3134,-2.3348,-2.36,-2.3265,-2.3065,-2.3065,-2.2665,-2.2407,-2.2045,-1.9966,-1.898,-1.8714,-1.7935,-1.7785,-1.7969,-1.7708,-1.7958,-1.8404,0.0,0.0,0.0,0.0,0.0,0.0,0.0,0.0,-1.6807,-1.7166,-1.8291,-1.9319,-1.997,-2.1109,-2.1964,-2.2398,-2.2425,-2.2224,-2.171,-2.0855,-2.0097,-1.9428,-1.8858,-1.8043,-1.6922,-1.6296,-1.6007,-1.6055,-1.7298,-1.814,-1.8539,-1.8795,-1.8601,-1.7954,-1.6577,-1.5123,-1.3517,-1.1124,-0.9792,-0.9307,-0.8859,-0.8459,0.0,0.0,0.0,0.0,0.0,0.0,0.0,0.0,0.0,0.0,0.0,0.0,0.0,0.0,0.0,0.0,0.0,0.0,0.0,0.0,0.0,0.0,0.0,0.0,0.0,0.0,0.0,0.0,0.0,0.0,0.0,0.0,0.0,0.0,0.0,0.0,0.0,-1.8458,-1.844,0.0,-1.8632,-1.8548,-1.8608,-1.8872,-1.9577,-2.0169,-2.0697,-2.1293,-2.1864,-2.2348,-2.2775,-2.3075,-2.3289,-2.3688,-2.3896,-2.4069,-2.4125,-2.4222,-2.4306,-2.4184,-2.4102,-2.4102,-2.3938,-2.385,-2.3724,-2.2811,-2.1566,-2.0083,-1.9519,-1.9243,-1.9163,-1.9266,-1.9404,-1.9554,0.0,0.0,0.0,0.0,0.0,0.0,0.0,0.0,-1.6887,-1.7408,-1.8744,-1.9987,-2.0837,-2.2191,-2.314,-2.3434,-2.3367,-2.3054,-2.2358,-2.1363,-2.0481,-1.9693,-1.9138,-1.8367,-1.7373,-1.7544,-1.7885,-1.8302,-1.9691,-2.0702,-2.1326,-2.1418,-2.1216,-2.0691,-1.9111,-1.7821,-1.6611,-1.3636,-1.1549,-1.0164,-0.9703,-0.9203,-0.8751,0.0,0.0,0.0,0.0,0.0,0.0,0.0,0.0,0.0,0.0,0.0,0.0,0.0,0.0,0.0,0.0,0.0,0.0,0.0,0.0,0.0,0.0,0.0,0.0,0.0,0.0,0.0,0.0,0.0,0.0,0.0,0.0,0.0,0.0,-1.8462,-1.9449,-2.0447,-2.0407,-2.0386,-2.0555,-2.0579,-2.0688,-2.0966,-2.1559,-2.2102,-2.2633,-2.3164,-2.3611,-2.3945,-2.4282,-2.4463,-2.4463,-2.4728,-2.4896,-2.4965,-2.5063,-2.5099,-2.5099,-2.5099,-2.5016,-2.4861,-2.4861,-2.4861,-2.4836,-2.4571,-2.3567,-2.212,-2.1412,-2.106,-2.0953,-2.0978,-2.1025,-2.1095,0.0,0.0,0.0,0.0,0.0,0.0,0.0,-1.6288,-1.6995,-1.7876,-1.9261,-2.0757,-2.2238,-2.3479,-2.4306,-2.4572,-2.4332,-2.3821,-2.2934,-2.175,-2.0824,-2.0207,-1.9249,-1.8642,-1.8455,-1.97,-2.0556,-2.0953,-2.2641,-2.354,-2.3763,-2.3751,-2.3448,-2.2835,-2.1351,-2.0255,-1.934,-1.7021,-1.4272,-1.1394,-1.0951,-1.0332,-0.9694,0.0,0.0,0.0,0.0,0.0,0.0,0.0,0.0,0.0,0.0,0.0,0.0,0.0,0.0,0.0,0.0,0.0,0.0,0.0,0.0,0.0,0.0,0.0,0.0,0.0,0.0,0.0,0.0,0.0,0.0,0.0,0.0,0.0,-1.938,-2.0035,-2.1011,-2.2407,-2.2215,-2.2212,-2.2721,-2.2731,-2.284,-2.3094,-2.3345,-2.368,-2.4186,-2.4222,-2.4475,-2.5005,-2.5017,-2.5017,-2.5017,-2.527,-2.5513,-2.5719,-2.5979,-2.6146,-2.6146,-2.6146,-2.5848,-2.5433,-2.5433,-2.5391,-2.5379,-2.5126,-2.5017,-2.4927,-2.365,-2.3261,-2.339,-2.2949,-2.2901,-2.307,0.0,0.0,0.0,0.0,0.0,0.0,-1.5265,-1.5765,-1.6503,-1.7513,-1.8884,-2.043,-2.2227,-2.3599,-2.4486,-2.4576,-2.4332,-2.3634,-2.2311,-2.1523,-2.0729,-1.9864,-1.9669,-1.9584,-1.9632,-2.058,-2.1541,-2.2489,-2.379,-2.4686,-2.523,-2.5023,-2.4856,-2.4649,-2.3396,-2.2469,-2.177,-2.0224,-1.8357,-1.6132,-1.3506,-1.2072,-1.1515,0.0,0.0,0.0,0.0,0.0,0.0,0.0,0.0,0.0,0.0,0.0,0.0,0.0,0.0,0.0,0.0,0.0,0.0,0.0,0.0,0.0,0.0,0.0,0.0,0.0,0.0,0.0,0.0,0.0,0.0,0.0,-1.9883,-2.0975,-2.0961,-2.1987,-2.3099,-2.4109,-2.3956,-2.384,-2.3975,-2.3894,-2.3828,-2.39,-2.4306,-2.4632,-2.4776,-2.4957,-2.5138,-2.5282,-2.5282,-2.5282,-2.5282,-2.5683,-2.5939,-2.5992,-2.6406,-2.6613,-2.6613,-2.6613,-2.6358,-2.589,-2.589,-2.5732,-2.5433,-2.5689,-2.578,-2.5706,-2.4615,-2.4238,-2.4246,-2.4142,-2.3888,-2.3587,0.0,0.0,0.0,0.0,0.0,0.0,-1.489,-1.5294,-1.6006,-1.7206,-1.8609,-2.0205,-2.2196,-2.3429,-2.4245,-2.4562,-2.4106,-2.3367,-2.2245,-2.1496,-2.0779,-2.0074,-2.058,-2.0953,-2.1113,-2.2276,-2.3278,-2.4068,-2.501,-2.5662,-2.607,-2.5898,-2.5819,-2.5766,-2.4816,-2.4212,-2.3805,-2.2455,-2.1205,-1.997,-1.7618,-1.5511,-1.382,-1.3748,-1.4021,-1.442,-1.4434,-1.4888,-1.5479,-1.5407,0.0,0.0,0.0,0.0,0.0,0.0,0.0,0.0,0.0,0.0,0.0,0.0,0.0,0.0,0.0,0.0,0.0,0.0,0.0,0.0,0.0,0.0,0.0,0.0,-2.1323,-2.2693,-2.3174,-2.3882,-2.4657,-2.5518,-2.5424,-2.5254,-2.519,-2.505,-2.4899,-2.4733,-2.4993,-2.5162,-2.5162,-2.5318,-2.5391,-2.5391,-2.5391,-2.5476,-2.569,-2.5976,-2.6388,-2.694,-2.7405,-2.7757,-2.7926,-2.8123,-2.7828,-2.7236,-2.7025,-2.6783,-2.6528,-2.6656,-2.6783,0.0,0.0,0.0,0.0,0.0,-2.4617,-2.4186,0.0,0.0,0.0,0.0,0.0,0.0,-1.4495,-1.4805,-1.5454,-1.6835,-1.8204,-1.9844,-2.1917,-2.2914,-2.3635,-2.4296,-2.3612,-2.2913,-2.2278,-2.1577,-2.1048,-2.0757,-2.1854,-2.2518,-2.2681,-2.4276,-2.5204,-2.5453,-2.6135,-2.6426,-2.6386,-2.6386,-2.6413,-2.6426,-2.578,-2.5505,-2.544,-2.4028,-2.3241,-2.2946,-2.2171,-1.9793,-1.6619,-1.6315,-1.6604,-1.7163,-1.6691,-1.6959,-1.7478,-1.7303,0.0,0.0,0.0,0.0,0.0,0.0,0.0,0.0,0.0,0.0,0.0,0.0,0.0,0.0,0.0,0.0,0.0,0.0,0.0,0.0,0.0,0.0,0.0,0.0,-2.2873,-2.4446,-2.5545,-2.5674,-2.591,-2.6628,-2.6594,-2.6432,-2.6291,-2.6231,-2.6018,-2.5604,-2.5562,-2.5562,-2.5562,-2.5562,0.0,0.0,0.0,-2.5769,-2.6153,-2.6391,-2.7127,-2.8315,-2.8934,-2.9439,-2.9873,-3.0278,-2.9985,-2.9145,-2.8654,-2.843,-2.8303,-2.7952,-2.8065,-2.8362,-2.7103,-2.6594,-2.6514,-2.5778,-2.5309,-2.4975,0.0,0.0,0.0,0.0,0.0,0.0,-1.373,-1.3974,-1.4533,-1.5681,-1.6817,-1.8316,-2.0414,-2.1539,-2.2319,-2.2791,-2.2472,-2.1991,-2.1403,-2.1462,-2.1746,-2.2328,-2.2992,-2.3551,-2.3947,-2.5063,-2.5649,-2.5714,-2.6401,-2.6613,-2.6386,-2.6386,-2.652,-2.672,-2.6347,-2.6321,-2.6467,-2.5621,-2.4943,-2.4377,-2.3819,-2.2193,-2.0061,-1.9998,-1.984,-1.9735,-1.9899,-1.9931,-1.9928,-1.9895,-1.9598,-1.9177,-1.8597,-1.7927,0.0,0.0,0.0,0.0,0.0,0.0,0.0,0.0,0.0,0.0,0.0,0.0,0.0,0.0,0.0,0.0,0.0,0.0,0.0,-2.3054,-2.4579,-2.5904,-2.6841,-2.7347,-2.7613,-2.7505,-2.7381,-2.7253,-2.722,-2.6881,-2.6613,-2.6541,-2.6541,-2.6541,-2.6541,-2.6541,-2.6371,-2.5976,-2.6528,-2.6739,-2.6493,-2.8207,-2.922,-2.9478,-3.1109,0.0,-3.2004,-3.2429,-3.2117,-3.1293,-3.0919,-3.0339,-2.9648,-2.9607,-3.0094,-3.0636,-2.8574,-2.7749,-2.768,-2.7015,-2.6457,-2.5981,0.0,0.0,0.0,0.0,0.0,0.0,-1.348,-1.3605,-1.4051,-1.498,-1.6138,-1.7527,-1.9177,-2.0189,-2.0968,-2.1518,-2.1416,-2.1368,-2.1368,-2.1917,-2.2536,-2.3167,-2.424,-2.4888,-2.5036,-2.6042,-2.6546,-2.6546,-2.6893,-2.6974,-2.6867,-2.6867,-2.6907,-2.7041,-2.6894,-2.6907,-2.7028,-2.652,-2.6122,-2.5779,-2.5399,-2.4648,-2.3554,-2.2354,-2.1993,-2.2102,-2.1659,-2.1581,-2.1647,-2.1352,-2.0995,-2.0605,-1.9987,-1.9185,-1.8358,0.0,0.0,0.0,0.0,0.0,0.0,0.0,0.0,0.0,0.0,0.0,0.0,0.0,0.0,-2.0231,-2.0788,0.0,-2.3434,-2.4476,-2.5784,-2.6854,-2.7443,-2.8078,-2.8433,-2.8271,-2.8182,-2.815,-2.815,-2.7939,-2.7799,-2.7786,-2.7786,-2.7786,-2.7786,-2.7786,-2.7503,-2.6825,-2.7534,-2.7934,-2.7934,-2.9635,-3.0851,-3.1539,-3.3163,-3.407,-3.4266,-3.4941,-3.4899,-3.4234,-3.3808,-3.3133,-3.2335,-3.196,-3.2087,-3.2376,-3.1245,-3.0497,-3.0024,-2.9244,-2.8551,-2.789,0.0,0.0,0.0,0.0,0.0,0.0,0.0,-1.3458,-1.3738,-1.4437,-1.562,-1.6837,-1.8008,-1.8819,-1.9574,-2.0227,-2.0431,-2.0806,-2.1462,-2.2492,-2.3355,-2.3933,-2.5378,-2.6135,-2.6069,-2.6959,-2.7362,-2.7309,-2.7362,-2.7362,-2.7309,-2.7309,-2.7336,-2.7389,-2.7336,-2.7336,-2.7376,-2.7028,-2.6907,-2.6881,-2.6587,-2.6466,-2.6268,-2.42,-2.3757,-2.4072,-2.2971,-2.2724,-2.2802,-2.2211,-2.1839,-2.1569,-2.098,-2.0231,-1.9345,-1.8384,-1.7515,0.0,0.0,0.0,0.0,0.0,0.0,0.0,0.0,-1.9,-1.9896,-2.016,-2.1234,-2.2265,-2.2752,-2.3986,-2.5133,-2.5758,-2.6694,-2.7496,-2.7749,-2.838,-2.888,-2.9035,-2.9076,-2.9118,-2.9202,-2.9286,-2.9314,-2.9342,-2.9411,-2.9481,-2.9537,-2.9551,-2.9201,-2.8395,-2.9147,-2.9683,-2.9883,-3.1382,-3.2704,-3.3789,-3.5278,-3.6164,-3.6543,-3.7357,-3.7524,-3.7047,-3.6501,-3.5808,-3.5021,-3.4399,-3.413,-3.4114,-3.4131,-3.3731,-3.2978,-3.1659,-3.0751,-2.9982,0.0,0.0,0.0,0.0,0.0,0.0,0.0,0.0,-1.3605,-1.3954,-1.4751,-1.5684,-1.6771,-1.7452,-1.8066,-1.8676,-1.9452,-2.0254,-2.1109,-2.2739,-2.4182,-2.5242,-2.62,-2.6827,-2.712,-2.7482,-2.7522,-2.7309,-2.7522,-2.7522,-2.7309,-2.7309,-2.7443,-2.7642,-2.7416,-2.7415,-2.7629,-2.7335,-2.7255,-2.7229,-2.6894,-2.6774,-2.6667,-2.5936,-2.5499,-2.5232,-2.4571,-2.3864,-2.3164,-2.2551,-2.2171,-2.1863,-2.1243,-2.0641,-1.989,-1.8771,-1.801,-1.7394,-1.6807,-1.7007,-1.7462,-1.7742,-1.8517,-1.9334,0.0,-2.0655,-2.1422,-2.1716,-2.2899,-2.4008,-2.4292,-2.5371,-2.6386,-2.7015,-2.7388,-2.7749,-2.8098,-2.8502,-2.9091,-2.9929,-3.0034,-3.0165,-3.054,-3.0942,-3.1191,-3.1191,-3.1508,-3.1877,-3.2248,-3.2263,-3.202,-3.1423,-3.2519,-3.2726,-3.1975,-3.4402,-3.5718,-3.5891,-3.7699,-3.8613,-3.8655,-3.9165,-3.9165,-3.8663,-3.7911,-3.7148,-3.6375,-3.6361,-3.6314,-3.6239,-3.6321,-3.6523,-3.6448,-3.3633,-3.2247,-3.1662,0.0,0.0,0.0,0.0,0.0,0.0,0.0,0.0,0.0,-1.4334,-1.5066,-1.5744,-1.6201,-1.6741,-1.7318,-1.7916,-1.8771,-1.988,-2.1315,-2.2907,-2.4405,-2.5718,-2.6613,-2.7215,-2.7509,-2.7844,-2.7938,-2.7817,-2.7938,-2.7938,-2.7817,-2.7817,-2.7884,-2.7991,-2.7871,-2.7884,-2.7978,-2.7642,-2.7522,-2.7482,-2.7014,-2.672,-2.6493,-2.5732,-2.5088,-2.4462,-2.4222,-2.3447,0.0,-2.1857,-2.147,-2.1181,-2.0735,-2.0397,-2.001,-1.901,-1.8317,-1.7702,-1.7153,-1.7395,-1.7956,-1.8409,-1.945,-2.0535,-2.1122,-2.2205,-2.3233,-2.3723,-2.4911,-2.5954,-2.6252,-2.6998,-2.7649,-2.7893,-2.797,-2.8045,-2.8165,-2.8827,-2.9516,-3.0167,-3.1174,-3.1868,-3.1987,-3.2222,-3.2626,-3.3347,-3.38,-3.4182,-3.4576,-3.4561,-3.4234,-3.3488,-3.4143,-3.4459,-3.4357,-3.6129,-3.7318,-3.7877,-3.9178,-3.9816,-3.9816,-4.0282,-4.0409,-4.018,-3.9323,-3.8764,-3.8421,-3.7994,-3.7672,-3.7404,-3.745,-3.7417,-3.7188,-3.5642,-3.4815,-3.4294,0.0,0.0,0.0,0.0,0.0,0.0,0.0,0.0,0.0,0.0,-1.538,-1.58,-1.5873,-1.6308,-1.6754,-1.7207,-1.8116,-1.9359,-2.0993,-2.2639,-2.4218,-2.569,-2.6747,-2.7443,-2.7696,-2.8031,-2.8179,-2.8179,-2.8179,-2.8179,-2.8179,-2.8179,-2.8179,-2.8179,-2.8179,-2.8179,-2.8165,-2.7951,-2.7776,-2.7642,-2.7054,-2.66,-2.6198,-2.5155,-2.4151,-2.3295,-2.3134,-2.2378,-2.139,-2.0641,-2.0347,-2.0284,-1.9867,-1.9867,-1.977,-1.881,-1.8223,-1.7836,-1.7622,-1.8063,-1.8756,-1.9479,-2.0695,-2.1911,-2.2672,-2.3741,-2.4767,-2.5469,-2.6493,-2.7302,-2.7602,-2.8056,-2.8441,-2.8565,-2.8383,-2.8295,-2.8516,-2.9174,-2.9821,-3.0445,-3.1937,-3.2969,-3.3269,-3.3602,-3.416,-3.511,-3.5743,-3.6269,-3.6659,-3.675,-3.6484,-3.5825,-3.6146,-3.6464,-3.6704,-3.7784,-3.876,-3.9532,-4.0269,-4.0723,-4.0941,-4.1153,-4.1213,-4.1042,-4.0456,-4.0078,-3.9916,-3.9229,-3.8671,-3.8314,-3.8207,-3.8003,-3.7685,-3.7348,-3.6907,-3.6328,0.0,0.0,0.0,0.0,0.0,0.0,0.0,0.0,0.0,0.0,0.0,0.0,0.0,-1.6112,-1.6324,-1.6337,-1.7369,-1.8556,-1.9773,-2.1796,-2.3589,-2.5074,-2.6533,-2.7443,-2.7696,-2.8031,-2.8179,-2.8179,-2.8179,-2.8179,-2.8179,-2.8179,-2.8179,-2.8179,-2.8179,-2.8179,-2.8179,-2.8179,-2.8005,-2.7642,-2.7054,-2.648,-2.585,-2.4392,-2.3108,-2.1964,-2.139,-2.0771,-2.0077,-1.8958,-1.8973,-1.9334,-1.8731,-1.896,-1.9187,-1.7996,-1.7635,-1.7742,-1.8317,-1.9292,-2.0344,-2.1288,-2.2378,-2.3532,-2.4716,-2.5237,-2.5753,-2.675,-2.7237,-2.763,-2.8016,-2.8321,-2.8588,-2.8922,-2.862,-2.8565,-2.9356,-2.9547,-2.9978,-3.0946,-3.1933,-3.3002,-3.4229,-3.5331,-3.603,-3.607,-3.7244,-3.8087,-3.84,-3.8807,-3.8969,-3.8852,-3.9313,-3.9373,-3.893,-3.9816,-4.0541,-4.0944,-4.1032,-4.1482,-4.2234,-4.1849,-4.1488,-4.1102,-4.1084,-4.0789,-4.0349,-3.9934,-3.9537,-3.9099,-3.8744,-3.8588,-3.856,-3.856,-3.8044,-3.7268,0.0,0.0,0.0,0.0,0.0,0.0,0.0,0.0,0.0,0.0,0.0,0.0,0.0,0.0,0.0,0.0,-1.702,-1.7956,-1.9145,-2.0601,-2.2104,-2.3576,-2.4649,-2.5558,-2.6239,-2.6586,-2.6827,-2.7028,-2.7028,-2.7028,-2.7028,-2.7028,-2.7081,-2.7268,-2.7268,-2.7375,-2.759,-2.7348,-2.7094,-2.676,-2.5985,-2.5235,-2.4379,-2.2893,-2.1596,-2.0374,0.0,-1.8743,-1.8636,-1.7903,-1.7755,-1.7889,-1.7689,-1.7889,-1.817,-1.7916,-1.8143,-1.8623,-1.9439,-2.0494,-2.1603,-2.2512,-2.3768,-2.4877,-2.5277,-2.6052,-2.6746,-2.6954,-2.7298,-2.7613,-2.7848,-2.7799,-2.7788,-2.8153,-2.8151,-2.8298,-2.8882,-2.9913,-3.073,-3.1115,-3.2679,-3.3935,-3.4408,-3.5271,-3.6096,-3.6902,-3.8119,-3.8968,-3.9422,-3.9784,-3.9963,-3.9901,-3.9791,-3.9774,-3.9919,-4.051,-4.1025,-4.147,-4.1769,-4.191,-4.1886,-4.2014,-4.1745,-4.1121,-4.1396,-4.1275,-4.0831,-4.0704,-4.0412,-4.0047,-3.9901,-3.9713,-3.9487,-3.9487,-3.9285,-3.8951,0.0,0.0,0.0,0.0,0.0,0.0,0.0,0.0,0.0,0.0,0.0,0.0,0.0,0.0,0.0,0.0,0.0,-1.7274,-1.8223,-1.9399,-2.0615,-2.1871,-2.2979,-2.3875,-2.4556,-2.5007,-2.5355,-2.5611,-2.5611,-2.5665,-2.5758,-2.5758,-2.5865,-2.6013,-2.6159,-2.6306,-2.6506,-2.6279,-2.5972,-2.5531,-2.4649,-2.379,-2.2867,-2.1475,-2.0298,0.0,-1.7916,-1.7422,-1.7315,-1.6872,-1.6779,-1.6871,-1.6739,-1.6979,-1.7408,-1.8116,-1.8743,-1.9479,-2.0561,-2.1804,-2.2993,-2.3888,-2.497,-2.5852,-2.5959,-2.6319,-2.6638,-2.655,-2.6496,-2.6537,-2.6797,-2.664,-2.6726,-2.7427,-2.7738,-2.8256,-2.9196,-3.0585,-3.173,-3.2244,-3.3808,-3.4987,-3.5339,-3.5894,-3.6574,-3.7351,-3.8678,-3.9604,-3.9891,-4.0516,-4.0874,-4.0874,-4.0703,-4.0703,-4.0874,-4.1256,-4.1628,-4.1904,-4.2454,-4.2436,-4.1922,-4.2307,-4.2167,-4.1543,-4.1629,-4.1537,-4.1323,-4.1158,-4.0864,-4.0515,-4.0515,-4.0258,-3.9891,-3.9891,-3.9872,-3.9799,0.0,0.0,0.0,0.0,0.0,0.0,0.0,0.0,0.0,0.0,0.0,0.0,0.0,0.0,0.0,0.0,0.0,0.0,-1.7112,-1.817,-1.917,-2.0024,-2.1424,-2.2365,-2.2706,-2.3295,-2.375,-2.3995,-2.4008,-2.4168,-2.4399,-2.4412,-2.4426,-2.4452,-2.477,-2.4941,-2.4954,-2.4941,-2.4556,-2.3941,-2.3094,-2.2211,-2.1301,-2.0151,-1.9145,-1.829,-1.7474,-1.6765,-1.623,-1.5901,-1.6032,-1.627,-1.5968,-1.6315,-1.7101,-1.8529,-1.9439,-2.0254,-2.171,-2.318,-2.4502,-2.5344,-2.5985,-2.6466,-2.6707,-2.6092,-2.5518,-2.5598,-2.4924,-2.4444,-2.4892,-2.4968,-2.5393,-2.6661,-2.7378,-2.84,-3.0221,-3.1557,-3.2833,-3.4183,-3.5144,-3.6006,-3.6879,-3.7302,-3.7521,-3.7482,-3.901,-3.9891,-3.9909,-4.1066,-4.1684,-4.1684,-4.2069,-4.2149,-4.1721,-4.2106,-4.2326,-4.2344,-4.3133,-4.3078,-4.2326,-4.2755,-4.2718,-4.2296,-4.1904,-4.1739,-4.1684,-4.1323,-4.0937,-4.0607,-4.0607,-4.035,-3.9983,-3.9983,-3.9946,-3.9887,0.0,0.0,0.0,0.0,0.0,0.0,0.0,0.0,0.0,0.0,0.0,0.0,0.0,0.0,0.0,0.0,0.0,0.0,-1.6498,-1.6981,-1.7569,-1.8223,-1.9052,-1.9733,-2.0284,-2.0646,-2.0949,-2.1211,-2.147,-2.1617,-2.1697,-2.1911,-2.2124,-2.2372,-2.2452,-2.2612,-2.28,-2.2586,-2.2144,-2.151,-2.0855,-2.0054,-1.9214,-1.8465,-1.7742,-1.7101,-1.6685,-1.6284,-1.5901,-1.5835,-1.6166,-1.666,-1.7021,-1.7702,-1.8529,-1.957,-2.0744,-2.2031,-2.33,-2.4556,-2.565,-2.6052,-2.644,-2.656,-2.5972,-2.5483,-2.5047,-2.449,-2.3618,-2.3025,-2.3216,-2.3237,-2.3662,-2.5012,-2.6531,-2.8115,-2.9684,-3.1549,-3.3234,-3.4575,-3.6064,-3.7219,-3.7666,-3.8661,-3.9125,-3.8768,-3.9469,-4.0019,-4.0331,-4.1231,-4.1684,-4.1684,-4.2069,-4.2234,-4.2167,-4.2571,-4.292,-4.3188,-4.3389,-4.3224,-4.2773,-4.3151,-4.2949,-4.2332,-4.2516,-4.2399,-4.2167,-4.2057,-4.1947,-4.1855,-4.1855,-4.1616,-4.1268,-4.1268,-4.1066,-4.079,0.0,0.0,0.0,0.0,0.0,0.0,0.0,0.0,0.0,0.0,0.0,0.0,0.0,0.0,0.0,0.0,0.0,0.0,0.0,-1.6166,-1.6526,-1.702,-1.7608,-1.809,-1.8439,-1.8705,-1.8971,-1.9221,-1.941,-1.9586,-1.9749,-1.988,-2.0054,-2.0244,-2.0378,-2.0494,-2.0628,-2.0468,-2.0134,0.0,0.0,-1.8478,-1.7876,-1.7382,-1.6914,-1.6486,-1.6351,-1.6246,-1.6248,-1.6648,-1.6995,-1.7435,-1.829,-1.9172,-2.008,-2.1096,-2.2338,-2.3585,-2.469,-2.577,-2.6613,-2.6774,-2.6707,-2.6373,-2.5358,-2.4493,-2.3632,-2.2651,-2.1695,-2.1117,-2.135,-2.1598,-2.2301,-2.3881,-2.606,-2.8104,-2.9694,-3.2253,-3.4456,-3.5806,-3.7476,-3.8725,-3.9321,-3.9869,-4.0142,-4.0025,-4.0101,-4.0258,-4.0497,-4.1409,-4.1941,-4.1941,-4.2509,-4.2821,-4.2821,-4.2901,-4.3122,-4.3499,-4.3499,-4.3371,-4.3151,-4.3389,-4.3243,-4.2821,-4.2901,-4.2791,-4.2571,-4.2387,-4.2314,-4.2314,-4.2314,-4.2142,-4.1941,-4.1941,-4.1727,-4.1378,0.0,0.0,0.0,0.0,0.0,0.0,0.0,0.0,0.0,0.0,0.0,0.0,0.0,0.0,0.0,0.0,0.0,0.0,0.0,0.0,-1.5875,-1.623,-1.6725,-1.6993,-1.6993,-1.7247,-1.7475,-1.7702,-1.7742,-1.7916,-1.8196,-1.8237,-1.825,-1.8263,-1.8489,-1.8596,-1.8596,-1.8596,-1.8464,-1.8143,-1.7648,-1.726,-1.6966,0.0,-1.6433,-1.6244,-1.6244,-1.6433,-1.6847,-1.7769,-1.8143,-1.8464,-1.9706,-2.0695,-2.163,-2.2853,-2.3941,-2.4997,-2.5931,-2.6734,-2.7296,-2.7255,-2.6747,-2.5892,-2.4676,-2.3274,-2.1906,-2.0664,-1.9709,-1.9194,-1.9538,-2.0135,-2.1203,-2.3047,-2.5612,-2.8002,-2.9763,-3.2954,-3.5591,-3.7043,-3.8797,-4.0251,-4.1081,-4.0937,-4.0842,-4.1155,-4.0819,-4.0588,-4.0588,-4.169,-4.2369,-4.2479,-4.3133,-4.3499,-4.3499,-4.3133,-4.3133,-4.3499,-4.3499,-4.3499,-4.3499,-4.3499,-4.3499,-4.3481,-4.3158,-4.2993,-4.2975,-4.2582,-4.2436,-4.2436,-4.2436,-4.2443,-4.2406,-4.2406,-4.2149,-4.1776,0.0,0.0,0.0,0.0,0.0,0.0,0.0,0.0,0.0,0.0,-1.4804,0.0,0.0,0.0,0.0,0.0,0.0,0.0,0.0,0.0,0.0,-1.5861,-1.5981,-1.6035,-1.6035,-1.6088,-1.6142,-1.6195,-1.646,-1.6632,-1.6685,-1.6901,-1.7021,-1.7021,-1.7074,-1.7088,-1.7088,-1.7088,-1.6927,-1.6672,-1.6565,-1.6326,-1.6035,-1.5981,0.0,0.0,-1.5888,-1.6246,-1.6887,-1.8023,-1.8891,-1.9733,-2.1162,-2.2218,-2.3166,-2.4356,-2.5222,-2.5957,-2.6841,-2.7188,-2.7242,-2.6961,-2.6092,-2.4967,-2.3536,-2.2242,-2.0986,-1.9765,-1.8962,-1.848,-1.8555,-1.9327,-2.0411,-2.1803,-2.447,-2.6979,-2.8694,-3.1785,-3.4635,-3.6566,-3.8925,-4.0704,-4.1536,-4.1884,-4.1963,-4.1625,-4.1244,-4.0992,-4.0992,-4.1837,-4.2582,-4.3261,-4.3426,-4.3499,-4.3499,-4.3426,-4.3426,-4.3499,-4.3499,-4.3499,-4.3499,-4.3499,-4.3499,-4.3499,-4.3426,0.0,-4.3371,-4.3316,-4.3279,-4.3279,-4.3279,-4.3078,-4.281,-4.281,-4.2553,-4.2222,0.0,0.0,0.0,0.0,0.0,0.0,0.0,0.0,0.0,0.0,-1.5171,-1.5493,0.0,0.0,0.0,0.0,0.0,0.0,0.0,0.0,0.0,0.0,-1.5378,-1.5444,-1.5581,-1.5581,-1.5648,-1.5808,0.0,-1.6046,-1.6046,-1.6155,-1.6222,-1.6222,-1.6222,-1.6222,-1.6222,-1.6222,-1.6166,-1.6046,-1.6046,-1.5928,-1.5808,0.0,0.0,0.0,-1.5808,-1.6182,-1.686,-1.7876,-1.8916,-2.0107,-2.1884,-2.3166,-2.4172,-2.5275,-2.6091,-2.68,-2.7376,-2.7495,-2.7348,-2.6747,-2.5598,-2.4155,-2.2365,-2.0989,-1.9779,-1.8607,-1.8042,-1.7828,-1.8013,-1.8847,-1.9957,-2.1233,-2.3977,-2.6485,-2.7967,-3.1389,-3.4366,-3.6234,-3.8853,-4.0916,-4.1969,-4.2485,-4.2569,-4.2091,-4.1672,-4.1336,-4.1102,-4.1873,-4.2546,-4.3151,-4.3371,-4.3499,-4.3499,-4.3499,-4.3499,-4.3499,-4.3499,-4.3499,-4.3499,-4.3499,-4.3499,-4.3499,-4.3499,-4.3499,-4.3499,-4.3499,-4.3499,-4.3499,-4.3499,-4.3371,-4.3188,-4.3188,-4.2975,-4.2626,0.0,0.0,0.0,0.0,0.0,0.0,0.0,-1.4256,-1.4907,-1.5306,-1.5779,-1.6002,-1.5784,-1.5841,-1.5665,0.0,0.0,0.0,0.0,0.0,0.0,0.0,0.0,0.0,-1.5297,0.0,0.0,-1.5715,-1.5781,0.0,0.0,0.0,0.0,0.0,-1.5808,-1.5808,-1.5808,-1.5808,-1.5808,0.0,0.0,-1.5808,-1.5808,0.0,0.0,0.0,0.0,-1.6142,-1.674,-1.7542,-1.8557,-1.9746,-2.1649,-2.3193,-2.4506,-2.5491,-2.6386,-2.7122,-2.7495,-2.7562,-2.7321,-2.6493,-2.5144,-2.3474,-2.139,-1.9994,-1.8805,-1.7641,-1.7352,-1.7375,-1.7638,-1.8452,-1.9444,-2.0516,-2.3127,-2.5493,-2.6779,-3.0515,-3.3803,-3.552,-3.8477,-4.0888,-4.2129,-4.2761,-4.2943,-4.2569,-4.2007,-4.1583,-4.1231,-4.1855,-4.2406,-4.2901,-4.3232,-4.3408,-4.3499,-4.3499,-4.3499,-4.3499,-4.3499,-4.3499,-4.3499,-4.3499,-4.3499,-4.3499,-4.3499,-4.3499,-4.3499,-4.3499,-4.3499,-4.3499,-4.3499,-4.3499,-4.3499,-4.3499,-4.3279,-4.3048,0.0,0.0,0.0,0.0,0.0,0.0,0.0,-1.4558,-1.533,-1.6105,-1.6444,-1.6615,-1.6582,-1.619,-1.5757,0.0,0.0,0.0,0.0,0.0,0.0,0.0,0.0,0.0,0.0,0.0,0.0,-1.5431,-1.5675,0.0,0.0,0.0,0.0,0.0,0.0,-1.5808,-1.5808,-1.5808,0.0,0.0,0.0,0.0,0.0,0.0,0.0,0.0,0.0,-1.6032,-1.6431,-1.7046,-1.7662,-1.8396,-1.9693,-2.163,-2.3639,-2.4823,-2.5636,-2.6292,-2.7122,-2.7108,-2.676,-2.6185,-2.469,-2.2825,-2.0757,-1.9531,-1.8485,-1.7295,-1.717,-1.7317,-1.7346,-1.7901,-1.8525,-1.8935,-2.1052,-2.3081,-2.433,-2.8244,-3.1778,-3.3964,-3.7604,-4.0462,-4.1736,-4.263,-4.3068,-4.3026,-4.2216,-4.1671,-4.1653,-4.1702,-4.2087,-4.2883,-4.2938,-4.3158,-4.3499,-4.3499,-4.3499,-4.3499,-4.3499,-4.3499,-4.3499,-4.3499,-4.3499,-4.3499,-4.3499,-4.3499,0.0,-4.3499,-4.3499,-4.3499,-4.3499,-4.3499,-4.3499,-4.3499,-4.3463,-4.3444,0.0,0.0,0.0,0.0,0.0,0.0,0.0,-1.4594,-1.539,-1.6202,-1.6525,-1.677,-1.6925,-1.6453,-1.5877,0.0,0.0,0.0,0.0,0.0,0.0,0.0,0.0,0.0,0.0,0.0,-1.524,-1.5391,-1.5661,0.0,0.0,0.0,0.0,0.0,0.0,-1.5808,-1.5808,-1.5808,0.0,0.0,0.0,0.0,0.0,0.0,0.0,0.0,0.0,0.0,-1.6072,-1.6511,-1.6926,-1.7355,-1.821,-1.9359,-2.0895,-2.3313,-2.4569,-2.5398,-2.6453,-2.6653,-2.6386,-2.5663,-2.4272,-2.2492,-2.0382,-1.918,-1.8216,-1.7206,-1.7169,-1.7302,-1.7302,-1.7682,-1.8116,-1.8438,-2.0119,-2.1843,-2.3121,-2.6647,-3.0075,-3.2675,-3.6252,-3.9247,-4.1206,-4.2401,-4.3101,-4.3018,-4.2692,-4.227,-4.1727,-4.1684,-4.1941,-4.2534,-4.2791,-4.3078,-4.3499,-4.3499,-4.3499,-4.3499,-4.3499,-4.3499,-4.3499,-4.3499,-4.3499,-4.3499,-4.3499,-4.3499,0.0,-4.3499,-4.3499,-4.3499,-4.3499,-4.3499,-4.3499,-4.3499,-4.3499,-4.3499,0.0,0.0,0.0,0.0,0.0,0.0,-1.3702,-1.4449,-1.527,-1.6093,-1.6404,-1.6693,-1.6962,-1.6505,-1.5859,-1.5063,0.0,0.0,0.0,0.0,0.0,0.0,0.0,0.0,0.0,0.0,-1.5213,-1.5391,-1.5661,-1.5808,0.0,0.0,-1.5808,-1.5808,0.0,0.0,0.0,0.0,0.0,0.0,0.0,0.0,0.0,0.0,0.0,0.0,0.0,0.0,0.0,0.0,0.0,-1.654,-1.706,-1.7542,-1.8544,-2.1504,-2.2998,-2.3995,-2.5277,-2.5678,-2.5558,-2.4756,-2.3584,-2.2081,-1.9951,-1.8877,-1.8051,-1.7175,-1.7153,-1.7302,-1.7302,-1.7492,-1.7755,-1.8101,-1.9302,-2.0693,-2.2053,-2.5214,-2.8494,-3.1477,-3.5138,-3.834,-4.0679,-4.2492,-4.348,-4.3395,-4.3267,-4.2875,-4.2125,-4.1843,-4.1867,-4.2314,-4.2589,-4.2949,-4.3481,-4.3499,-4.3499,-4.3499,-4.3499,-4.3499,-4.3499,-4.3499,-4.3499,-4.3499,-4.3499,-4.3499,0.0,-4.3499,-4.3499,-4.3499,-4.3499,-4.3499,-4.3499,-4.3499,-4.3499,-4.3499,0.0,0.0,0.0,0.0,0.0,0.0,0.0,-1.4184,-1.4979,-1.5789,-1.6154,-1.642,-1.667,-1.6223,-1.5666,-1.5048,0.0,0.0,0.0,0.0,0.0,0.0,0.0,0.0,0.0,0.0,-1.5391,-1.5391,-1.5661,-1.5808,-1.5808,-1.5808,-1.5808,-1.5808,0.0,0.0,0.0,0.0,0.0,0.0,0.0,0.0,0.0,0.0,0.0,0.0,0.0,0.0,0.0,0.0,0.0,0.0,0.0,-1.6486,-1.7194,-1.9543,-2.0895,-2.1943,-2.3429,-2.4008,-2.4088,-2.3452,-2.266,-2.1452,-1.9384,-1.8593,-1.8049,-1.718,-1.7153,-1.7302,-1.7302,-1.7302,-1.7419,-1.7741,-1.8379,-1.9372,-2.0986,-2.3939,-2.7093,-3.0322,-3.445,-3.7931,-4.0277,-4.2861,-4.436,-4.4299,-4.3847,-4.3418,-4.2987,-4.2162,-4.1867,-4.2314,-4.2289,-4.2674,-4.3481,-4.3499,-4.3499,-4.3499,-4.3499,-4.3499,-4.3499,-4.3499,-4.3499,-4.3499,-4.3499,-4.3499,0.0,-4.3499,-4.3499,-4.3499,-4.3499,-4.3499,-4.3499,-4.3499,-4.3499,-4.3499,0.0,0.0,0.0,0.0,0.0,0.0,0.0,-1.375,-1.4389,-1.5004,-1.5475,-1.5777,-1.5873,-1.5721,-1.5381,-1.4776,0.0,0.0,0.0,0.0,0.0,0.0,0.0,0.0,0.0,0.0,-1.5498,-1.5675,-1.5992,-1.6233,-1.6395,-1.6233,-1.6126,-1.6126,-1.5901,-1.5808,0.0,0.0,0.0,0.0,0.0,0.0,-1.5808,0.0,0.0,0.0,0.0,0.0,0.0,0.0,0.0,0.0,0.0,0.0,0.0,-1.7462,-1.8878,-2.0405,-2.189,-2.2505,-2.2592,-2.2251,-2.16,-2.0637,-1.9168,-1.8376,-1.7803,-1.7297,-1.727,-1.7302,-1.7302,-1.7302,-1.7475,-1.7989,-1.8647,-1.9641,-2.1252,-2.3997,-2.695,-2.992,-3.521,-3.9294,-4.1199,-4.3173,-4.4164,-4.3828,-4.425,-4.389,-4.2611,-4.2247,-4.2032,-4.1886,-4.2142,-4.2527,-4.3059,-4.3353,-4.3499,-4.3499,-4.3499,-4.3499,-4.3499,-4.3499,-4.3499,-4.3499,-4.3499,-4.3499,-4.3499,-4.3499,-4.3499,-4.3499,-4.3499,-4.3499,-4.3499,-4.3499,-4.3499,-4.3499,0.0,0.0,0.0,0.0,0.0,0.0,0.0,-1.3204,-1.3635,-1.4075,-1.4613,-1.4998,-1.5176,-1.5214,-1.5035,-1.468,0.0,0.0,0.0,0.0,0.0,0.0,0.0,0.0,-1.5297,-1.5601,-1.5818,-1.5992,-1.6431,-1.6725,-1.6874,-1.6712,-1.6565,-1.6444,-1.6126,-1.5915,0.0,0.0,0.0,0.0,0.0,0.0,-1.5808,0.0,0.0,0.0,0.0,0.0,0.0,0.0,0.0,0.0,0.0,0.0,0.0,0.0,-1.7354,-1.8545,-2.003,-2.0646,-2.0762,-2.0498,-2.0132,-1.9521,-1.8542,-1.7961,-1.7581,-1.7348,-1.7302,-1.7302,-1.7302,-1.7302,-1.7543,-1.8273,-1.886,-1.9845,-2.1717,-2.4143,-2.7303,-3.1443,-3.6143,-3.9661,-4.1387,-4.2759,-4.3515,-4.3387,-4.3857,-4.3647,-4.2389,-4.218,-4.1867,-4.1506,-4.1849,-4.2296,-4.2681,-4.2894,-4.3041,-4.3041,-4.3188,-4.3261,-4.3261,-4.3426,-4.3499,-4.3499,-4.3499,-4.3499,0.0,-4.3499,-4.3499,-4.3499,-4.3499,-4.3499,-4.3499,-4.3499,-4.3499,-4.3499,0.0,0.0,0.0,0.0,0.0,0.0,0.0,0.0,0.0,0.0,-1.3613,-1.4145,-1.4554,-1.4649,-1.4666,0.0,0.0,0.0,0.0,0.0,0.0,0.0,0.0,0.0,-1.5784,-1.6126,-1.6324,-1.6364,-1.6926,-1.7259,-1.73,-1.7246,-1.7046,-1.6727,-1.6431,-1.6112,-1.5808,0.0,0.0,0.0,-1.5808,-1.5808,0.0,0.0,0.0,0.0,0.0,0.0,0.0,0.0,0.0,0.0,0.0,0.0,0.0,0.0,0.0,0.0,0.0,-1.8544,-1.8731,-1.8464,-1.8415,-1.8233,-1.7605,-1.7404,0.0,-1.7328,-1.7302,-1.7302,-1.7302,-1.7331,-1.7631,-1.8581,-1.905,-2.0109,-2.2395,-2.466,-2.8278,-3.4287,-3.7009,-3.9095,-4.0781,-4.1802,-4.2499,-4.2881,-4.2978,-4.2838,-4.2385,-4.194,-4.1543,-4.1121,-4.1488,-4.1831,-4.2234,-4.2314,-4.2314,-4.2289,-4.27,-4.2883,-4.292,-4.3279,-4.3463,0.0,-4.3499,-4.3499,-4.3499,-4.3499,-4.3499,-4.3499,-4.3499,-4.3499,-4.3499,-4.3499,-4.3499,-4.3499,0.0,0.0,0.0,0.0,0.0,0.0,0.0,0.0,0.0,0.0,-1.3136,-1.3744,-1.3838,-1.4196,0.0,0.0,0.0,0.0,0.0,0.0,0.0,0.0,0.0,0.0,-1.5571,-1.604,-1.6536,-1.6991,-1.7327,-1.7742,-1.8197,-1.7729,-1.7354,-1.7046,-1.6524,-1.6112,-1.5808,-1.5808,0.0,0.0,-1.5808,-1.5808,0.0,0.0,0.0,0.0,-1.5808,-1.5808,0.0,0.0,0.0,0.0,0.0,0.0,0.0,0.0,-1.5915,-1.5981,-1.6328,0.0,-1.7582,-1.7515,-1.748,-1.7369,0.0,-1.7117,-1.7136,-1.7284,-1.7302,-1.7302,-1.7302,-1.7507,-1.7982,-1.8846,-1.976,-2.1132,-2.344,-2.721,-3.104,-3.4526,-3.6485,-3.8105,-3.9455,-4.0959,-4.1903,-4.1927,-4.2573,-4.2666,-4.1916,-4.1769,-4.1543,-4.1121,-4.1194,-4.1451,-4.1831,-4.2167,-4.2314,-4.2314,-4.2424,-4.2608,-4.292,-4.3012,-4.3188,-4.3499,-4.3499,-4.3499,-4.3499,-4.3499,-4.3499,-4.3499,-4.3499,-4.3499,-4.3499,-4.3499,-4.3499,-4.3499,0.0,0.0,0.0,0.0,0.0,0.0,0.0,0.0,0.0,0.0,0.0,0.0,0.0,0.0,0.0,0.0,0.0,0.0,0.0,0.0,0.0,0.0,0.0,-1.538,-1.5499,-1.6149,-1.6633,-1.6966,-1.7675,-1.8237,-1.8677,-1.8357,-1.805,-1.7742,-1.6752,-1.6112,-1.5808,-1.5808,-1.5808,-1.5808,-1.5808,0.0,0.0,0.0,0.0,0.0,-1.5808,-1.5808,0.0,-1.5808,-1.5808,-1.5808,0.0,0.0,0.0,0.0,-1.5808,-1.5835,-1.5992,-1.6286,-1.6565,-1.6565,-1.6518,-1.6541,-1.6605,-1.6738,-1.6871,-1.7106,-1.7246,-1.7346,-1.7492,-1.7799,-1.8444,-1.9639,-2.0715,-2.2539,-2.5839,-2.9435,-3.2484,-3.4609,-3.6065,-3.7381,-3.8624,-3.9784,-4.0631,-4.1032,-4.1702,-4.1927,-4.1451,-4.1225,-4.1158,-4.1102,-4.0919,-4.1029,-4.1433,-4.1653,-4.1763,-4.1763,-4.1965,-4.2167,-4.2369,-4.2553,-4.2711,-4.2949,-4.3133,-4.3206,-4.3224,-4.3408,-4.3499,-4.3499,-4.3499,-4.3499,-4.3499,-4.3499,-4.3499,-4.3499,0.0,0.0,0.0,0.0,0.0,0.0,0.0,0.0,0.0,0.0,0.0,0.0,0.0,0.0,0.0,0.0,0.0,0.0,0.0,0.0,0.0,0.0,-1.4916,-1.5167,-1.5445,-1.6226,-1.6733,-1.6904,-1.8022,-1.8741,-1.909,-1.901,-1.8744,-1.8251,-1.6899,-1.6112,-1.5808,-1.5808,-1.5808,-1.5808,-1.5808,0.0,0.0,0.0,0.0,0.0,0.0,0.0,0.0,-1.5808,-1.5808,-1.5808,-1.5808,0.0,0.0,0.0,0.0,0.0,-1.6163,-1.6059,-1.5888,-1.5928,-1.5901,-1.5946,-1.6221,-1.6418,-1.665,-1.6989,-1.7202,-1.7445,-1.7872,-1.8277,-1.9076,-2.0666,-2.2168,-2.4557,-2.866,-3.1199,-3.3215,-3.4701,-3.5707,-3.6763,-3.7989,-3.8648,-3.9313,-4.0144,-4.0716,-4.0992,-4.0919,-4.0607,-4.057,-4.0901,-4.0588,-4.057,-4.0919,-4.1047,-4.1102,-4.1102,-4.147,-4.1629,-4.1702,-4.2032,-4.2216,-4.2332,-4.2681,0.0,-4.2846,-4.3224,-4.3408,-4.3408,-4.3463,-4.3499,-4.3499,-4.3499,-4.3499,-4.3499,0.0,0.0,0.0,0.0,0.0,0.0,0.0,0.0,0.0,0.0,0.0,0.0,0.0,0.0,0.0,0.0,0.0,0.0,0.0,0.0,0.0,-1.4376,-1.4616,-1.4896,-1.5169,-1.5948,-1.6872,-1.7882,-1.8538,-1.9229,-1.9997,-1.9533,-1.8625,-1.738,-1.6618,-1.6112,-1.5808,-1.5808,-1.5808,-1.5808,-1.5808,0.0,0.0,0.0,0.0,0.0,0.0,0.0,0.0,-1.5808,-1.5808,-1.5808,-1.5808,0.0,0.0,0.0,0.0,0.0,-1.5861,-1.6046,-1.6284,-1.6513,-1.6393,-1.6279,-1.6559,-1.6426,-1.6459,-1.7203,-1.7366,-1.7635,-1.8475,-1.9166,-2.0098,-2.1704,-2.5019,-2.8163,-3.0442,-3.2038,-3.3516,-3.5039,-3.556,-3.6165,-3.7129,-3.8306,-3.908,-3.9287,-4.0107,-4.0442,-4.0093,-4.0019,-4.0001,-4.0074,-4.0001,-4.0001,-4.0074,-4.0754,-4.1102,-4.1102,-4.1176,-4.1378,-4.1684,-4.1757,-4.1959,-4.2289,0.0,-4.2406,-4.2399,-4.2846,-4.3012,-4.3048,-4.3353,-4.3499,-4.3499,-4.3499,-4.3499,-4.3499,0.0,0.0,0.0,0.0,0.0,0.0,0.0,0.0,0.0,0.0,0.0,0.0,0.0,0.0,0.0,0.0,0.0,0.0,0.0,0.0,-1.4364,-1.4521,-1.4765,-1.5035,-1.5307,-1.6262,-1.7145,-1.7974,-1.8881,-1.9711,-2.0415,-1.9857,-1.8905,-1.7595,-1.6847,-1.6259,-1.5808,-1.5808,-1.5808,-1.5808,0.0,0.0,0.0,0.0,0.0,0.0,0.0,0.0,0.0,0.0,-1.5808,-1.5808,-1.5808,0.0,0.0,0.0,0.0,0.0,-1.6019,-1.6286,-1.6605,-1.6899,-1.6752,-1.6563,-1.6662,-1.6799,-1.7015,-1.7377,-1.7831,-1.8397,-1.9199,-1.9997,-2.1461,-2.4207,-2.7288,-2.9971,-3.1624,-3.3006,-3.4123,-3.4833,-3.5171,-3.5617,-3.6326,-3.7411,-3.8251,-3.8719,-3.963,-4.0093,-3.9891,-3.9671,-3.9652,-3.9872,-3.9671,-3.9652,-3.9891,-4.0258,-4.0552,-4.079,-4.079,-4.0992,-4.1396,-4.1396,-4.1488,-4.1672,0.0,-4.1959,-4.1996,-4.2424,-4.2718,-4.2938,-4.3078,-4.3298,-4.3518,-4.3738,-4.3683,-4.3518,0.0,0.0,0.0,0.0,0.0,0.0,0.0,0.0,0.0,0.0,0.0,0.0,0.0,0.0,0.0,0.0,0.0,0.0,0.0,0.0,-1.4328,-1.4579,-1.4852,-1.5206,-1.5676,-1.674,-1.7613,-1.8315,-1.9527,-2.0318,-2.0716,-2.0093,-1.9132,-1.7876,-1.7049,-1.6355,-1.5808,-1.5808,-1.5808,-1.5808,0.0,0.0,0.0,0.0,0.0,0.0,0.0,0.0,0.0,0.0,0.0,0.0,0.0,0.0,0.0,-1.5808,-1.5808,-1.5848,-1.6112,-1.638,-1.6673,-1.6993,-1.7006,-1.6927,-1.6994,-1.7377,-1.779,-1.8005,-1.8625,-1.9355,-2.0075,-2.1321,-2.3265,-2.6493,-2.8982,-3.0985,-3.2362,-3.3555,-3.4324,-3.4404,-3.4504,-3.4853,-3.5511,-3.6401,-3.7266,-3.8147,-3.9073,-3.9626,-3.9615,-3.9263,-3.9226,-3.9597,-3.9263,-3.9245,-3.9597,-3.9597,-3.9854,-4.0368,-4.0368,-4.057,-4.0956,-4.0956,-4.1011,-4.1121,-4.1451,-4.1537,-4.1574,-4.1977,-4.2326,-4.2644,-4.2846,-4.3188,-4.3664,-4.3976,-4.3958,-4.3811,0.0,0.0,0.0,0.0,0.0,0.0,0.0,0.0,0.0,0.0,0.0,0.0,0.0,0.0,0.0,0.0,0.0,0.0,0.0,0.0,-1.4049,-1.4332,-1.4533,-1.515,-1.6214,-1.7283,-1.8386,-1.9498,-2.0682,-2.1181,-2.1064,-2.0214,-1.9011,-1.7582,-1.6981,-1.6355,-1.5808,-1.5808,-1.5808,-1.5808,-1.5808,0.0,0.0,0.0,0.0,0.0,0.0,0.0,0.0,0.0,0.0,0.0,0.0,0.0,-1.5808,-1.5808,-1.5808,-1.5808,-1.5835,-1.6072,-1.6404,-1.666,-1.7128,-1.7582,-1.7862,-1.817,-1.8655,-1.9478,-1.9891,-2.0376,-2.1299,-2.3562,-2.5869,-2.7721,-2.9739,-3.151,-3.261,-3.3068,-3.3442,-3.3796,-3.3549,-3.3692,-3.4609,-3.5479,-3.6392,-3.7328,-3.8171,-3.8715,-3.871,-3.8655,-3.8655,-3.8692,-3.8655,-3.8655,-3.8692,-3.8692,-3.9116,-3.9928,-3.9928,-4.0148,-4.0552,-4.0552,-4.0754,-4.1102,-4.1139,-4.1139,-4.1176,-4.1555,-4.1739,-4.1849,-4.2626,-4.3397,-4.405,-4.4068,-4.4306,-4.4645,0.0,0.0,0.0,0.0,0.0,0.0,0.0,0.0,0.0,0.0,0.0,0.0,0.0,0.0,0.0,0.0,0.0,0.0,0.0,-1.4052,-1.4095,-1.453,-1.4611,-1.5337,-1.6767,-1.7631,-1.8632,-1.9809,-2.1007,-2.1543,-2.1395,-2.0294,-1.9212,-1.8143,-1.7354,-1.6685,-1.6112,-1.6112,-1.6005,-1.5808,-1.5808,-1.5808,0.0,0.0,0.0,0.0,0.0,0.0,0.0,0.0,-1.5808,-1.5808,-1.5808,-1.5808,-1.5808,-1.5808,-1.5808,-1.5808,-1.5808,-1.6179,-1.6607,-1.6939,-1.7729,-1.8423,-1.8529,-1.9239,-2.0073,-2.0786,-2.1425,-2.2112,-2.2897,-2.4559,-2.6415,-2.8072,-3.0045,-3.1696,-3.2596,-3.3191,-3.3422,-3.3172,-3.2972,-3.3148,-3.3848,-3.4437,-3.5278,-3.6465,-3.7095,-3.7668,-3.8203,-3.8243,-3.8322,-3.86,-3.86,-3.86,-3.86,-3.86,-3.8765,-3.9098,-3.9355,-3.9685,-4.0111,-4.0111,-4.035,-4.0735,-4.0735,-4.0882,-4.1121,-4.1268,-4.1445,-4.1776,-4.2608,-4.3415,-4.4123,-4.4407,-4.459,-4.4756,0.0,0.0,0.0,0.0,0.0,0.0,0.0,0.0,0.0,0.0,0.0,0.0,0.0,0.0,0.0,0.0,0.0,0.0,-1.4268,-1.3968,-1.3972,-1.4428,-1.4362,-1.5037,-1.6563,-1.7388,-1.8557,-2.0047,-2.1068,-2.1536,-2.1422,-2.0244,-1.9185,-1.8303,-1.7528,-1.6846,-1.6297,-1.6297,-1.6099,-1.5808,-1.5808,-1.5808,0.0,0.0,0.0,0.0,0.0,0.0,0.0,0.0,-1.5808,-1.5808,-1.5808,-1.5808,-1.5808,-1.5808,-1.5808,-1.5808,-1.5808,-1.6192,-1.6687,-1.7193,-1.8116,-1.9036,-1.9626,-2.0521,-2.1443,-2.2265,-2.303,-2.3759,-2.435,-2.5524,-2.6872,-2.8356,-3.02,-3.1637,-3.2197,-3.2725,-3.2903,-3.2345,-3.2137,-3.2361,-3.3015,-3.346,-3.4319,-3.5757,-3.6282,-3.6947,-3.7964,-3.8004,-3.8163,-3.86,-3.86,-3.86,-3.86,-3.86,-3.86,-3.86,-3.8875,-3.9263,-3.9689,-3.9689,-3.9983,-4.0515,-4.0515,-4.0735,-4.1102,-4.1102,-4.1415,-4.1922,-4.2516,-4.3305,-4.4123,-4.438,-4.4609,-4.4756,0.0,0.0,0.0,0.0,0.0,0.0,0.0,0.0,0.0,0.0,0.0,0.0,0.0,0.0,0.0,0.0,0.0,0.0,-1.4268,-1.3799,-1.3623,-1.3899,-1.3656,-1.4118,-1.5478,-1.6488,-1.8097,-2.0301,-2.0968,-2.1238,-2.1082,-1.9936,-1.892,-1.7982,-1.7448,-1.6884,-1.631,-1.631,-1.6112,-1.5808,-1.5808,-1.5808,-1.5808,0.0,0.0,0.0,0.0,0.0,0.0,0.0,-1.5808,-1.5808,-1.5808,-1.5808,-1.5808,-1.5808,-1.5808,-1.5808,-1.5808,-1.6046,-1.6511,-1.7394,-1.8277,-1.9399,-2.1194,-2.2017,-2.2779,-2.3981,-2.469,-2.5241,-2.563,-2.6565,-2.7629,-2.8622,-3.0178,-3.13,-3.13,-3.1593,-3.1666,-3.1344,-3.098,-3.1164,-3.2091,-3.2546,-3.3517,-3.5271,-3.5797,-3.6644,-3.7924,-3.8004,-3.8163,-3.86,-3.86,-3.86,-3.86,-3.86,-3.86,-3.86,-3.86,-3.8801,-3.9186,-3.9186,-3.9685,-4.0497,-4.0515,-4.0735,-4.1102,-4.1102,-4.158,-4.2271,-4.2314,-4.3067,-4.4068,-4.4086,-4.4325,-4.4719,0.0,0.0,0.0,0.0,0.0,0.0,0.0,0.0,0.0,0.0,0.0,0.0,0.0,0.0,0.0,0.0,0.0,0.0,-1.3727,-1.3593,-1.3623,-1.3899,-1.3999,-1.4589,-1.5763,-1.7188,-1.8729,-2.0438,-2.0401,-2.0419,-2.0437,-1.9477,-1.9025,-1.8973,-1.8384,-1.7876,-1.7462,-1.71,-1.6632,-1.6126,-1.5888,-1.5808,-1.5808,0.0,0.0,0.0,0.0,0.0,0.0,0.0,0.0,0.0,-1.5808,-1.5808,-1.5808,-1.5808,-1.5808,-1.5808,-1.5808,-1.6353,-1.7127,-1.8023,-1.9199,-2.0615,-2.2392,-2.326,-2.4128,-2.5718,-2.6026,-2.6038,-2.6155,-2.6967,-2.7836,-2.8535,-2.9929,-3.0853,-3.0559,-3.1045,-3.1217,-3.0603,-3.0682,-3.104,-3.1662,-3.1828,-3.2489,-3.3968,-3.4458,-3.5376,-3.6987,-3.7388,-3.7884,-3.856,-3.86,-3.86,-3.86,-3.86,-3.86,-3.86,-3.86,-3.8655,-3.8783,-3.8783,-3.9058,-3.9612,-3.9946,-4.0313,-4.0717,-4.0992,-4.1415,-4.1886,-4.2179,-4.2839,-4.3701,-4.3976,-4.4325,-4.4719,0.0,0.0,0.0,0.0,0.0,0.0,0.0,0.0,0.0,0.0,-0.8336,-0.8967,0.0,0.0,0.0,0.0,0.0,0.0,0.0,-1.3497,-1.3554,-1.3726,-1.4002,-1.4648,-1.5708,-1.7005,-1.8152,-1.916,-1.9417,-1.9663,-1.988,-1.9196,-1.9078,-1.9374,-1.8786,-1.8303,-1.7969,-1.7275,-1.6725,-1.627,-1.5928,-1.5808,-1.5808,0.0,0.0,0.0,0.0,0.0,0.0,0.0,0.0,0.0,-1.5808,-1.5808,-1.5808,-1.5808,-1.5808,-1.5835,-1.5955,-1.6647,-1.7622,-1.8731,-2.0137,-2.179,-2.4035,-2.4997,-2.5758,-2.6934,-2.7228,-2.7201,-2.6947,-2.7566,-2.8217,-2.8466,-2.977,-3.0518,-3.0012,-3.0731,-3.0945,-3.004,-3.0457,-3.0859,-3.0957,-3.1123,-3.1689,-3.2844,-3.3337,-3.4343,-3.6086,-3.6626,-3.7325,-3.8322,-3.8203,-3.8203,-3.8362,-3.8203,-3.8203,-3.8362,-3.8362,-3.8362,-3.8362,-3.8362,-3.85,-3.8797,-3.9545,-4.0111,-4.0552,-4.0937,-4.1341,-4.1702,-4.1959,-4.2436,-4.3059,-4.3444,-4.3801,-4.4021,0.0,0.0,0.0,0.0,0.0,0.0,0.0,0.0,0.0,0.0,-0.8228,-0.8792,0.0,0.0,0.0,0.0,0.0,0.0,0.0,0.0,-1.3497,-1.3555,-1.3855,-1.4514,-1.5515,-1.6289,-1.6777,-1.7022,-1.8159,-1.8905,-1.9308,-1.9038,-1.9105,-1.9455,-1.8865,-1.845,-1.8076,-1.7155,-1.6607,-1.631,-1.5928,-1.5808,-1.5808,-1.5808,0.0,0.0,0.0,0.0,0.0,0.0,0.0,0.0,-1.5808,-1.5808,-1.5808,-1.5808,-1.5821,-1.5915,-1.6257,-1.702,-1.8077,-1.9519,-2.1082,-2.3027,-2.5758,-2.6907,-2.7443,-2.7722,-2.8203,-2.8404,-2.7883,-2.8353,-2.8728,-2.8468,-2.9635,-3.0283,-2.9523,-3.0492,-3.0817,-2.9607,-3.0234,-3.0624,-3.0179,-3.0499,-3.1093,-3.1876,-3.2402,-3.347,-3.5228,-3.5763,-3.6644,-3.7964,-3.7605,-3.7605,-3.8004,-3.7605,-3.7605,-3.7964,-3.7964,-3.7964,-3.7884,-3.7964,-3.802,-3.8126,-3.9192,-3.999,-4.0497,-4.0882,-4.1268,-4.1592,-4.1666,-4.1904,-4.2314,-4.2755,-4.2901,-4.2975,0.0,0.0,0.0,0.0,0.0,0.0,0.0,0.0,0.0,0.0,0.0,0.0,0.0,0.0,0.0,0.0,0.0,0.0,0.0,0.0,-1.3601,-1.3794,-1.4671,-1.5369,-1.5805,-1.6186,-1.6411,-1.6464,-1.7341,-1.8077,-1.8719,-1.8851,-1.929,-1.9997,-1.9679,-1.9359,-1.9011,-1.7903,-1.7088,-1.6567,-1.6021,-1.5808,-1.5808,-1.5808,-1.5808,0.0,0.0,0.0,0.0,0.0,0.0,0.0,-1.5808,-1.5808,-1.5808,-1.5808,-1.5992,-1.6246,-1.6526,-1.7595,-1.8931,-2.0174,-2.2505,-2.477,-2.6092,-2.7014,-2.7762,-2.8297,-2.8323,-2.8326,-2.839,-2.8609,-2.8754,-2.8742,-2.9593,-2.9957,-2.909,-3.0096,-3.0404,-2.9118,-3.0025,-3.0484,-2.9747,-3.0039,-3.0439,-3.0657,-3.1373,-3.2597,-3.4435,-3.5167,-3.6287,-3.7964,-3.7605,-3.7605,-3.8004,-3.7605,-3.7445,-3.7525,-3.7845,-3.7645,-3.7005,-3.7685,-3.818,-3.8478,-3.8762,-3.93,-4.0056,-4.046,-4.0699,-4.0845,-4.1445,-4.1739,-4.1904,-4.2644,-4.2901,-4.2975,0.0,0.0,0.0,0.0,0.0,0.0,0.0,0.0,0.0,0.0,0.0,0.0,0.0,0.0,0.0,0.0,0.0,0.0,0.0,0.0,-1.3778,-1.4458,-1.5128,-1.562,-1.5885,-1.6041,-1.6112,-1.6112,-1.6958,-1.767,-1.8324,-1.8691,-1.9307,-2.0013,-1.972,-1.9374,-1.8893,-1.7675,-1.6901,-1.646,-1.5981,-1.5808,-1.5808,-1.5808,-1.5808,-1.5808,-1.5808,0.0,0.0,0.0,0.0,0.0,0.0,0.0,-1.5808,-1.5808,-1.6046,-1.6391,-1.6819,-1.7903,-1.941,-2.1617,-2.3741,-2.5518,-2.64,-2.6947,-2.7455,-2.8043,-2.839,-2.8577,-2.8604,-2.8563,-2.8571,-2.8782,-2.9077,-2.9202,-2.8838,-2.9661,-2.9853,-2.8688,-2.9627,-2.9953,-2.8841,-2.9171,-2.9362,-2.9192,-2.9729,-3.0881,-3.2613,-3.35,-3.4811,-3.6689,-3.6546,-3.6644,-3.7085,-3.6644,-3.6563,-3.6764,-3.7188,-3.7148,-3.6724,-3.6764,-3.699,-3.7384,-3.7619,-3.8301,-3.929,-3.9709,-4.0015,-4.0276,-4.0901,-4.1158,-4.1207,-4.2057,-4.2351,-4.2381,0.0,0.0,0.0,0.0,0.0,0.0,0.0,0.0,0.0,0.0,0.0,0.0,0.0,0.0,0.0,0.0,0.0,0.0,0.0,0.0,0.0,-1.5063,-1.5354,-1.562,-1.5885,-1.5891,-1.5911,-1.5911,-1.6738,-1.747,-1.8125,-1.8743,-1.9351,-1.9867,-1.9602,-1.9147,-1.849,-1.7288,-1.6607,-1.6337,-1.5941,-1.5808,-1.5808,-1.5808,-1.5808,-1.5808,-1.5808,-1.5808,-1.5808,-1.5808,0.0,0.0,0.0,0.0,-1.5808,-1.5808,-1.6046,-1.6431,-1.7045,-1.8237,-1.9983,-2.2953,-2.4569,-2.5651,-2.648,-2.6747,-2.692,-2.7442,-2.8177,-2.8628,-2.8484,-2.8245,-2.8157,-2.8589,-2.8468,-2.8427,-2.8716,-2.9241,-2.9278,-2.8455,-2.9255,-2.9382,-2.8043,-2.8328,-2.8381,-2.7852,-2.8219,-2.9129,-3.0632,-3.166,-3.3047,-3.5039,-3.5073,-3.5292,-3.5793,-3.5332,-3.5292,-3.5672,-3.6149,-3.6385,-3.6328,-3.5376,-3.5352,-3.5993,-3.6324,-3.7177,-3.8428,-3.8883,-3.9373,-3.9817,-4.0157,-4.0317,-4.0482,-4.1087,-4.1458,-4.1708,0.0,0.0,0.0,0.0,0.0,0.0,0.0,0.0,0.0,0.0,-0.8347,-0.8287,0.0,0.0,0.0,0.0,0.0,0.0,0.0,0.0,0.0,-1.5063,-1.5354,-1.562,-1.5885,-1.5914,-1.589,-1.589,-1.6547,-1.7272,-1.8112,-1.9174,-1.9834,-2.013,-1.9867,-1.9412,-1.8756,-1.7622,-1.6939,-1.6607,-1.6021,-1.5808,-1.5808,-1.5808,-1.5808,-1.5808,-1.5808,-1.5808,-1.5808,-1.5808,-1.5808,0.0,0.0,0.0,-1.5808,-1.5808,-1.6046,-1.6431,-1.7045,-1.8973,-2.1229,-2.2953,-2.4275,-2.5304,-2.5971,-2.6466,-2.68,-2.688,-2.7241,-2.7603,-2.7776,-2.7575,-2.7552,-2.7962,-2.7976,-2.8125,-2.8466,-2.8981,-2.9074,-2.8532,-2.9315,-2.9382,-2.8043,-2.8328,-2.8298,-2.7605,-2.7824,-2.8459,-2.9565,-3.0619,-3.2006,-3.3774,-3.3846,-3.4064,-3.4562,-3.4064,-3.3863,-3.3943,-3.4716,-3.5051,-3.4994,-3.3731,-3.4033,-3.5514,-3.5548,-3.6333,-3.7632,-3.837,-3.8914,-3.9314,-3.9368,-3.9566,-3.9927,-3.9957,-4.046,-4.1217,0.0,0.0,0.0,0.0,0.0,0.0,0.0,0.0,0.0,0.0,0.0,-0.8137,0.0,0.0,0.0,0.0,0.0,0.0,0.0,0.0,0.0,-1.4858,-1.5282,-1.5559,-1.5668,-1.5813,-1.5965,-1.6137,-1.7072,-1.796,-1.8872,-2.0195,-2.0588,-2.0197,-2.0064,-1.9503,-1.8624,-1.7782,-1.706,-1.6446,-1.6179,-1.5979,-1.5808,-1.5808,-1.5808,-1.5808,-1.5808,-1.5808,-1.5808,-1.5808,-1.5808,-1.5808,-1.5808,0.0,0.0,0.0,-1.6046,-1.6498,-1.7395,-1.9105,-2.0904,-2.2245,-2.3594,-2.4743,-2.5369,-2.5957,-2.6333,-2.6333,-2.6573,-2.6961,-2.7375,-2.7215,-2.7311,-2.8137,-2.773,-2.7635,-2.8746,-2.8498,-2.836,-2.8587,-2.8631,-2.8341,-2.7578,-2.7485,-2.7164,-2.6432,-2.6649,-2.7222,-2.8081,-2.8945,-3.0203,-3.1857,-3.2154,-3.2354,-3.2554,-3.2354,-3.2449,-3.2896,-3.35,-3.3758,-3.3649,-3.2541,-3.2762,-3.3927,-3.3935,-3.4832,-3.6345,-3.7203,-3.7797,-3.8252,-3.8689,-3.8837,-3.8824,-3.924,-3.9771,-4.0463,0.0,0.0,0.0,0.0,0.0,0.0,0.0,0.0,0.0,0.0,0.0,0.0,0.0,0.0,0.0,0.0,0.0,0.0,0.0,0.0,0.0,-1.469,-1.5161,-1.5427,-1.5499,-1.5753,-1.6031,-1.6297,-1.7414,-1.8455,-1.9427,-2.0828,-2.1162,-2.0637,-2.049,-1.9823,-1.8784,-1.8103,-1.7367,-1.6618,-1.6551,-1.6297,-1.5939,-1.5939,-1.5875,-1.5808,-1.5808,-1.5808,0.0,-1.5808,-1.5808,-1.5808,-1.5808,-1.5808,0.0,0.0,0.0,-1.6511,-1.7422,-1.8703,-2.0054,-2.1149,-2.2539,-2.3821,-2.4476,-2.5144,-2.5677,-2.5757,-2.5959,-2.6306,-2.6774,-2.676,-2.7028,-2.801,-2.7336,-2.7188,-2.8587,-2.7922,-2.7529,-2.8228,-2.7748,-2.7273,-2.6933,-2.665,-2.6221,-2.5531,-2.5718,-2.6167,-2.6791,-2.7513,-2.8577,-2.9975,-3.0375,-3.06,-3.06,-3.06,-3.0966,-3.169,-3.2121,-3.2307,-3.2171,-3.1354,-3.1357,-3.1994,-3.2309,-3.3388,-3.4977,-3.5965,-3.6666,-3.7103,-3.7586,-3.7601,-3.7386,-3.7924,-3.8513,-3.9252,0.0,0.0,0.0,0.0,0.0,0.0,0.0,0.0,0.0,0.0,0.0,0.0,-0.8435,-0.8627,-0.9097,-0.992,0.0,0.0,0.0,0.0,0.0,-1.4678,-1.498,0.0,-1.5487,-1.5753,-1.6031,-1.6297,-1.7197,-1.8233,-1.9414,-2.0584,-2.1403,-2.1871,-2.1309,-2.0561,-1.9679,-1.8811,-1.8117,-1.7515,-1.7259,-1.6817,-1.627,-1.627,-1.6072,-1.5808,-1.5808,0.0,0.0,0.0,0.0,0.0,-1.5808,-1.5808,-1.5808,0.0,0.0,0.0,-1.6687,-1.7662,-1.8798,-1.9693,-2.1015,-2.2338,-2.322,-2.4052,-2.4746,-2.5064,-2.5358,-2.5571,-2.5598,-2.6052,-2.6571,-2.6994,-2.6703,-2.6729,-2.7557,-2.7086,-2.6776,-2.7228,-2.7038,-2.6651,-2.6194,-2.6156,-2.5952,-2.5518,-2.5531,-2.5665,-2.6037,-2.6777,-2.7513,-2.8283,-2.8696,-2.8935,-2.8907,-2.8907,-2.9305,-3.0013,-3.0351,-3.0513,-3.0513,-2.9883,-2.9649,-2.9732,-3.1025,-3.2293,-3.3592,-3.4896,-3.5723,-3.6143,-3.5699,-3.5513,-3.5427,-3.5406,-3.6188,-3.7479,0.0,0.0,0.0,0.0,0.0,0.0,0.0,0.0,0.0,0.0,0.0,0.0,0.0,-0.9402,-0.9895,-1.0708,-1.2029,0.0,0.0,0.0,0.0,-1.4678,-1.4968,-1.5234,-1.5487,-1.5753,-1.6125,-1.6551,-1.7472,-1.8425,-1.9429,-2.0771,-2.1542,-2.1729,-2.1515,-2.1047,-2.0338,-1.9455,-1.8732,-1.8157,-1.7648,-1.722,-1.6832,-1.6645,-1.6486,0.0,0.0,0.0,0.0,0.0,0.0,0.0,0.0,0.0,-1.5808,-1.5808,-1.5875,-1.6059,-1.6377,-1.718,-1.8076,-1.8784,-2.0054,-2.1355,-2.2064,-2.302,-2.3839,-2.4218,-2.4623,-2.4973,-2.5197,-2.5558,-2.6008,-2.6639,-2.6231,-2.6202,-2.7195,-2.6509,-2.6164,-2.6853,-2.6374,-2.5933,-2.5841,-2.5602,-2.5308,-2.4957,-2.513,-2.5277,-2.5422,-2.5832,-2.64,-2.7169,-2.7301,-2.7462,-2.7657,-2.7657,-2.789,-2.8358,-2.8951,-2.9206,-2.9116,-2.9049,-2.8908,-2.8684,-2.9439,-3.0692,-3.2252,-3.3322,-3.4017,-3.4425,-3.4205,-3.3918,-3.374,-3.416,-3.5164,-3.6517,0.0,0.0,0.0,0.0,0.0,0.0,0.0,0.0,0.0,-1.1234,0.0,0.0,0.0,0.0,-1.1007,-1.188,-1.307,-1.3809,-1.3883,-1.4325,-1.4654,-1.4835,-1.5101,-1.5318,-1.5499,-1.5832,-1.6258,-1.671,-1.7535,-1.8372,-1.9267,-2.0445,-2.11,-2.1288,-2.1288,-2.1074,-2.0672,-2.0084,-1.9388,-1.8611,-1.8331,-1.7916,-1.7435,-1.7235,0.0,0.0,0.0,0.0,0.0,0.0,0.0,0.0,0.0,0.0,0.0,0.0,-1.5808,-1.5848,-1.6072,-1.6687,-1.7408,-1.7943,-1.9027,-2.0124,-2.0712,-2.1657,-2.2552,-2.2974,-2.3567,-2.4128,-2.4436,-2.473,-2.5192,-2.6103,-2.583,-2.5776,-2.6543,-2.5889,-2.5599,-2.6154,-2.5523,-2.5109,-2.5191,-2.4874,-2.4556,-2.4356,-2.4623,-2.4823,-2.493,-2.5211,-2.5619,-2.6223,-2.6237,-2.6386,-2.6685,-2.6685,-2.6834,-2.7133,-2.77,-2.7947,-2.788,-2.8274,-2.8283,-2.8045,-2.8433,-2.9439,-3.09,-3.1756,-3.2335,-3.2582,-3.2525,-3.2293,-3.2013,-3.2638,-3.3673,-3.4953,0.0,0.0,0.0,0.0,0.0,0.0,0.0,0.0,-1.3027,-1.2758,0.0,0.0,0.0,0.0,0.0,-1.3414,-1.3992,-1.4415,-1.4669,-1.4949,-1.5113,-1.5113,0.0,0.0,-1.5511,-1.6029,-1.6418,-1.671,-1.7285,-1.8055,-1.8876,-1.9506,-2.0094,-2.0672,-2.0686,-2.0686,-2.0686,-2.0686,-2.0,-1.8956,-1.9265,-1.8865,-1.8049,0.0,0.0,0.0,-1.7662,-1.7474,0.0,-1.7246,0.0,0.0,0.0,0.0,0.0,0.0,0.0,0.0,0.0,0.0,0.0,-1.7125,-1.7849,-1.8624,-1.9227,-2.0043,-2.0833,-2.1408,-2.2224,-2.2934,-2.322,-2.3527,-2.4138,-2.5264,-2.5451,-2.5464,-2.5478,-2.5224,-2.5074,-2.5074,-2.4543,-2.4195,-2.4195,-2.3941,-2.3803,-2.3803,-2.4035,-2.4315,-2.4572,-2.4917,-2.5211,-2.5491,-2.5504,-2.5651,-2.5998,-2.5998,-2.6145,-2.6386,-2.668,-2.6787,-2.68,-2.7428,-2.7696,-2.7709,-2.8058,-2.8684,-2.9523,-3.0386,-3.0761,-3.0776,-3.0761,-3.0484,-3.0251,-3.0866,-3.164,-3.2742,0.0,0.0,0.0,0.0,0.0,0.0,-1.3487,-1.3757,-1.3867,0.0,0.0,0.0,-1.3231,-1.3472,-1.3593,-1.3451,-1.4093,-1.4482,-1.4415,-1.4847,-1.5197,-1.5378,-1.5463,-1.5584,-1.5777,-1.6127,-1.6418,-1.671,-1.7285,-1.7817,-1.8276,-1.9118,-1.9602,-1.9776,-2.0174,-2.0241,-2.0054,-2.0267,-2.0144,-1.9823,-1.9733,-1.9533,-1.9292,0.0,0.0,0.0,0.0,-1.8719,-1.8437,0.0,-1.7943,-1.7248,0.0,0.0,0.0,0.0,0.0,0.0,-1.6435,0.0,0.0,0.0,0.0,0.0,-1.8343,-1.9092,-1.987,-2.0214,-2.0846,-2.1529,-2.2231,-2.2432,-2.2792,-2.3732,-2.4115,-2.4329,-2.4529,-2.4315,-2.4165,-2.4165,-2.4031,-2.3924,-2.3924,-2.3857,-2.3803,-2.3803,-2.3884,-2.4022,-2.4302,-2.481,-2.5117,-2.5197,-2.5411,-2.5651,-2.5998,-2.5998,-2.6145,-2.6386,-2.668,-2.6787,-2.68,-2.7428,-2.7696,-2.7709,-2.8058,-2.8347,-2.86,-2.9146,-2.9565,-2.9816,-2.9481,-2.9286,-2.9271,-2.9838,-3.0693,-3.1727,0.0,0.0,0.0,0.0,0.0,0.0,-1.4168,-1.4604,-1.4917,0.0,0.0,0.0,-1.501,-1.5161,-1.5066,-1.4603,-1.5129,-1.5333,-1.4989,-1.536,-1.562,-1.5656,-1.5656,-1.5728,-1.5885,-1.6258,-1.6551,-1.671,-1.7433,-1.7847,-1.8009,-1.8824,-1.9185,-1.9199,-1.9666,-1.9773,-1.9639,-1.9933,-2.0024,-2.0024,-2.0134,-2.0094,0.0,-1.9786,-1.9733,0.0,0.0,0.0,-1.9265,-1.9145,-1.8424,0.0,0.0,0.0,0.0,0.0,0.0,0.0,0.0,0.0,0.0,-1.7206,0.0,0.0,-1.7675,-1.8197,-1.8732,-1.8983,-1.9639,-2.0391,-2.1109,-2.1349,-2.1729,-2.2458,-2.276,-2.3148,-2.3915,-2.391,-2.3803,-2.3803,-2.3696,-2.3581,-2.3581,-2.3509,-2.3429,-2.3429,-2.3549,-2.3714,-2.4008,-2.4462,-2.4716,-2.4716,-2.4997,-2.5291,-2.5623,-2.5743,-2.5957,-2.6252,-2.6507,-2.664,-2.6653,-2.7121,-2.7402,-2.7535,-2.7871,-2.8072,-2.8221,-2.8445,-2.8684,-2.8936,-2.8655,-2.8571,-2.8639,-2.9206,-2.9886,-3.0706,0.0,0.0,0.0,-1.4029,-1.4644,-1.5202,-1.5226,-1.5713,-1.607,0.0,-1.6346,-1.6598,-1.6765,-1.6793,-1.6649,-1.6315,-1.6576,-1.6513,-1.5967,-1.6195,-1.6251,-1.5994,-1.5982,-1.5982,-1.5982,-1.6505,-1.6799,-1.6799,-1.7633,-1.8063,-1.8076,-1.8636,-1.889,-1.8903,-1.9267,-1.9401,-1.9415,-1.9706,-1.984,-1.9893,-2.0485,-2.0561,0.0,0.0,-2.037,-2.0397,-2.0397,-2.0184,-1.9893,-1.9522,-1.8692,0.0,0.0,0.0,0.0,0.0,-1.6822,0.0,0.0,0.0,0.0,0.0,-1.7246,0.0,-1.7206,-1.7394,-1.7662,-1.7916,-1.8651,-1.9399,-1.9943,-2.0307,-2.0712,-2.1341,-2.1435,-2.1943,-2.3402,-2.3616,-2.3616,-2.3616,-2.334,-2.3145,-2.3145,-2.2926,-2.2813,-2.284,-2.314,-2.3447,-2.375,-2.4022,-2.4209,-2.4209,-2.4452,-2.4746,-2.5115,-2.5371,-2.5665,-2.5998,-2.6253,-2.6386,-2.64,-2.6694,-2.6987,-2.7322,-2.7575,-2.7911,-2.8179,-2.8179,-2.8179,-2.8179,-2.8179,-2.8179,-2.8259,-2.8818,-2.9249,-2.9765,0.0,0.0,0.0,-1.4513,-1.5193,-1.583,-1.6042,-1.6693,-1.7189,-1.7191,-1.7625,-1.7912,-1.787,-1.7875,-1.7595,-1.6901,-1.689,-1.6756,-1.6254,-1.6482,-1.6598,-1.6549,-1.6537,-1.6537,-1.6537,-1.7119,-1.7423,-1.7423,-1.8067,-1.841,-1.841,-1.873,-1.889,-1.8903,-1.9267,-1.9401,-1.9428,-1.992,-2.0117,-2.0144,-2.0535,-2.0953,-2.1328,-2.1328,-2.1475,-2.1643,-2.1643,-2.1309,-2.0708,-1.9736,-1.9241,-1.896,0.0,0.0,0.0,0.0,0.0,0.0,0.0,0.0,0.0,0.0,0.0,0.0,-1.7259,-1.7394,-1.7595,-1.7662,-1.8009,-1.8449,-1.9036,-1.9196,-1.9503,-2.033,-2.0464,-2.0922,-2.2164,-2.2338,-2.2338,-2.2338,-2.2285,-2.2245,-2.2245,-2.2191,-2.2258,-2.2485,-2.302,-2.3319,-2.3372,-2.3915,-2.4209,-2.4209,-2.4452,-2.4746,-2.5115,-2.5371,-2.5665,-2.5998,-2.6253,-2.6386,-2.64,-2.6694,-2.6987,-2.7322,-2.7575,-2.7911,-2.8179,-2.8179,-2.8179,-2.8179,-2.8179,-2.8179,-2.8259,-2.8818,-2.9045,-2.93,0.0,0.0,0.0,-1.5252,-1.5975,-1.6581,-1.6872,-1.7588,-1.8113,-1.8113,-1.8674,-1.9149,-1.925,-1.9242,-1.8915,-1.8124,-1.8051,-1.7727,-1.6939,-1.7035,-1.6972,-1.6718,-1.6706,-1.6778,-1.6946,-1.7365,-1.7685,-1.7839,-1.8414,-1.8704,-1.8718,-1.9011,-1.9145,-1.9158,-1.9334,-1.9481,-1.9629,-1.9893,-2.0187,-2.0481,-2.0775,-2.1194,-2.1582,-2.1582,-2.177,-2.1991,-2.1991,-2.1603,-2.1002,-2.0298,-1.9762,0.0,0.0,-1.8731,-1.8464,0.0,-1.8263,-1.8223,0.0,0.0,0.0,-1.8036,0.0,0.0,0.0,-1.7394,-1.7394,-1.7394,-1.7609,-1.7929,-1.8369,-1.8463,-1.8703,-1.9437,-1.9543,-1.981,-2.0575,-2.1176,-2.155,-2.155,-2.1716,-2.1796,-2.1796,-2.193,-2.2044,-2.2191,-2.2585,-2.2838,-2.2838,-2.3412,-2.3834,-2.3981,-2.4262,-2.4569,-2.485,-2.5291,-2.5585,-2.5745,-2.6172,-2.6386,-2.6386,-2.6547,-2.6854,-2.7309,-2.7415,-2.7777,-2.8179,-2.8179,-2.8179,-2.8179,-2.8179,-2.8179,-2.8259,-2.8818,-2.9001,-2.9125,-1.4772,0.0,0.0,-1.5982,-1.667,-1.7274,0.0,0.0,-1.8947,-1.9152,-1.9811,-2.0367,-2.0683,-2.0691,-2.0392,-1.9601,-1.9398,-1.8872,0.0,0.0,0.0,-1.6948,-1.6875,-1.7021,-1.7359,-1.7613,-1.7922,-1.8246,-1.875,-1.9011,-1.8983,-1.9252,-1.9401,-1.9401,-1.9455,-1.9615,-1.9813,-1.992,-2.0267,-2.0788,-2.1082,-2.1408,-2.1676,-2.1729,-2.193,-2.2151,-2.2084,-2.1724,-2.1229,-2.0882,-2.0284,-1.9642,-1.9575,-1.9172,0.0,0.0,0.0,0.0,0.0,0.0,0.0,0.0,0.0,-1.7769,0.0,0.0,0.0,-1.73,-1.7448,-1.7662,-1.7889,-1.7929,-1.8103,-1.8636,-1.873,-1.8836,-1.9187,-2.0013,-2.0641,-2.0762,-2.1074,-2.1248,-2.1248,-2.1555,-2.175,-2.1817,-2.2084,-2.2271,-2.2338,-2.2913,-2.3354,-2.3629,-2.3995,-2.4315,-2.4519,-2.5159,-2.5518,-2.5518,-2.6106,-2.6386,-2.6386,-2.6386,-2.6707,-2.7309,-2.7309,-2.7643,-2.8179,-2.8179,-2.8179,-2.8179,-2.8179,-2.8179,-2.8259,-2.8818,-2.9001,-2.9081,-1.5351,-1.5451,0.0,0.0,-1.7068,-1.7641,0.0,0.0,-1.9745,-2.07,-2.1221,-2.1691,-2.2175,-2.2147,-2.1827,-2.1196,0.0,0.0,-1.9044,0.0,0.0,0.0,0.0,0.0,-1.7902,-1.8152,-1.8471,-1.8806,-1.9176,-1.9348,-1.9348,-1.9388,-1.9401,-1.9401,-1.9639,-1.9773,-1.984,-2.0361,-2.0762,-2.1082,-2.1422,-2.1716,0.0,-2.2218,-2.2498,-2.276,-2.2458,-2.2164,-2.1804,0.0,-2.0828,-2.0512,0.0,-1.9907,-1.9599,-1.9374,0.0,0.0,0.0,0.0,0.0,0.0,-1.8437,0.0,0.0,0.0,-1.7836,-1.7582,0.0,-1.7622,-1.7622,0.0,0.0,-1.8035,-1.8089,-1.8223,-1.8544,-1.8704,-1.8985,-1.9535,-1.9856,-2.0,-2.0,-2.0539,-2.0967,-2.1189,-2.1515,-2.1796,-2.2017,-2.2626,-2.296,-2.3,-2.3768,-2.4222,-2.4249,-2.509,-2.5518,-2.5518,-2.6106,-2.6386,-2.6386,-2.6386,-2.6707,-2.7309,-2.7309,-2.7643,-2.8179,-2.8179,-2.8179,-2.8179,-2.8179,-2.8179,-2.8259,-2.8818,-2.9001,-2.9081,-1.5497,-1.562,0.0,0.0,-1.7008,-1.7491,0.0,0.0,-2.0758,-2.2035,-2.2526,-2.295,-2.3555,-2.3553,-2.3294,0.0,0.0,-2.1137,0.0,0.0,0.0,0.0,0.0,0.0,0.0,-1.9061,0.0,-1.9645,-1.9807,-1.9867,-1.9867,-1.9867,-1.9867,-1.988,-1.997,-2.0241,-2.0575,-2.0828,-2.1296,-2.1897,-2.2224,-2.2532,0.0,-2.2512,-2.2605,-2.2853,-2.2525,-2.2338,-2.2178,0.0,-2.1309,0.0,0.0,0.0,0.0,0.0,0.0,0.0,0.0,0.0,0.0,0.0,0.0,0.0,-1.8596,0.0,-1.8263,0.0,0.0,0.0,0.0,0.0,0.0,0.0,-1.7782,-1.7822,-1.797,-1.7996,-1.821,-1.8812,-1.9118,-1.9359,-1.9562,-1.9803,-2.007,-2.0334,-2.0628,-2.0989,-2.1456,-2.2064,-2.2546,-2.288,-2.3603,-2.4035,-2.4209,-2.4903,-2.5344,-2.5518,-2.5932,-2.6265,-2.6386,-2.6386,-2.6613,-2.7014,-2.7229,-2.7536,-2.7938,-2.8112,-2.8179,-2.8179,-2.8179,-2.8179,-2.8259,-2.8818,-2.9001,-2.9081,-1.5765,0.0,0.0,0.0,-1.7009,-1.7606,-1.8735,-2.0249,-2.1745,-2.3071,-2.3754,-2.438,-2.5074,-2.5256,-2.5101,0.0,-2.3837,-2.2809,0.0,0.0,-1.9579,0.0,0.0,0.0,0.0,0.0,0.0,-2.0197,-2.0197,-2.0197,-2.0197,-2.0197,-2.0197,-2.021,-2.037,-2.0762,-2.1243,-2.1403,-2.1937,-2.2652,-2.2899,-2.318,-2.3407,-2.2953,-2.2873,-2.3,-2.2739,-2.2531,-2.2392,-2.2178,-2.1764,0.0,-2.1349,0.0,0.0,0.0,0.0,0.0,-2.0224,0.0,0.0,0.0,0.0,0.0,0.0,0.0,0.0,0.0,0.0,0.0,0.0,0.0,0.0,0.0,0.0,-1.7608,-1.7608,-1.7608,-1.7769,-1.8183,-1.8504,-1.8798,-1.912,-1.916,-1.9252,-1.9533,-1.9826,-2.0184,-2.0722,-2.139,-2.201,-2.2519,-2.3201,-2.3736,-2.4075,-2.4663,-2.5144,-2.5518,-2.585,-2.6145,-2.6386,-2.6386,-2.6547,-2.6841,-2.7134,-2.7428,-2.7722,-2.8058,-2.8179,-2.8179,-2.8179,-2.8179,-2.8245,-2.8724,-2.8921,-2.9068,-1.6284,-1.6066,0.0,-1.661,-1.7195,-1.8231,-2.0125,-2.1395,-2.2561,-2.373,-2.4946,-2.6067,-2.6942,-2.7352,-2.7347,0.0,0.0,-2.466,-2.3117,0.0,-2.0561,0.0,0.0,-1.9349,0.0,0.0,0.0,0.0,-2.0197,-2.0197,-2.0197,-2.0197,-2.0197,-2.0224,-2.0797,-2.1256,-2.1609,-2.2138,-2.2705,-2.3265,-2.3278,-2.3487,-2.379,0.0,-2.3554,-2.3278,-2.3265,0.0,0.0,-2.2371,-2.2205,0.0,0.0,0.0,0.0,0.0,0.0,0.0,0.0,0.0,0.0,-2.0197,0.0,0.0,0.0,0.0,-1.8796,0.0,0.0,0.0,0.0,0.0,0.0,0.0,0.0,0.0,0.0,-1.7608,-1.7622,-1.7635,-1.7862,-1.8169,-1.849,-1.8517,-1.8637,-1.8903,-1.9225,-1.9562,-1.9826,-2.0668,-2.1283,-2.1622,-2.2465,-2.3215,-2.3817,-2.4356,-2.4906,-2.5518,-2.585,-2.6145,-2.6386,-2.6386,-2.6547,-2.6841,-2.7134,-2.7428,-2.7722,-2.8058,-2.8179,-2.8179,-2.8179,-2.8179,-2.8219,-2.8497,-2.8804,-2.9041,0.0,0.0,0.0,-1.7255,-1.7781,-1.8877,-2.0864,-2.2315,-2.3682,-2.5122,-2.6308,-2.7461,-2.8549,-2.8971,-2.9085,-2.8885,0.0,-2.6584,-2.5036,-2.3551,0.0,0.0,0.0,-2.1043,0.0,0.0,0.0,0.0,0.0,-2.0815,-2.0815,-2.0815,-2.0922,-2.1154,-2.1341,-2.181,-2.2479,-2.2846,-2.3439,-2.4199,-2.4623,-2.4836,-2.4836,0.0,-2.3581,-2.3292,-2.3292,-2.306,0.0,-2.2953,-2.2819,-2.2639,-2.2806,-2.2525,-2.2111,-2.2004,-2.1764,0.0,0.0,0.0,-2.1296,-2.0909,0.0,0.0,0.0,0.0,0.0,0.0,0.0,0.0,0.0,0.0,0.0,0.0,0.0,0.0,0.0,-1.7608,-1.7608,-1.7608,-1.7675,-1.7782,-1.7876,-1.7889,-1.8023,-1.8289,-1.8424,-1.8771,-1.9508,-2.016,-2.0842,-2.1569,-2.2439,-2.3188,-2.3803,-2.4155,-2.4649,-2.5237,-2.5518,-2.5812,-2.6145,-2.6306,-2.644,-2.656,-2.7095,-2.7362,-2.7496,-2.7978,-2.8179,-2.8205,-2.8419,-2.8444,-2.847,-2.8564,-2.8791,-2.9068,-1.7335,-1.7808,-1.8106,-1.7808,-1.852,-1.9719,-2.1549,-2.317,-2.4772,-2.64,-2.7789,-2.9058,-3.014,-3.0621,-3.0768,-3.0555,-2.9646,-2.8462,-2.688,-2.5531,0.0,-2.3358,-2.2924,0.0,0.0,0.0,0.0,0.0,0.0,-2.1269,-2.1269,-2.1162,-2.1269,-2.1582,-2.1689,-2.2238,-2.306,-2.346,-2.4088,-2.4836,0.0,-2.5518,0.0,0.0,-2.4048,-2.3732,0.0,-2.3287,-2.306,-2.3225,-2.3193,-2.3086,-2.3394,-2.322,-2.2873,-2.2766,-2.2605,-2.2418,-2.2205,-2.2138,0.0,-2.1537,-2.1269,0.0,-2.0597,0.0,0.0,0.0,0.0,0.0,0.0,0.0,0.0,0.0,0.0,0.0,0.0,-1.7608,-1.7608,-1.7608,-1.7608,-1.7608,-1.7608,-1.7608,-1.7662,-1.7836,-1.7942,-1.833,-1.9053,-1.9706,-2.0481,-2.1395,-2.2184,-2.2974,-2.3803,-2.3955,-2.4396,-2.5077,-2.5371,-2.5665,-2.6011,-2.6292,-2.6386,-2.6426,-2.7055,-2.7309,-2.7349,-2.7938,-2.8179,-2.8219,-2.8484,-2.8604,-2.8617,-2.8724,-2.8951,-2.9272,-1.769,-1.8608,-1.9148,-1.8352,-1.9369,-2.08,-2.2258,-2.4008,-2.5772,-2.7522,-2.9329,-3.0761,-3.1644,-3.226,-3.2393,-3.1831,-3.1183,-3.0159,-2.8622,-2.7457,0.0,0.0,-2.4621,-2.4066,-2.3692,0.0,0.0,0.0,0.0,-2.1582,-2.1582,-2.1256,-2.1269,-2.1622,-2.189,-2.2498,-2.3345,-2.3981,-2.4583,-2.5208,-2.5451,-2.5545,-2.5504,-2.5211,-2.4917,-2.4546,-2.3995,-2.3607,-2.3319,-2.3332,-2.3332,-2.3385,-2.3728,-2.3843,-2.3777,-2.3447,-2.3332,-2.3185,-2.2645,-2.2472,-2.2392,-2.2098,-2.1603,0.0,0.0,0.0,-2.0264,0.0,0.0,0.0,0.0,0.0,0.0,0.0,0.0,0.0,0.0,0.0,-1.7595,-1.7608,-1.7608,-1.7608,-1.7608,-1.7608,-1.7608,-1.7608,-1.7836,-1.8129,0.0,-1.9305,-2.0187,-2.1082,-2.1697,-2.2579,-2.379,-2.3817,-2.4258,-2.5064,-2.5358,-2.5651,-2.5984,-2.6279,-2.6373,-2.6426,-2.7055,-2.7309,-2.7349,-2.7938,-2.8192,-2.8232,-2.8511,-2.8644,-2.8711,-2.8921,-2.9245,-2.9526,-1.8841,-1.982,-2.0699,-2.0927,-2.1282,-2.2025,-2.3492,-2.5064,-2.6613,-2.8177,-2.9726,-3.1022,-3.1891,-3.2519,-3.2812,-3.2701,-3.1904,0.0,0.0,0.0,0.0,-2.746,-2.6401,-2.5551,-2.5033,-2.4066,0.0,-2.2786,0.0,0.0,-2.1582,-2.1256,-2.139,-2.1917,-2.1984,-2.2605,-2.3701,-2.4275,-2.5117,-2.6052,-2.6132,-2.6039,-2.585,0.0,-2.5224,-2.489,-2.4302,-2.3901,-2.3688,-2.3901,-2.3981,-2.4022,-2.4279,-2.4262,-2.4075,-2.3995,-2.3821,-2.3621,-2.346,-2.326,-2.2985,-2.2746,-2.2352,-2.2031,0.0,0.0,0.0,0.0,0.0,0.0,0.0,0.0,0.0,0.0,0.0,0.0,0.0,0.0,0.0,-1.7609,-1.7608,-1.7608,-1.7608,-1.7608,-1.7608,-1.7608,-1.7662,-1.7929,-1.8464,-1.9147,-1.9973,-2.1069,-2.1884,-2.2779,-2.379,-2.3981,-2.4315,-2.4719,-2.505,-2.5344,-2.5638,-2.5971,-2.6225,-2.6426,-2.7055,-2.7309,-2.7349,-2.7938,-2.8326,-2.8524,-2.8775,-2.9148,-2.9566,-2.9419,-2.9419,-2.9526,-1.9663,-2.0663,-2.1804,-2.2779,-2.3166,-2.3661,-2.4623,-2.6132,-2.7737,-2.9179,-3.0648,-3.1845,-3.2412,-3.3013,-3.332,-3.3187,-3.2599,0.0,-3.1631,0.0,0.0,-2.9169,-2.811,-2.7148,-2.6293,-2.5302,0.0,-2.3295,0.0,-2.1836,-2.1582,-2.1256,-2.1416,-2.1991,-2.1991,-2.2679,-2.3857,-2.4663,-2.5478,-2.6252,-2.6333,-2.6293,0.0,-2.5678,-2.5411,-2.5197,-2.4596,-2.4209,-2.3981,-2.4155,-2.4209,-2.4249,-2.4506,-2.4492,-2.4359,-2.4359,-2.4275,-2.4115,-2.3995,-2.3834,-2.3607,-2.318,-2.2832,-2.2539,-2.2245,-2.189,-2.1582,0.0,-2.098,-2.0357,0.0,0.0,0.0,0.0,0.0,0.0,0.0,0.0,0.0,0.0,-1.7862,-1.7756,-1.7756,-1.7662,-1.7608,-1.7608,-1.7608,-1.7849,0.0,-1.908,-1.9936,-2.1069,-2.1964,-2.2859,-2.3803,-2.4062,-2.4342,-2.4599,-2.4943,-2.5237,-2.5518,-2.5864,-2.6225,-2.66,-2.7108,-2.7376,-2.7495,-2.7991,-2.8366,-2.8644,-2.9072,-2.9513,-2.9887,-2.9593,-2.9486,-2.9499,-2.0553,-2.1502,-2.2726,-2.4182,-2.4983,-2.5558,-2.5972,-2.7295,-2.8821,-3.0279,-3.1671,-3.2648,-3.2942,-3.3467,-3.3708,-3.344,-3.3146,-3.2915,-3.2661,-3.177,-3.1062,-3.06,-2.9646,-2.8604,-2.7443,-2.6519,0.0,0.0,0.0,-2.2124,-2.1582,-2.1256,-2.1416,-2.1991,-2.1991,-2.2706,-2.3937,-2.4997,-2.5651,-2.6024,-2.6279,-2.6373,-2.6279,-2.5718,-2.5491,-2.5384,-2.4799,-2.4439,-2.4262,-2.4262,-2.4262,-2.4302,-2.4519,-2.4599,-2.4599,-2.4599,-2.4599,-2.4546,-2.4329,-2.4235,-2.4075,-2.3532,-2.318,-2.2893,-2.2592,-2.2084,-2.1689,-2.1649,-2.1181,-2.0641,0.0,0.0,0.0,0.0,0.0,0.0,0.0,0.0,0.0,0.0,0.0,0.0,-1.8076,-1.7782,-1.7608,-1.7608,-1.7608,-1.7849,0.0,0.0,-1.9936,-2.1069,-2.1991,-2.2899,-2.3803,-2.4102,-2.4382,-2.4599,-2.4903,-2.5197,-2.5518,-2.5824,-2.6239,-2.6841,-2.7134,-2.7428,-2.7722,-2.8058,-2.8393,-2.8724,-2.9272,-2.9659,-2.9887,-2.9593,-2.9486,-2.9486,-2.261,-2.3345,-2.4195,-2.5476,-2.6533,-2.7589,-2.8631,-2.8845,-2.9325,-3.0555,-3.157,-3.2291,-3.2634,-3.3146,-3.3467,-3.3414,-3.3146,0.0,0.0,0.0,0.0,-3.1497,-3.0368,-2.9205,-2.8058,-2.6921,-2.5516,0.0,-2.2859,-2.2124,-2.1582,-2.1256,-2.1416,-2.1991,-2.1991,-2.2779,-2.4168,-2.4863,0.0,-2.6024,-2.6279,-2.6279,-2.6038,-2.5651,-2.5371,-2.5117,-2.4719,-2.4572,-2.4519,-2.4519,-2.4519,-2.4532,-2.4586,-2.4599,-2.4599,-2.4599,-2.4599,-2.4586,-2.4532,-2.4382,-2.4182,-2.4075,-2.3647,-2.3198,-2.3145,-2.2665,-2.2205,-2.1997,-2.1443,-2.0949,-2.0655,0.0,0.0,0.0,0.0,0.0,0.0,0.0,0.0,0.0,0.0,-1.841,0.0,-1.7903,-1.7608,-1.7608,-1.7608,-1.7849,0.0,0.0,-1.9936,0.0,-2.2205,-2.3134,0.0,0.0,-2.4546,-2.4599,-2.4653,-2.4959,-2.5518,-2.5571,-2.6039,-2.6841,-2.7134,-2.7428,-2.7722,-2.8058,-2.8513,-2.8948,-2.9352,-2.9659,-2.9887,-2.9593,-2.9486,-2.9486,-2.4088,-2.4716,-2.5569,-2.6894,-2.7816,-2.8845,-3.0181,-3.0528,-3.0835,-3.1396,-3.2104,-3.2612,-3.2808,-3.316,-3.3414,-3.3414,-3.328,-3.32,-3.32,-3.2666,-3.2211,-3.1904,-3.1062,0.0,-2.8644,-2.7455,-2.5985,-2.4222,-2.3166,-2.2305,-2.1614,-2.1435,-2.1609,-2.2004,-2.2472,-2.3166,0.0,0.0,0.0,-2.5758,-2.6213,-2.6306,-2.6185,-2.5852,-2.569,-2.5516,-2.5024,-2.4863,-2.4836,-2.4653,-2.4599,-2.4599,-2.4599,-2.4599,-2.4599,-2.4599,-2.4599,-2.4599,-2.4599,-2.4492,-2.4359,-2.4235,-2.3875,-2.3514,-2.3332,-2.2825,-2.2345,-2.2231,-2.175,-2.1234,-2.0793,-2.0428,0.0,0.0,0.0,0.0,0.0,0.0,0.0,0.0,0.0,0.0,0.0,0.0,-1.7983,-1.7809,-1.7822,-1.8023,0.0,0.0,-1.9746,0.0,0.0,0.0,-2.3803,0.0,-2.4863,-2.4863,-2.4986,-2.5317,-2.5745,-2.5745,-2.6226,-2.7054,-2.7242,-2.7563,-2.7991,-2.8299,-2.8644,-2.9028,-2.9366,-2.9659,-2.9887,-2.9593,-2.9486,-2.9486,-2.5504,-2.6105,-2.6907,-2.8312,-2.9018,-2.9842,-3.1289,-3.1957,-3.2265,-3.2211,-3.2652,-3.2973,-3.2973,-3.324,-3.3414,-3.3414,-3.3414,-3.3414,-3.3414,-3.3146,-3.2746,-3.2225,-3.157,-3.0522,-2.9121,-2.7963,-2.6466,0.0,-2.3581,-2.2599,-2.1676,-2.1676,-2.1836,-2.2111,0.0,0.0,0.0,0.0,-2.5277,-2.5651,-2.6172,-2.6426,-2.644,-2.6131,-2.5998,-2.5931,-2.5396,-2.517,-2.513,-2.4866,-2.4746,-2.4706,-2.4773,-2.4746,-2.4693,-2.4693,-2.4653,-2.4599,-2.4599,-2.4599,-2.4546,-2.4356,-2.4075,-2.3781,-2.3487,-2.2972,-2.2545,-2.2445,-2.1951,-2.1448,-2.098,-2.0615,0.0,0.0,0.0,0.0,0.0,0.0,0.0,0.0,0.0,0.0,-1.9025,-1.8811,-1.8557,-1.8223,-1.8143,-1.8249,-1.8571,0.0,0.0,0.0,0.0,-2.2859,-2.3803,0.0,-2.5117,-2.517,-2.5411,-2.5665,-2.5998,-2.5998,-2.6479,-2.7309,-2.7309,-2.7643,-2.8205,-2.8446,-2.8724,-2.9015,-2.9299,-2.9606,-2.9887,-2.9659,-2.9579,-2.9579,-2.7281,-2.775,-2.8366,-2.9539,-3.0234,-3.1036,-3.2286,-3.2741,-3.2848,-3.2581,-3.2835,-3.2973,-3.2973,-3.324,-3.3414,-3.3414,-3.3414,-3.3414,-3.3414,-3.3146,-3.2888,-3.2567,-3.1677,-3.0662,-2.9472,-2.827,-2.6667,0.0,-2.3995,-2.3121,0.0,-2.1951,-2.2098,0.0,0.0,0.0,0.0,-2.474,-2.5449,-2.5984,-2.6266,-2.6547,-2.672,-2.6198,-2.5998,-2.5957,-2.5585,-2.5478,-2.5464,-2.5438,-2.5251,-2.5077,-2.5344,-2.5251,-2.5037,-2.5037,-2.485,-2.4599,-2.4599,-2.4599,-2.4586,-2.4572,-2.4382,-2.4088,-2.383,-2.3474,-2.3052,-2.2491,-2.1951,-2.1569,-2.1547,-2.1229,-2.0949,0.0,0.0,0.0,0.0,0.0,0.0,0.0,0.0,0.0,0.0,-1.9334,-1.9187,-1.8836,-1.8597,-1.8571,0.0,0.0,0.0,-2.0712,-2.1817,-2.2859,-2.3803,-2.4673,-2.5211,-2.5478,-2.5504,-2.5665,-2.5998,-2.5998,-2.6479,-2.7309,-2.7309,-2.7643,-2.8192,-2.8219,-2.8524,-2.9001,-2.9028,-2.9375,-2.9913,-2.9887,-2.9873,-2.9873,-2.8858,-2.9272,-2.9838,-3.0795,-3.1303,-3.1851,-3.2728,-3.3053,-3.32,-3.308,-3.316,-3.324,-3.324,-3.3347,-3.3414,-3.3414,-3.3414,-3.3414,-3.3414,-3.3307,-3.3106,-3.2875,-3.2131,-3.1289,-3.0287,-2.8938,-2.7495,0.0,0.0,0.0,0.0,0.0,0.0,0.0,0.0,-2.4022,-2.4342,-2.5237,-2.5877,-2.6239,-2.6533,-2.672,-2.6774,-2.6373,-2.6252,-2.6212,-2.5917,-2.5824,-2.5824,-2.5824,-2.5585,-2.5358,-2.5478,-2.5317,-2.5115,-2.5115,-2.4863,-2.4599,-2.4599,-2.4599,-2.4599,-2.4599,-2.4386,-2.4128,-2.387,-2.3541,-2.3207,-2.2779,-2.2352,-2.2017,-2.1877,-2.1609,-2.1368,-2.1248,0.0,0.0,0.0,0.0,0.0,0.0,0.0,0.0,0.0,-1.9401,-1.9348,-1.9199,-1.8918,0.0,0.0,0.0,0.0,-2.0909,0.0,-2.2939,-2.4022,-2.4903,-2.5491,-2.5785,-2.5959,-2.6186,-2.648,-2.648,-2.6854,-2.7535,-2.775,-2.7965,-2.8179,-2.8179,-2.854,-2.9001,-2.9001,-2.9348,-2.9913,-2.9913,-2.9913,-2.9913,-3.0287,-3.0675,-3.1136,-3.1858,-3.2171,-3.2532,-3.3026,-3.328,-3.3414,-3.3414,-3.3494,-3.3507,-3.3427,-3.3414,-3.3414,-3.3414,-3.3414,-3.3414,-3.3414,-3.3414,-3.328,-3.2986,-3.2412,0.0,-3.0942,-2.9566,-2.8283,-2.704,-2.5746,0.0,0.0,0.0,0.0,0.0,-2.4195,-2.4623,-2.4906,-2.5745,-2.6346,-2.6653,-2.6774,-2.6867,-2.6907,-2.6533,-2.6386,-2.636,-2.6198,-2.6118,-2.6118,-2.6118,-2.5945,-2.5772,-2.5772,-2.5571,-2.5382,-2.5382,-2.5064,-2.477,-2.477,-2.4666,-2.4599,-2.4599,-2.4439,-2.4249,-2.3968,-2.3728,-2.3474,-2.3086,-2.2686,-2.2352,-2.2151,-2.1917,-2.1689,-2.1596,0.0,0.0,0.0,0.0,0.0,0.0,-1.98,-1.9495,-1.9401,-1.9401,-1.9401,-1.9401,0.0,0.0,0.0,0.0,0.0,0.0,0.0,0.0,-2.4195,-2.5077,-2.5705,-2.6131,-2.6373,-2.6627,-2.6827,-2.696,-2.7308,-2.7709,-2.8058,-2.8179,-2.8179,-2.8179,-2.854,-2.9001,-2.9001,-2.9348,-2.9913,-2.9913,-2.9913,-2.9913,-3.1583,-3.1877,-3.2171,-3.2527,-3.2822,-3.3066,-3.336,-3.3414,-3.3414,-3.3414,-3.3681,-3.3761,-3.344,-3.3414,-3.3414,-3.3414,-3.3414,-3.3414,-3.3414,-3.3414,-3.328,0.0,0.0,-3.1824,-3.1236,-3.0074,-2.8885,-2.7682,0.0,0.0,-2.5101,0.0,-2.4426,-2.4222,-2.481,-2.5237,-2.5545,-2.6132,-2.672,-2.7269,-2.6934,-2.7001,-2.7242,-2.6613,-2.6386,-2.6386,-2.6386,-2.6386,-2.6386,-2.6386,-2.6386,-2.6373,-2.6373,-2.6225,-2.5984,-2.5984,-2.5569,-2.5077,-2.5077,-2.4863,-2.4599,-2.4599,-2.4599,-2.4519,-2.4262,-2.4195,-2.4022,-2.3412,-2.2812,-2.2385,-2.2418,-2.2178,-2.1917,-2.1636,0.0,0.0,0.0,0.0,0.0,0.0,-1.9973,-1.9679,-1.9428,-1.9401,-1.9401,-1.9401,0.0,0.0,0.0,0.0,0.0,-2.1082,-2.1964,0.0,-2.4195,-2.5077,-2.5798,-2.6386,-2.668,-2.6814,-2.68,-2.7428,-2.7696,-2.7709,-2.8058,-2.8179,-2.8179,-2.8179,-2.854,-2.9001,-2.9001,-2.9348,-2.9913,-2.9913,-2.9913,-2.9913,-3.2465,-3.2639,-3.2786,-3.308,-3.3213,-3.3307,-3.34,-3.3414,-3.3414,-3.3414,-3.3694,-3.3841,-3.3748,-3.3908,-3.3948,0.0,-3.3734,-3.3641,0.0,-3.3414,-3.3374,-3.328,-3.2906,-3.2425,-3.1837,-3.1062,-3.01,-2.8911,0.0,0.0,0.0,-2.5785,-2.5678,-2.5462,-2.6012,-2.6319,-2.644,-2.7028,-2.7388,-2.7549,-2.7455,-2.7482,-2.7495,-2.6907,-2.668,-2.6653,-2.6466,-2.6386,-2.6386,-2.6386,-2.6386,-2.6386,-2.6386,-2.6225,-2.5998,-2.5998,-2.5717,-2.5371,-2.5371,-2.5157,-2.4943,-2.4943,-2.4783,-2.4519,-2.4262,-2.4048,-2.3861,-2.3661,-2.3313,-2.2998,-2.2998,-2.2619,-2.2178,-2.193,-2.1716,0.0,0.0,0.0,0.0,0.0,-2.0281,-2.0024,-1.993,-1.996,0.0,0.0,0.0,0.0,0.0,0.0,0.0,0.0,-2.2766,0.0,-2.4796,-2.5678,-2.6306,-2.6694,-2.6987,-2.7228,-2.7428,-2.7857,-2.8045,-2.8045,-2.8138,-2.8179,-2.8179,-2.8179,-2.854,-2.9001,-2.9001,-2.9348,-2.9913,-2.9913,-2.9913,-2.9913,-3.3066,-3.3146,-3.32,-3.3374,-3.3414,-3.3414,-3.3414,-3.3414,-3.3454,-3.3574,-3.3855,-3.4095,-3.4202,-3.4469,0.0,-3.4082,-3.3948,-3.3801,-3.3601,-3.348,-3.3414,-3.3414,-3.3133,-3.2812,-3.2438,-3.1744,0.0,-2.998,-2.8901,-2.7724,-2.6493,-2.6747,-2.6667,-2.6306,-2.6774,-2.7054,-2.7175,-2.7535,-2.7762,-2.7898,-2.7749,-2.7696,-2.7642,-2.7175,-2.6921,-2.68,-2.6613,-2.648,-2.6386,-2.6386,-2.6466,-2.6533,-2.6426,-2.6333,-2.6305,-2.6185,-2.5944,-2.5678,-2.5678,-2.5464,-2.5237,-2.5237,-2.5104,-2.4853,-2.4596,-2.4302,-2.4062,-2.3955,-2.3701,-2.3487,-2.3487,-2.3086,-2.2632,-2.2218,-2.1943,-2.1609,-2.1162,0.0,0.0,0.0,0.0,0.0,0.0,-2.0264,-2.029,0.0,0.0,0.0,0.0,0.0,-2.1657,-2.2458,-2.3434,-2.4446,-2.5436,-2.6066,-2.6587,-2.6987,-2.7295,-2.7575,-2.7869,-2.8098,-2.8179,-2.8179,-2.8179,-2.8179,-2.8179,-2.8179,-2.854,-2.9001,-2.9001,-2.9348,-2.9913,-2.9913,-2.9913,-2.9913,-3.3414,-3.3414,-3.3414,-3.3414,-3.3414,-3.3414,-3.3414,-3.3427,-3.3547,-3.3841,-3.4162,-3.4456,-3.4788,-3.5017,-3.4977,-3.4429,0.0,0.0,-3.3881,-3.3587,-3.3414,-3.3414,-3.3146,-3.3,-3.2973,-3.2206,-3.1457,-3.0768,-2.9379,-2.8243,-2.7443,-2.7642,-2.7468,-2.6961,-2.7215,-2.7523,-2.7722,-2.7722,-2.7896,-2.8165,-2.7843,-2.7722,-2.7696,-2.7443,-2.7121,-2.684,-2.6854,-2.668,-2.6453,-2.6453,-2.6627,-2.68,-2.6533,-2.664,-2.6787,-2.648,-2.6238,-2.6024,-2.6024,-2.5772,-2.5545,-2.5545,-2.5531,-2.5438,-2.517,-2.489,-2.4572,-2.4329,-2.4035,-2.3857,-2.3843,-2.3541,-2.3092,-2.2512,-2.2178,-2.1777,-2.1189,0.0,0.0,0.0,0.0,0.0,-2.0793,-2.0521,-2.0544,0.0,0.0,0.0,0.0,0.0,-2.2278,-2.3319,-2.3995,-2.4863,-2.6011,-2.6359,-2.676,-2.7376,-2.7602,-2.7924,-2.8179,-2.8179,-2.8179,-2.8179,-2.8179,-2.8179,-2.8179,-2.8179,-2.8526,-2.8961,-2.8988,-2.9348,-2.9887,-2.9913,-2.9913,-2.9913,-3.3414,-3.3414,-3.3414,-3.3414,-3.3414,-3.3414,-3.3414,-3.3614,-3.3801,-3.3881,-3.4336,-3.4683,-3.4698,-3.5017,-3.5137,-3.5004,-3.4509,-3.4122,-3.3895,-3.3587,-3.3414,-3.3414,-3.3347,-3.32,-3.2986,-3.2607,-3.1764,-3.0507,-2.9887,-2.9272,-2.8575,-2.847,-2.831,-2.8177,-2.8045,-2.8018,-2.8085,-2.8085,-2.8125,-2.8179,-2.8112,-2.8085,-2.8045,-2.775,-2.7549,-2.7455,-2.7241,-2.7162,-2.7095,-2.7095,-2.7148,-2.7188,-2.7122,-2.7148,-2.7054,-2.6547,-2.6346,-2.6332,-2.6332,-2.6118,-2.5891,-2.5891,-2.5678,-2.5491,-2.5424,-2.5358,-2.5224,-2.493,-2.4636,-2.4369,-2.4142,-2.3674,-2.3092,-2.2512,-2.2178,-2.1777,-2.1189,-2.1109,0.0,0.0,-2.1381,-2.1462,-2.1657,-2.1617,-2.163,0.0,0.0,-2.2271,-2.2666,-2.3281,-2.3701,-2.3995,-2.5034,-2.5824,-2.6279,-2.7014,-2.7575,-2.7978,-2.8045,-2.8112,-2.8179,-2.8179,-2.8179,-2.8179,-2.8179,-2.8179,-2.8179,-2.8179,-2.8406,-2.8738,-2.8908,-2.9215,-2.9619,-2.9833,-2.9913,-2.9913,-3.3414,-3.3534,-3.3587,-3.344,-3.3534,-3.3574,-3.3427,-3.3681,-3.3935,-3.4068,-3.4482,-3.4817,-3.4937,-3.5097,-3.5191,-3.5191,-3.4776,-3.4402,-3.4108,-3.3801,-3.3561,-3.3414,-3.3414,-3.3334,-3.3187,-3.2808,-3.2005,-3.0755,-3.0327,-2.9887,-2.9388,-2.9138,-2.8858,-2.8604,-2.843,-2.8312,-2.8179,-2.8179,-2.8179,-2.8179,-2.8179,-2.8179,-2.8165,-2.8005,-2.7816,-2.7682,-2.7522,-2.7416,-2.7309,-2.7309,-2.7389,-2.7483,-2.7349,-2.7403,-2.7375,-2.6921,-2.6694,-2.656,-2.6426,-2.6279,-2.6198,-2.6198,-2.6039,-2.5879,-2.5745,-2.5718,-2.5638,-2.5331,-2.505,-2.4796,-2.4636,-2.4022,-2.3327,-2.2726,-2.2258,-2.1777,-2.1189,-2.1229,-2.1448,-2.1743,-2.1903,-2.2124,-2.2552,-2.2472,-2.2532,-2.2813,-2.2819,0.0,-2.3647,-2.4396,-2.4796,-2.4796,-2.5717,-2.6426,-2.6987,-2.7643,-2.8031,-2.8179,-2.8179,-2.8179,-2.8179,-2.8179,-2.8179,-2.8179,-2.8179,-2.8179,-2.8179,-2.8179,-2.8446,-2.8818,-2.8935,-2.9255,-2.97,-2.986,-2.9913,-2.9913,-3.348,-3.3734,-3.3868,-3.3601,-3.3774,-3.3855,-3.3587,-3.3814,-3.4108,-3.4349,-3.4643,-3.4976,-3.5177,-3.5191,-3.5191,-3.5191,-3.4977,-3.4683,-3.4336,-3.4055,-3.3748,-3.3427,-3.3414,-3.3414,-3.3414,-3.2888,-3.2179,-3.1289,-3.0715,-3.0274,-2.998,-2.9633,-2.9219,-2.8738,-2.8698,-2.8524,-2.8326,-2.8326,-2.8326,-2.8326,-2.8326,-2.8326,-2.8326,-2.8326,-2.8123,-2.7896,-2.7896,-2.7749,-2.7576,-2.7576,-2.7696,-2.7856,-2.7615,-2.7669,-2.7776,-2.7523,-2.7188,-2.6881,-2.6547,-2.6426,-2.6386,-2.6386,-2.6386,-2.6319,-2.6118,-2.6065,-2.5971,-2.5638,-2.5384,-2.5222,-2.5128,-2.4432,-2.3669,-2.3067,-2.2439,-2.1804,-2.1309,0.0,-2.177,-2.2117,-2.2418,-2.2846,-2.3372,-2.326,-2.3375,-2.3861,-2.3714,-2.3879,-2.4626,-2.5304,-2.5665,-2.5705,-2.6279,-2.6974,-2.7762,-2.8058,-2.8179,-2.8179,-2.8179,-2.8179,-2.8179,-2.8179,-2.8179,-2.8179,-2.8179,-2.8179,-2.8179,-2.8179,-2.847,-2.8935,-2.8975,-2.9322,-2.986,-2.99,-2.9913,-2.9927,-3.3814,-3.4055,-3.4242,-3.4189,-3.4215,-3.4242,-3.4189,-3.4429,-3.4695,-3.4748,-3.495,-3.5151,-3.5191,-3.5191,-3.5191,-3.5191,-3.5151,-3.4897,-3.4362,-3.4055,-3.3748,-3.3427,-3.3414,-3.3414,-3.3414,-3.2888,-3.2286,-3.1597,-3.1009,-3.0627,-3.0319,-2.9784,-2.9432,-2.9339,-2.9041,-2.8908,-2.8898,-2.8898,-2.8898,-2.8898,-2.8898,-2.8898,-2.8898,-2.8898,-2.8828,-2.8788,-2.8788,-2.8761,-2.8721,-2.8721,-2.8748,-2.8775,-2.8735,-2.8631,-2.8404,-2.8138,-2.7844,-2.7442,-2.6907,-2.6573,-2.6386,-2.6386,-2.6386,-2.6373,-2.6333,-2.6319,-2.6239,-2.5984,-2.5891,-2.5703,-2.5208,-2.4556,-2.3941,-2.3354,-2.2539,-2.1984,-2.1857,0.0,-2.2158,-2.2693,-2.3255,-2.3688,-2.4035,-2.4249,-2.4359,-2.4452,-2.469,-2.4863,-2.4997,-2.5798,-2.636,-2.6573,-2.7188,-2.7682,-2.8112,-2.8165,-2.8179,-2.8179,-2.8179,-2.8179,-2.8179,-2.8179,-2.8179,-2.8179,-2.8179,-2.8179,-2.8179,-2.8179,-2.8393,-2.8698,-2.8895,-2.9245,-2.9579,-2.982,-2.9913,-2.9953,-3.3881,-3.4255,-3.4509,-3.4349,-3.4456,-3.4509,-3.4349,-3.4576,-3.4815,-3.4815,-3.5017,-3.5191,-3.5191,-3.5191,-3.5191,-3.5191,-3.5191,-3.5017,-3.4589,-3.4282,-3.3908,-3.3427,-3.3414,-3.3334,-3.3187,-3.2808,-3.238,-3.1904,-3.1316,-3.0875,-3.0627,-3.0199,-2.9838,-2.9472,-2.9339,-2.9192,-2.9001,-2.9001,-2.9001,-2.9001,-2.9001,-2.9001,-2.9001,-2.9001,-2.9001,-2.9001,-2.9001,-2.9001,-2.9001,-2.9001,-2.9001,-2.9001,-2.9001,-2.8908,-2.8778,-2.8484,-2.7949,-2.7402,-2.7134,-2.6841,-2.6667,-2.6814,-2.6747,-2.6667,-2.6827,-2.6854,-2.6814,-2.648,-2.6346,-2.6051,-2.5424,-2.4836,-2.4249,-2.3661,-2.2939,0.0,-2.2492,-2.2492,-2.2773,-2.35,-2.3968,-2.4409,-2.4863,-2.5024,-2.5066,-2.5066,-2.5384,-2.5663,-2.5772,-2.6466,-2.7108,-2.7563,-2.7963,-2.8323,-2.8617,-2.8631,-2.8631,-2.8631,-2.8631,-2.8631,-2.8631,-2.8631,-2.8537,-2.8433,-2.8433,-2.8433,-2.8433,-2.8433,-2.8671,-2.9098,-2.9232,-2.9459,-2.9726,-2.986,-3.002,-3.0181,-3.3988,-3.4456,-3.479,-3.4563,-3.471,-3.479,-3.4563,-3.4723,-3.487,-3.487,-3.5057,-3.5191,-3.5191,-3.5191,-3.5191,-3.5191,-3.5191,-3.507,-3.4829,-3.4482,-3.4082,-3.3547,-3.3454,-3.3307,-3.308,-3.2848,-3.2554,-3.2211,-3.1623,-3.1183,-3.0889,-3.0595,-3.0266,-2.978,-2.9757,-2.9566,-2.9339,-2.9228,-2.9202,-2.9202,-2.9202,-2.9202,-2.9202,-2.9202,-2.9202,-2.9202,-2.9202,-2.9202,-2.9202,-2.9202,-2.9202,-2.9202,-2.9202,-2.9148,-2.9098,-2.8871,-2.823,-2.759,-2.7443,-2.7148,-2.6987,-2.7255,-2.7094,-2.6987,-2.7255,-2.7309,-2.7242,-2.6974,-2.6747,-2.6413,-2.5825,-2.5291,-2.4756,-2.4205,0.0,-2.3228,-2.3295,-2.3308,-2.3554,-2.4315,-2.4783,-2.5186,-2.5678,-2.5838,-2.5919,-2.5919,-2.6172,-2.6399,-2.6613,-2.7188,-2.7817,-2.8473,-2.8617,-2.8775,-2.8988,-2.9001,-2.9001,-2.9001,-2.9001,-2.9001,-2.9001,-2.9001,-2.8868,-2.8711,-2.8711,-2.8711,-2.8711,-2.8711,-2.9018,-2.9486,-2.9486,-2.9659,-2.9913,-2.9913,-3.006,-3.0319,-3.4282,-3.4763,-3.5151,-3.5137,-3.5151,-3.5151,-3.5137,-3.5151,-3.5164,-3.5164,-3.5177,-3.5191,-3.5191,-3.5191,-3.5191,-3.5191,-3.5191,-3.507,-3.4829,-3.4482,-3.4175,-3.3868,-3.3574,-3.34,-3.3374,-3.3093,-3.2848,-3.2567,-3.1979,-3.149,-3.1136,-3.0902,-3.0742,-3.0688,-3.0467,-3.0333,-3.0293,-2.9967,-2.9847,-2.9847,-2.9847,-2.9847,-2.9847,-2.9847,-2.9847,-2.9847,-2.9847,-2.9847,-2.9847,-2.9847,-2.9847,-2.9847,-2.9847,-2.9673,-2.9446,-2.9419,-2.8991,-2.839,-2.7816,-2.7455,-2.7282,-2.7309,-2.7296,-2.7282,-2.7309,-2.7309,-2.7296,-2.7282,-2.7255,-2.7068,-2.6426,-2.6105,-2.5703,-2.5115,0.0,0.0,-2.4426,-2.4466,-2.4599,-2.497,-2.5758,-2.6279,-2.6319,-2.6854,-2.7175,-2.7175,-2.7202,-2.7215,-2.7242,-2.7804,-2.8526,-2.9396,-2.9138,-2.8975,-2.9001,-2.9001,-2.9001,-2.9001,-2.9001,-2.9001,-2.9001,-2.9001,-2.8988,-2.8961,-2.8961,-2.8961,-2.8961,-2.8961,-2.9192,-2.9486,-2.9486,-2.9659,-2.9913,-2.9913,-2.9927,-3.002,-3.4322,-3.479,-3.5191,-3.5191,-3.5191,-3.5191,-3.5191,-3.5191,-3.5191,-3.5191,-3.5191,-3.5191,-3.5191,-3.5191,-3.5191,-3.5191,-3.5191,-3.5151,-3.5044,-3.4763,-3.4295,-3.3614,-3.348,-3.3414,-3.3414,-3.3133,-3.2888,-3.2594,-3.2131,-3.169,-3.1223,-3.1116,-3.0969,-3.0795,-3.0675,-3.0621,-3.0608,-3.0314,-3.0194,-3.0194,-3.0194,-3.0194,-3.0207,-3.0394,-3.0354,-3.0194,-3.0194,-3.0074,-2.9913,-2.9913,-2.9913,-2.9953,-3.014,-3.0159,-3.0038,-2.9806,-2.9339,-2.8788,-2.8548,-2.8177,-2.7898,-2.8043,-2.8096,-2.815,-2.8323,-2.8364,-2.8257,-2.7924,-2.7857,-2.7617,-2.68,-2.656,-2.636,-2.5959,0.0,-2.5184,-2.5651,-2.5373,-2.5424,-2.6079,-2.6453,-2.6734,-2.6961,-2.7175,-2.7309,-2.7309,-2.7428,-2.7657,-2.7844,-2.8593,-2.9182,-2.9472,-2.9553,-2.9535,-2.9535,-2.9535,-2.9535,-2.9535,-2.9535,-2.9535,-2.9535,-2.9535,-2.9486,-2.9312,-2.9312,-2.9312,-2.9312,-2.9312,-2.9486,-2.9753,-2.9753,-2.982,-2.9913,-2.9913,-3.0034,-3.0247,-3.4322,-3.479,-3.5191,-3.5191,-3.5191,-3.5191,-3.5191,-3.5191,-3.5191,-3.5191,-3.5191,-3.5191,-3.5191,-3.5191,-3.5191,-3.5191,-3.5191,-3.5191,-3.5191,-3.4843,-3.4309,-3.3587,-3.3467,-3.3414,-3.3414,-3.3213,-3.2933,-3.2594,-3.2393,-3.1944,-3.137,-3.137,-3.1263,-3.1062,-3.0969,-3.0929,-3.0902,-3.0621,-3.0547,-3.0547,-3.0547,-3.0547,-3.056,-3.0715,-3.0675,-3.0547,-3.0547,-3.0368,-3.0194,-3.0194,-3.0194,-3.0221,-3.0434,-3.0547,-3.0421,-3.0034,-2.9633,-2.9228,-2.9041,-2.8804,-2.8634,-2.8711,-2.8751,-2.8748,-2.8948,-2.9001,-2.8881,-2.8511,-2.8473,-2.8217,-2.7509,-2.7388,-2.7255,-2.6867,-2.6466,-2.6306,-2.6653,-2.6319,-2.6293,-2.6894,-2.7041,-2.7175,-2.7375,-2.7617,-2.7724,-2.7724,-2.7963,-2.8243,-2.8593,-2.9195,-2.9526,-2.9619,-2.9806,-2.9913,-2.9913,-2.9913,-2.9913,-2.9913,-2.9913,-2.9913,-2.9913,-2.9913,-2.9806,-2.9619,-2.9619,-2.9619,-2.9619,-2.9619,-2.974,-2.9913,-2.9913,-2.9913,-2.9913,-2.9913,-3.0047,-3.0319,-3.4322,-3.479,-3.5191,-3.5191,-3.5191,-3.5191,-3.5191,-3.5191,-3.5191,-3.5191,-3.5191,-3.5191,-3.5191,-3.5191,-3.5191,-3.5191,-3.5191,-3.5191,-3.5191,-3.4643,-3.4189,-3.3895,-3.3587,-3.3414,-3.3414,-3.3414,-3.3133,-3.2594,-3.2594,-3.23,-3.1711,-3.1711,-3.1711,-3.1711,-3.1356,-3.1176,-3.1209,-3.0915,-3.0795,-3.0795,-3.0795,-3.0795,-3.0795,-3.0795,-3.0795,-3.0795,-3.0795,-3.0795,-3.0795,-3.0795,-3.0795,-3.0795,-3.0795,-3.0795,-3.0688,-3.01,-2.9927,-2.9793,-2.9161,-2.9272,-2.9419,-2.9068,-2.9001,-2.9001,-2.9001,-2.9001,-2.9001,-2.9001,-2.9001,-2.8908,-2.8671,-2.8604,-2.8417,-2.7802,-2.7709,-2.7602,-2.7362,-2.7322,-2.7322,-2.7322,-2.7535,-2.7709,-2.7709,-2.8257,-2.8604,-2.8604,-2.8828,-2.9135,-2.9472,-2.9486,-2.9619,-2.99,-2.9913,-2.9913,-2.9913,-2.9913,-2.9913,-2.9913,-2.9913,-2.9913,-2.9913,-2.9913,-2.9913,-2.9913,-2.9913,-2.9913,-2.9913,-2.9913,-2.9913,-2.9913,-2.9913,-2.9913,-2.9913,-2.9913,-2.9913,-3.0007,-3.4322,-3.479,-3.5191,-3.5191,-3.5191,-3.5191,-3.5191,-3.5191,-3.5191,-3.5191,-3.5191,-3.5191,-3.5191,-3.5191,-3.5191,-3.5191,-3.5191,-3.5191,-3.5191,-3.4843,-3.4496,-3.4202,-3.3694,-3.3414,-3.3414,-3.3414,-3.3133,-3.2594,-3.2594,-3.23,-3.1711,-3.1711,-3.1711,-3.1711,-3.1583,-3.153,-3.1517,-3.1223,-3.1089,-3.1089,-3.1089,-3.1089,-3.1116,-3.133,-3.1276,-3.1089,-3.1089,-3.0969,-3.0795,-3.0795,-3.0795,-3.0822,-3.1036,-3.1089,-3.1062,-3.0889,-3.0688,-3.0488,-3.0314,-3.0327,-3.0234,-2.9526,-2.9499,-2.9615,-2.9615,-2.9615,-2.9593,-2.9392,-2.9352,-2.9259,-2.8921,-2.8868,-2.8815,-2.8628,-2.847,-2.8377,-2.8497,-2.8337,-2.8283,-2.8484,-2.8548,-2.8601,-2.8601,-2.8761,-2.8868,-2.8868,-2.9179,-2.9392,-2.9486,-2.9673,-2.982,-2.9913,-2.9913,-2.9913,-2.9913,-2.9913,-2.9913,-2.9913,-2.9913,-2.9913,-2.9913,-2.9913,-2.9913,-2.9913,-2.9913,-2.9913,-2.9913,-2.9913,-2.9913,-2.9913,-2.9913,-2.9913,-2.9913,-2.9913,-2.9913,-3.0007,-3.4469,-3.487,-3.5191,-3.5191,-3.5191,-3.5231,-3.5351,-3.5364,-3.5404,-3.5525,-3.5538,-3.5498,-3.5378,-3.5364,-3.5324,-3.5204,-3.5191,-3.5191,-3.5191,-3.4923,-3.4735,-3.4509,-3.4028,-3.3654,-3.3414,-3.3414,-3.3187,-3.2768,-3.2648,-3.2353,-3.1837,-3.1764,-3.1711,-3.1711,-3.1711,-3.1711,-3.1711,-3.1476,-3.1396,-3.1396,-3.1396,-3.1396,-3.1423,-3.1597,-3.1557,-3.1396,-3.1396,-3.1289,-3.1142,-3.1142,-3.1142,-3.1169,-3.1343,-3.1396,-3.1383,-3.1263,-3.1102,-3.0942,-3.0822,-3.0795,-3.0662,-3.014,-3.0047,-3.0127,-3.0234,-3.0167,-3.0074,-3.002,-2.9993,-2.9913,-2.9619,-2.9566,-2.9486,-2.9259,-2.9072,-2.8978,-2.8988,-2.8841,-2.8801,-2.8975,-2.9001,-2.9001,-2.9001,-2.9108,-2.9215,-2.9335,-2.9553,-2.9659,-2.9659,-2.982,-2.9967,-3.0087,-3.0087,-3.0087,-3.0087,-3.0087,-3.0034,-2.9913,-2.9913,-2.9913,-2.9913,-2.9913,-2.9913,-2.9913,-2.9913,-2.9913,-2.9913,-2.9913,-2.9913,-2.9913,-2.9913,-2.9913,-2.9913,-2.9913,-2.9913,-3.0007,-3.4762,-3.5004,-3.5191,-3.5191,-3.5191,-3.5297,-3.5591,-3.5578,-3.5738,-3.6086,-3.6072,-3.5965,-3.5698,-3.5645,-3.5525,-3.5257,-3.5204,-3.5191,-3.5191,-3.495,-3.4842,-3.4815,-3.4509,-3.4082,-3.3507,-3.3467,-3.3293,-3.2973,-3.2741,-3.2447,-3.2091,-3.181,-3.1711,-3.1711,-3.1711,-3.1711,-3.1711,-3.1711,-3.1711,-3.1711,-3.1711,-3.1711,-3.1711,-3.1711,-3.1711,-3.1711,-3.1711,-3.1711,-3.1711,-3.1711,-3.1711,-3.1711,-3.1711,-3.1711,-3.1623,-3.1343,-3.1216,-3.1209,-3.0942,-3.0875,-3.0875,-3.0875,-3.0648,-3.0547,-3.0742,-3.0581,-3.052,-3.0742,-3.0795,-3.0715,-3.0493,-3.044,-3.0266,-2.9646,-2.9566,-2.9459,-2.9121,-2.9068,-2.9068,-2.9068,-2.9068,-2.9068,-2.9068,-2.9392,-2.9673,-2.994,-2.9953,-2.9953,-2.9953,-2.9953,-3.01,-3.044,-3.044,-3.044,-3.044,-3.044,-3.0234,-2.9913,-2.9913,-2.9913,-2.9913,-2.9913,-2.9913,-2.9913,-2.9913,-2.9913,-2.9913,-2.9913,-2.9913,-2.9913,-2.9913,-2.9913,-2.9913,-2.9913,-2.9913,-3.0007,-3.4802,-3.5004,-3.5191,-3.5191,-3.5191,-3.5297,-3.5591,-3.5578,-3.5738,-3.6086,-3.6072,-3.6046,-3.5979,-3.5765,-3.5605,-3.5538,-3.5324,-3.5191,-3.5191,-3.5137,-3.5004,-3.4829,-3.4748,-3.4496,-3.4135,-3.3895,-3.3521,-3.2973,-3.2741,-3.2447,-3.2091,-3.181,-3.1711,-3.1711,-3.1711,-3.1711,-3.1711,-3.1711,-3.1711,-3.1711,-3.1711,-3.1711,-3.1711,-3.1711,-3.1711,-3.1711,-3.1711,-3.1711,-3.1711,-3.1711,-3.1711,-3.1711,-3.1711,-3.1711,-3.1711,-3.1597,-3.157,-3.1557,-3.1503,-3.1476,-3.1476,-3.1476,-3.1249,-3.0996,-3.0822,-3.0742,-3.0715,-3.0782,-3.0795,-3.0768,-3.0715,-3.0702,-3.0581,-3.0279,-3.0212,-3.0105,-2.9766,-2.9682,-2.9682,-2.9682,-2.9682,-2.9682,-2.9682,-2.9993,-3.0239,-3.0306,-3.0306,-3.0306,-3.0306,-3.0306,-3.0394,-3.0688,-3.0702,-3.0702,-3.0702,-3.0702,-3.0434,-2.9913,-2.9913,-2.9913,-2.9913,-2.9913,-2.9913,-2.9913,-2.9913,-2.9913,-2.9913,-2.9913,-2.9913,-2.9913,-2.9913,-2.9913,-2.9913,-2.9913,-2.9913,-3.0007,-3.495,-3.5097,-3.5191,-3.5191,-3.5191,-3.5338,-3.5778,-3.5845,-3.5992,-3.6433,-3.6473,-3.6433,-3.6286,-3.6019,-3.5725,-3.5444,-3.5284,-3.5191,-3.5191,-3.5191,-3.5124,-3.4977,-3.4963,-3.483,-3.4536,-3.4389,-3.4015,-3.3414,-3.3022,-3.2728,-3.2519,-3.2273,-3.2059,-3.1877,-3.1877,-3.1797,-3.1711,-3.1711,-3.1711,-3.1711,-3.1711,-3.1711,-3.1711,-3.1711,-3.1711,-3.1711,-3.1711,-3.1711,-3.1711,-3.1711,-3.1711,-3.1711,-3.1711,-3.1711,-3.1711,-3.1711,-3.1711,-3.1711,-3.1711,-3.1711,-3.1711,-3.1711,-3.1557,-3.1396,-3.1249,-3.1102,-3.1036,-3.1183,-3.1209,-3.1169,-3.1022,-3.0996,-3.0902,-3.0608,-3.0614,-3.0461,-3.0167,-3.0127,-3.0074,-2.994,-2.9913,-2.9967,-3.0114,-3.0319,-3.0467,-3.06,-3.0614,-3.0614,-3.0614,-3.0614,-3.0702,-3.0996,-3.0996,-3.0996,-3.0996,-3.0996,-3.0782,-3.0327,-3.0194,-3.0047,-2.9913,-2.9913,-2.9913,-2.9913,-2.9913,-2.9913,-2.9913,-2.9913,-2.9913,-2.9913,-2.9913,-2.9913,-2.9913,-2.9913,-3.01,-3.0381,-3.5151,-3.5191,-3.5191,-3.5191,-3.5191,-3.5378,-3.5912,-3.5992,-3.6206,-3.6739,-3.6805,-3.6754,-3.654,-3.6206,-3.5778,-3.5244,-3.5191,-3.5191,-3.5191,-3.5191,-3.5191,-3.5191,-3.5191,-3.5084,-3.4895,-3.4842,-3.4469,-3.3881,-3.332,-3.3026,-3.2973,-3.2728,-3.2433,-3.2104,-3.2104,-3.1944,-3.1711,-3.1711,-3.1711,-3.1711,-3.1711,-3.1711,-3.1711,-3.1711,-3.1711,-3.1711,-3.1711,-3.1711,-3.1711,-3.1711,-3.1711,-3.1711,-3.1711,-3.1711,-3.1711,-3.1711,-3.1711,-3.1711,-3.1711,-3.1711,-3.1711,-3.1711,-3.1711,-3.1711,-3.1711,-3.1476,-3.137,-3.1623,-3.1711,-3.1644,-3.1343,-3.1303,-3.1209,-3.0915,-3.0862,-3.0768,-3.052,-3.044,-3.0319,-3.002,-2.9993,-3.0114,-3.0453,-3.052,-3.0608,-3.0849,-3.0862,-3.0862,-3.0862,-3.0862,-3.0996,-3.1289,-3.1303,-3.1303,-3.1303,-3.1303,-3.1156,-3.0862,-3.0621,-3.0354,-3.006,-3.002,-3.002,-3.006,-2.9953,-2.994,-2.998,-2.994,-2.994,-2.9993,-2.9993,-3.002,-3.006,-3.0007,-3.0327,-3.0795,-3.5191,-3.5191,-3.5191,-3.5191,-3.5191,-3.5311,-3.5631,-3.5685,-3.5899,-3.65,-3.658,-3.654,-3.65,-3.6019,-3.5551,-3.5231,-3.5191,-3.5191,-3.5191,-3.5191,-3.5191,-3.5191,-3.5191,-3.5177,-3.5137,-3.4949,-3.4469,-3.3881,-3.3534,-3.3227,-3.2973,-3.2728,-3.2433,-3.2104,-3.2104,-3.1944,-3.1711,-3.1711,-3.1711,-3.1711,-3.1711,-3.1711,-3.1711,-3.1711,-3.1711,-3.1711,-3.1711,-3.1711,-3.1711,-3.1711,-3.1711,-3.1711,-3.1711,-3.1711,-3.1711,-3.1711,-3.1711,-3.1711,-3.1711,-3.1711,-3.1711,-3.1711,-3.1711,-3.1711,-3.1711,-3.1637,-3.1671,-3.1711,-3.1711,-3.1711,-3.1623,-3.161,-3.1517,-3.1209,-3.1169,-3.1062,-3.0768,-3.056,-3.0386,-3.0346,-3.0346,-3.0453,-3.0702,-3.0969,-3.1129,-3.1122,-3.1169,-3.1169,-3.1169,-3.1169,-3.1303,-3.1597,-3.161,-3.161,-3.161,-3.161,-3.1463,-3.1169,-3.1129,-3.0955,-3.0662,-3.0453,-3.0434,-3.0648,-3.014,-3.006,-3.0319,-3.002,-3.0074,-3.0346,-3.0346,-3.0448,-3.0648,-3.044,-3.0515,-3.0795,-3.5404,-3.5431,-3.5485,-3.5658,-3.5551,-3.5538,-3.5832,-3.5738,-3.5845,-3.6433,-3.65,-3.658,-3.6727,-3.6219,-3.5698,-3.5231,-3.5191,-3.5191,-3.5191,-3.5191,-3.5271,-3.5431,-3.5284,-3.5271,-3.5431,-3.5151,-3.4803,-3.4376,-3.3908,-3.3521,-3.3213,-3.3093,-3.2866,-3.2585,-3.2474,-3.2233,-3.1904,-3.1744,-3.1711,-3.1711,-3.1711,-3.1711,-3.1711,-3.1711,-3.1711,-3.1711,-3.1711,-3.1711,-3.1711,-3.1711,-3.1711,-3.1711,-3.1711,-3.1711,-3.1711,-3.1711,-3.1711,-3.1711,-3.1711,-3.1711,-3.1711,-3.1711,-3.1711,-3.1711,-3.1711,-3.1711,-3.1711,-3.1711,-3.1711,-3.1711,-3.1711,-3.1711,-3.1671,-3.149,-3.1476,-3.137,-3.1076,-3.0929,-3.0782,-3.0621,-3.0595,-3.0715,-3.1009,-3.1156,-3.1289,-3.1463,-3.1476,-3.1476,-3.1476,-3.1476,-3.153,-3.1711,-3.1711,-3.1711,-3.1711,-3.1711,-3.1644,-3.1476,-3.1476,-3.1236,-3.0795,-3.0662,-3.0675,-3.0782,-3.0515,-3.0474,-3.0595,-3.0461,-3.0488,-3.0595,-3.0595,-3.0675,-3.0782,-3.0648,-3.0782,-3.1036]},{"header":{"parameterUnit":"m.s-1","parameterCategory":1,"la1":30.6,"la2":28.766,"lo1":-90.7593,"lo2":-88.6598,"dy":0.0162,"dx":0.0183,"nx":116,"ny":114,"refTime":"2023-10-23T18:00:00:Z","depth":0,"parameterNumber":3,"parameterNumberName":"V-component_of_WINDS"},"data":[0.0,0.0,0.0,0.0,0.0,0.0,0.0,0.0,0.0,0.0,0.0,0.0,0.0,0.0,0.0,0.0,0.0,0.0,0.0,0.0,0.0,0.0,0.0,0.0,0.0,0.0,0.0,0.0,0.0,0.0,0.0,0.0,0.0,0.0,0.0,0.0,0.0,0.0,0.0,0.0,0.0,0.0,0.0,0.0,0.0,0.0,0.0,0.0,0.0,0.0,0.0,0.0,0.0,0.0,0.0,0.0,0.0,0.0,0.0,0.0,0.0,0.0,0.0,0.0,0.0,0.0,0.0,0.0,0.0,0.0,0.0,0.0,0.0,0.0,0.0,0.0,0.0,0.0,0.0,0.0,0.0,0.0,0.0,0.0,0.0,0.0,0.0,0.0,0.0,0.0,0.0,0.0,0.0,0.0,0.0,0.0,0.0,0.0,0.0,0.0,0.0,0.0,0.0,0.0,0.0,0.0,0.0,0.0,0.0,0.0,0.0,0.0,0.0,0.0,0.0,0.0,0.0,0.0,0.0,0.0,0.0,0.0,0.0,0.0,0.0,0.0,0.0,0.0,0.0,0.0,0.0,0.0,0.0,0.0,0.0,0.0,0.0,0.0,0.0,0.0,0.0,0.0,0.0,0.0,0.0,0.0,0.0,0.0,0.0,0.0,0.0,0.0,0.0,0.0,0.0,0.0,0.0,0.0,0.0,0.0,0.0,0.0,0.0,0.0,0.0,0.0,0.0,0.0,0.0,0.0,0.0,0.0,0.0,0.0,0.0,0.0,0.0,0.0,0.0,0.0,0.0,0.0,0.0,0.0,0.0,0.0,0.0,0.0,0.0,0.0,0.0,0.0,0.0,0.0,0.0,0.0,0.0,0.0,0.0,0.0,0.0,0.0,0.0,0.0,0.0,0.0,0.0,0.0,0.0,0.0,0.0,0.0,0.0,0.0,0.0,0.0,0.0,0.0,0.0,0.0,0.0,0.0,0.0,0.0,0.0,0.0,0.0,0.0,0.0,0.0,0.0,0.0,0.0,0.0,0.0,0.0,0.0,0.0,0.0,0.0,0.0,0.0,0.0,0.0,0.0,0.0,0.0,0.0,0.0,0.0,0.0,0.0,0.0,0.0,0.0,0.0,0.0,0.0,0.0,0.0,0.0,0.0,0.0,0.0,0.0,0.0,0.0,0.0,0.0,0.0,0.0,0.0,0.0,0.0,0.0,0.0,0.0,0.0,0.0,0.0,0.0,0.0,0.0,0.0,0.0,0.0,0.0,0.0,0.0,0.0,0.0,0.0,0.0,0.0,0.0,0.0,0.0,0.0,0.0,0.0,0.0,0.0,0.0,0.0,0.0,0.0,0.0,0.0,0.0,0.0,0.0,0.0,0.0,0.0,0.0,0.0,0.0,0.0,0.0,0.0,0.0,0.0,0.0,0.0,0.0,0.0,0.0,0.0,0.0,0.0,0.0,0.0,0.0,0.0,0.0,0.0,0.0,0.0,0.0,0.0,0.0,0.0,0.0,0.0,0.0,0.0,0.0,0.0,0.0,0.0,0.0,0.0,0.0,0.0,0.0,0.0,0.0,0.0,0.0,0.0,0.0,0.0,0.0,0.0,0.0,0.0,0.0,0.0,0.0,0.0,0.0,0.0,0.0,0.0,0.0,0.0,0.0,0.0,0.0,0.0,0.0,0.0,0.0,0.0,0.0,0.0,0.0,0.0,0.0,0.0,0.0,0.0,0.0,0.0,0.0,0.0,0.0,0.0,0.0,0.0,0.0,0.0,0.0,0.0,0.0,0.0,0.0,0.0,0.0,0.0,0.0,0.0,0.0,0.0,0.0,0.0,0.0,0.0,0.0,0.0,0.0,0.0,0.0,0.0,0.0,0.0,0.0,0.0,0.0,0.0,0.0,0.0,0.0,0.0,0.0,0.0,0.0,0.0,0.0,0.0,0.0,0.0,0.0,0.0,0.0,0.0,0.0,0.0,0.0,0.0,0.0,0.0,0.0,0.0,0.0,0.0,0.0,0.0,0.0,0.0,0.0,0.0,0.0,0.0,0.0,0.0,0.0,0.0,0.0,0.0,0.0,0.0,0.0,0.0,0.0,0.0,0.0,0.0,0.0,0.0,0.0,0.0,0.0,0.0,0.0,0.0,0.0,0.0,0.0,0.0,0.0,0.0,0.0,0.0,0.0,0.0,0.0,0.0,0.0,0.0,0.0,0.0,0.0,0.0,0.0,0.0,0.0,0.0,0.0,0.0,0.0,0.0,0.0,0.0,0.0,0.0,0.0,0.0,0.0,0.0,0.0,0.0,0.0,0.0,0.0,0.0,0.0,0.0,0.0,0.0,0.0,0.0,0.0,0.0,0.0,0.0,0.0,0.0,0.0,0.0,0.0,0.0,0.0,0.0,0.0,0.0,0.0,0.0,0.0,0.0,0.0,0.0,0.0,0.0,0.0,0.0,0.0,0.0,0.0,0.0,0.0,0.0,0.0,0.0,0.0,0.0,0.0,0.0,0.0,0.0,0.0,0.0,0.0,0.0,0.0,0.0,0.0,0.0,0.0,0.0,0.0,0.0,0.0,0.0,0.0,0.0,0.0,0.0,0.0,0.0,0.0,0.0,0.0,0.0,0.0,0.0,0.0,0.0,0.0,0.0,0.0,0.0,0.0,0.0,0.0,0.0,0.0,0.0,0.0,0.0,0.0,0.0,0.0,0.0,0.0,0.0,0.0,0.0,0.0,0.0,0.0,0.0,0.0,0.0,0.0,0.0,0.0,0.0,0.0,0.0,0.0,0.0,0.0,0.0,0.0,0.0,0.0,0.0,0.0,0.0,0.0,0.0,0.0,0.0,0.0,0.0,0.0,0.0,0.0,0.0,0.0,0.0,0.0,0.0,0.0,0.0,0.0,0.0,0.0,0.0,0.0,0.0,0.0,0.0,0.0,0.0,0.0,0.0,0.0,0.0,0.0,0.0,0.0,0.0,0.0,0.0,0.0,0.0,0.0,0.0,0.0,0.0,0.0,0.0,0.0,0.0,0.0,0.0,0.0,0.0,0.0,0.0,0.0,0.0,0.0,0.0,0.0,0.0,0.0,0.0,0.0,0.0,0.0,0.0,0.0,0.0,0.0,0.0,0.0,0.0,0.0,0.0,0.0,0.0,0.0,0.0,0.0,0.0,0.0,0.0,0.0,0.0,0.0,0.0,0.0,0.0,0.0,0.0,0.0,0.0,0.0,0.0,0.0,0.0,0.0,0.0,0.0,0.0,0.0,0.0,0.0,0.0,0.0,0.0,0.0,0.0,0.0,0.0,0.0,0.0,0.0,0.0,0.0,0.0,0.0,0.0,0.0,0.0,0.0,0.0,0.0,0.0,0.0,0.0,0.0,0.0,0.0,0.0,0.0,0.0,0.0,0.0,0.0,0.0,0.0,0.0,0.0,0.0,0.0,0.0,0.0,0.0,0.0,0.0,0.0,0.0,0.0,0.0,0.0,0.0,0.0,0.0,0.0,0.0,0.0,0.0,0.0,0.0,0.0,0.0,0.0,0.0,0.0,0.0,0.0,0.0,0.0,0.0,0.0,0.0,0.0,0.0,0.0,0.0,0.0,0.0,0.0,0.0,0.0,0.0,0.0,0.0,0.0,0.0,0.0,0.0,0.0,0.0,0.0,0.0,0.0,0.0,0.0,0.0,0.0,0.0,0.0,0.0,0.0,0.0,0.0,0.0,0.0,0.0,0.0,0.0,0.0,0.0,0.0,0.0,0.0,0.0,0.0,0.0,0.0,0.0,0.0,0.0,0.0,0.0,0.0,0.0,0.0,0.0,0.0,0.0,0.0,0.0,0.0,0.0,0.0,0.0,0.0,0.0,0.0,0.0,0.0,0.0,0.0,0.0,0.0,0.0,0.0,0.0,0.0,0.0,0.0,0.0,0.0,0.0,0.0,0.0,0.0,0.0,0.0,0.0,0.0,0.0,0.0,0.0,0.0,0.0,0.0,0.0,0.0,0.0,0.0,0.0,0.0,0.0,0.0,0.0,0.0,0.0,0.0,0.0,0.0,0.0,0.0,0.0,0.0,0.0,0.0,0.0,0.0,0.0,0.0,0.0,0.0,0.0,0.0,0.0,0.0,0.0,0.0,0.0,0.0,0.0,0.0,0.0,0.0,0.0,0.0,0.0,0.0,0.0,0.0,0.0,0.0,0.0,0.0,0.0,0.0,0.0,0.0,0.0,0.0,0.0,0.0,0.0,0.0,0.0,0.0,0.0,0.0,0.0,0.0,0.0,0.0,0.0,0.0,0.0,0.0,0.0,0.0,0.0,0.0,0.0,0.0,0.0,0.0,0.0,0.0,0.0,0.0,0.0,0.0,0.0,0.0,0.0,0.0,0.0,0.0,0.0,0.0,0.0,0.0,0.0,0.0,0.0,0.0,0.0,0.0,0.0,0.0,0.0,0.0,0.0,0.0,0.0,0.0,0.0,0.0,0.0,0.0,0.0,0.0,0.0,0.0,0.0,0.0,0.0,0.0,0.0,0.0,0.0,0.0,0.0,0.0,0.0,0.0,0.0,0.0,0.0,0.0,0.0,0.0,0.0,0.0,0.0,0.0,0.0,0.0,0.0,0.0,0.0,0.0,0.0,0.0,0.0,0.0,0.0,0.0,0.0,0.0,0.0,0.0,0.0,0.0,0.0,0.0,0.0,0.0,0.0,0.0,0.0,0.0,0.0,0.0,0.0,0.0,0.0,0.0,0.0,0.0,0.0,0.0,0.0,0.0,0.0,0.0,0.0,0.0,0.0,0.0,0.0,0.0,0.0,0.0,0.0,0.0,0.0,0.0,0.0,0.0,0.0,0.0,0.0,0.0,0.0,0.0,0.0,0.0,0.0,0.0,0.0,0.0,0.0,0.0,0.0,0.0,0.0,0.0,0.0,0.0,0.0,0.0,0.0,0.0,0.0,0.0,0.0,0.0,0.0,0.0,0.0,0.0,0.0,0.0,0.0,0.0,0.0,0.0,0.0,0.0,0.0,0.0,0.0,0.0,0.0,0.0,0.0,0.0,0.0,0.0,0.0,0.0,0.0,0.0,0.0,0.0,0.0,0.0,0.0,0.0,0.0,0.0,0.0,0.0,0.0,0.0,0.0,0.0,0.0,0.0,0.0,0.0,0.0,0.0,0.0,0.0,0.0,0.0,0.0,0.0,0.0,0.0,0.0,0.0,0.0,0.0,0.0,0.0,0.0,0.0,0.0,0.0,0.0,0.0,0.0,0.0,0.0,0.0,0.0,0.0,0.0,0.0,0.0,0.0,0.0,0.0,0.0,0.0,0.0,0.0,0.0,0.0,0.0,0.0,0.0,0.0,0.0,0.0,0.0,0.0,0.0,0.0,0.0,0.0,0.0,0.0,0.0,0.0,0.0,0.0,0.0,0.0,0.0,0.0,0.0,0.0,0.0,0.0,0.0,0.0,0.0,0.0,0.0,0.0,0.0,0.0,0.0,0.0,0.0,0.0,0.0,0.0,0.0,0.0,0.0,0.0,0.0,0.0,0.0,0.0,0.0,0.0,0.0,0.0,0.0,0.0,0.0,0.0,0.0,0.0,0.0,0.0,0.0,0.0,0.0,0.0,0.0,0.0,0.0,0.0,0.0,0.0,0.0,0.0,0.0,0.0,0.0,0.0,0.0,0.0,0.0,0.0,0.0,0.0,0.0,0.0,0.0,0.0,0.0,0.0,0.0,0.0,0.0,0.0,0.0,0.0,0.0,0.0,0.0,0.0,0.0,0.0,0.0,0.0,0.0,0.0,0.0,0.0,0.0,0.0,0.0,0.0,0.0,0.0,0.0,0.0,0.0,0.0,0.0,0.0,0.0,0.0,0.0,0.0,0.0,0.0,0.0,0.0,0.0,0.0,0.0,0.0,0.0,0.0,0.0,0.0,0.0,0.0,0.0,0.0,0.0,0.0,0.0,0.0,0.0,0.0,0.0,0.0,0.0,0.0,0.0,0.0,0.0,0.0,0.0,0.0,0.0,0.0,0.0,0.0,0.0,0.0,0.0,0.0,0.0,0.0,0.0,0.0,0.0,0.0,0.0,0.0,0.0,0.0,0.0,3.9115,3.8536,0.0,0.0,0.0,0.0,0.0,0.0,0.0,0.0,0.0,0.0,0.0,0.0,0.0,0.0,0.0,0.0,0.0,0.0,0.0,0.0,0.0,0.0,0.0,0.0,0.0,0.0,0.0,0.0,0.0,0.0,0.0,0.0,0.0,0.0,0.0,0.0,0.0,4.5231,4.5817,4.631,4.674,4.6317,4.547,4.4321,0.0,0.0,0.0,0.0,0.0,0.0,0.0,0.0,0.0,0.0,0.0,0.0,0.0,0.0,0.0,0.0,0.0,0.0,0.0,0.0,0.0,0.0,0.0,0.0,0.0,0.0,0.0,0.0,0.0,0.0,0.0,0.0,0.0,0.0,0.0,0.0,0.0,0.0,0.0,0.0,0.0,0.0,0.0,0.0,0.0,0.0,0.0,0.0,0.0,0.0,0.0,0.0,0.0,0.0,0.0,0.0,0.0,0.0,0.0,0.0,0.0,0.0,0.0,0.0,0.0,0.0,0.0,0.0,0.0,0.0,4.3127,4.1787,0.0,0.0,0.0,0.0,0.0,0.0,0.0,0.0,0.0,0.0,0.0,0.0,0.0,0.0,0.0,0.0,0.0,0.0,0.0,0.0,0.0,0.0,0.0,4.5977,4.6421,4.6497,4.6542,4.6551,0.0,0.0,0.0,0.0,0.0,0.0,4.6928,4.7275,4.7621,4.7963,4.8419,4.9062,4.9856,5.0115,4.9077,4.6937,4.7201,0.0,0.0,0.0,0.0,0.0,0.0,0.0,0.0,0.0,0.0,0.0,0.0,0.0,0.0,0.0,0.0,0.0,0.0,0.0,0.0,0.0,0.0,0.0,0.0,0.0,0.0,0.0,0.0,0.0,0.0,0.0,0.0,0.0,0.0,0.0,0.0,0.0,0.0,0.0,0.0,0.0,0.0,0.0,0.0,0.0,0.0,0.0,0.0,0.0,0.0,0.0,0.0,0.0,0.0,0.0,0.0,0.0,0.0,0.0,0.0,0.0,0.0,0.0,5.0161,5.0671,5.1564,5.2305,5.3077,5.3547,4.8166,4.615,4.6483,4.4532,0.0,0.0,0.0,0.0,0.0,0.0,0.0,0.0,0.0,0.0,0.0,0.0,0.0,0.0,0.0,0.0,0.0,0.0,0.0,0.0,0.0,4.7095,4.739,4.7958,4.8041,4.8041,4.8022,0.0,0.0,0.0,0.0,0.0,4.6747,4.7,4.7615,4.8593,5.0361,5.1354,5.1615,5.3068,5.3189,5.2125,5.001,4.8509,4.7505,0.0,0.0,0.0,0.0,0.0,0.0,0.0,0.0,0.0,0.0,0.0,0.0,0.0,0.0,0.0,0.0,0.0,0.0,0.0,0.0,0.0,0.0,0.0,0.0,0.0,0.0,0.0,0.0,0.0,0.0,0.0,0.0,0.0,0.0,0.0,0.0,0.0,0.0,0.0,0.0,0.0,4.2183,4.3064,0.0,0.0,0.0,0.0,0.0,0.0,0.0,0.0,0.0,0.0,0.0,0.0,0.0,5.0523,5.1329,5.2779,5.4281,5.5806,5.5785,5.6541,5.8075,5.8293,5.8826,5.9514,5.8102,0.0,5.1302,4.8909,0.0,0.0,0.0,0.0,0.0,0.0,0.0,0.0,0.0,0.0,0.0,0.0,0.0,0.0,0.0,0.0,0.0,0.0,0.0,0.0,0.0,4.9098,5.0254,5.0986,5.1049,5.1049,5.1049,5.0365,0.0,0.0,0.0,4.8852,4.8629,4.9391,5.0681,5.2469,5.3809,5.5004,5.6022,5.6677,5.6836,5.6488,5.4917,5.2476,4.9514,4.8783,0.0,0.0,0.0,0.0,0.0,0.0,0.0,0.0,0.0,0.0,0.0,0.0,0.0,0.0,0.0,0.0,0.0,0.0,0.0,0.0,0.0,0.0,0.0,0.0,0.0,0.0,0.0,0.0,0.0,0.0,0.0,0.0,0.0,0.0,0.0,0.0,0.0,0.0,0.0,4.2932,4.463,4.5435,4.5528,4.5481,0.0,0.0,0.0,0.0,0.0,0.0,0.0,0.0,0.0,5.3104,5.479,5.6206,5.7357,5.8605,5.9985,6.1499,6.1459,6.2096,6.3304,6.3804,6.4237,6.4547,6.4251,6.266,5.9872,5.4792,5.1873,5.0485,0.0,0.0,0.0,0.0,4.9151,4.9905,0.0,0.0,0.0,0.0,0.0,0.0,0.0,0.0,0.0,0.0,0.0,0.0,4.9801,5.1867,5.3628,5.4645,5.4755,5.4645,5.4425,5.3298,5.1987,5.0592,5.0745,5.0756,5.0386,5.2028,5.3967,5.6255,5.7423,5.879,6.0313,6.0417,6.0439,6.0318,5.9573,5.6526,5.1913,5.1274,4.9663,4.7466,0.0,0.0,0.0,0.0,0.0,0.0,0.0,0.0,0.0,0.0,0.0,0.0,0.0,0.0,0.0,0.0,0.0,0.0,0.0,0.0,0.0,0.0,0.0,0.0,0.0,0.0,0.0,0.0,0.0,0.0,0.0,0.0,0.0,0.0,0.0,0.0,0.0,4.5125,4.7079,4.8556,4.8556,4.8487,0.0,0.0,0.0,0.0,0.0,0.0,5.2943,5.5002,5.7061,5.912,6.0581,6.199,6.3328,6.4374,6.5478,6.6571,6.6806,6.7365,6.8208,6.8866,6.9139,6.9139,6.9174,6.87,6.7416,6.0434,5.6708,5.5189,5.3261,5.2261,5.199,5.2382,5.2794,5.3311,0.0,0.0,0.0,0.0,0.0,0.0,0.0,0.0,0.0,0.0,0.0,5.1536,5.3849,5.5574,5.7178,5.8756,5.8902,5.8572,5.7813,5.5574,5.3922,5.3067,5.1674,5.0995,5.113,5.4026,5.6487,5.8547,6.0728,6.2348,6.3394,6.4084,6.4077,6.3446,6.2818,5.9879,5.5187,5.2826,5.0851,4.9125,4.7505,0.0,0.0,0.0,0.0,0.0,0.0,0.0,0.0,0.0,0.0,0.0,0.0,0.0,0.0,0.0,0.0,0.0,0.0,0.0,0.0,0.0,0.0,0.0,0.0,0.0,0.0,0.0,0.0,0.0,0.0,0.0,0.0,0.0,0.0,0.0,0.0,0.0,0.0,5.3345,5.3009,0.0,0.0,0.0,0.0,5.3405,5.5043,5.7056,5.957,6.054,6.2518,6.5814,6.6721,6.7534,6.8325,6.9889,7.0673,7.0623,7.1466,7.2259,7.304,7.3229,7.3292,7.3292,7.3417,7.3006,7.1687,6.5052,6.184,6.0737,5.832,5.7835,5.8432,5.7695,5.8395,5.9729,0.0,0.0,0.0,0.0,0.0,0.0,0.0,0.0,4.6177,4.7003,5.0168,5.3078,5.4961,5.7997,6.0346,6.1435,6.1508,6.0958,5.9648,5.7299,5.5122,5.3287,5.2704,5.3154,5.4708,5.7541,6.0132,6.2502,6.4275,6.5828,6.7135,6.678,6.651,6.6283,6.5271,6.3296,6.0501,5.6732,5.3486,5.0835,4.9764,4.7971,0.0,0.0,0.0,0.0,0.0,0.0,0.0,0.0,0.0,0.0,0.0,0.0,0.0,0.0,0.0,0.0,0.0,0.0,0.0,0.0,0.0,0.0,0.0,0.0,0.0,0.0,0.0,0.0,0.0,0.0,0.0,0.0,0.0,0.0,0.0,0.0,0.0,5.6597,5.7178,0.0,5.7773,5.7513,5.7698,5.8516,6.0588,6.2654,6.4659,6.6519,6.8304,7.0077,7.1417,7.2223,7.2483,7.3586,7.4093,7.4078,7.4389,7.4686,7.4946,7.4986,7.5012,7.5012,7.5064,7.4929,7.4394,7.1529,6.8399,6.5179,6.3227,6.2332,6.2193,6.2406,6.2854,6.3339,0.0,0.0,0.0,0.0,0.0,0.0,0.0,0.0,4.6397,4.7746,5.1499,5.4913,5.7347,6.097,6.3576,6.4383,6.42,6.3233,6.1325,5.8694,5.6271,5.4106,5.4139,5.5394,5.7838,6.0435,6.3019,6.558,6.7011,6.838,6.9619,6.8978,6.859,6.8343,6.7341,6.6076,6.4376,6.1034,5.7245,5.3377,5.2351,5.0576,4.8395,0.0,0.0,0.0,0.0,0.0,0.0,0.0,0.0,0.0,0.0,0.0,0.0,0.0,0.0,0.0,0.0,0.0,0.0,0.0,0.0,0.0,0.0,0.0,0.0,0.0,0.0,0.0,0.0,0.0,0.0,0.0,0.0,0.0,0.0,5.4001,5.7709,6.1,6.2001,6.2625,6.3145,6.3219,6.3553,6.4408,6.6228,6.8023,6.9657,7.1292,7.2666,7.3831,7.4872,7.5429,7.5429,7.6246,7.6479,7.6128,7.6425,7.6536,7.6536,7.6536,7.6564,7.6655,7.6655,7.6655,7.6581,7.5763,7.3624,7.0559,6.8038,6.6921,6.6708,6.666,6.6809,6.7032,0.0,0.0,0.0,0.0,0.0,0.0,0.0,4.4828,4.6774,4.928,5.3099,5.7127,6.1202,6.4617,6.6893,6.7627,6.6966,6.5448,6.2903,5.9758,5.731,5.5706,5.6003,5.7482,6.0244,6.2598,6.5072,6.7609,6.8915,6.9974,7.0765,7.0728,7.0335,6.9632,6.9162,6.8106,6.6624,6.552,6.1971,5.6957,5.5213,5.3464,5.1677,0.0,0.0,0.0,0.0,0.0,0.0,0.0,0.0,0.0,0.0,0.0,0.0,0.0,0.0,0.0,0.0,0.0,0.0,0.0,0.0,0.0,0.0,0.0,0.0,0.0,0.0,0.0,0.0,0.0,0.0,0.0,0.0,0.0,5.4633,5.7674,6.1675,6.6605,6.7369,6.811,6.967,6.9831,7.0165,7.0945,7.1849,7.3014,7.4574,7.4686,7.5466,7.7101,7.7138,7.7138,7.7138,7.7919,7.7798,7.6866,7.7644,7.8,7.8,7.8,7.8099,7.8276,7.8276,7.829,7.8253,7.7473,7.7138,7.6716,7.2654,7.1589,7.2122,7.0499,7.0351,7.0871,0.0,0.0,0.0,0.0,0.0,0.0,4.2664,4.4061,4.6203,4.9285,5.3234,5.7493,6.212,6.6068,6.8198,6.7751,6.6966,6.4934,6.13,5.9134,5.7636,5.6782,5.8047,6.0051,6.2742,6.5147,6.7547,6.9991,7.0715,7.1441,7.212,7.153,7.1175,7.0958,7.0434,6.9669,6.8785,6.8686,6.6902,6.3813,6.0143,5.7257,5.5059,0.0,0.0,0.0,0.0,0.0,0.0,0.0,0.0,0.0,0.0,0.0,0.0,0.0,0.0,0.0,0.0,0.0,0.0,0.0,0.0,0.0,0.0,0.0,0.0,0.0,0.0,0.0,0.0,0.0,0.0,0.0,5.4535,5.7629,5.7884,6.1874,6.5913,6.9036,7.07,7.1769,7.2177,7.2862,7.3335,7.3558,7.4946,7.5949,7.6395,7.6952,7.751,7.7956,7.7956,7.7956,7.7956,7.803,7.7946,7.7681,7.7789,7.7842,7.7842,7.7842,7.7928,7.8085,7.8085,7.8179,7.8276,7.7905,7.7751,7.7529,7.5338,7.4598,7.476,7.4301,7.3521,7.2592,0.0,0.0,0.0,0.0,0.0,0.0,4.2341,4.3565,4.5675,4.927,5.3289,5.7656,6.2463,6.6046,6.7994,6.7714,6.6342,6.42,6.1117,5.9061,5.8074,5.8197,6.0089,6.2396,6.5099,6.7431,6.9444,7.1157,7.1742,7.2217,7.261,7.2132,7.1912,7.1889,7.1313,7.0819,7.038,7.0412,6.9493,6.7824,6.5322,6.2357,5.9269,5.7681,5.6368,5.5138,5.3517,5.2459,5.1636,5.0393,0.0,0.0,0.0,0.0,0.0,0.0,0.0,0.0,0.0,0.0,0.0,0.0,0.0,0.0,0.0,0.0,0.0,0.0,0.0,0.0,0.0,0.0,0.0,0.0,5.8584,6.2242,6.3563,6.663,6.963,7.206,7.3707,7.4797,7.5148,7.5689,7.6067,7.6121,7.7064,7.7584,7.7584,7.8067,7.829,7.829,7.829,7.8262,7.8193,7.8057,7.7877,7.7688,7.7525,7.7441,7.7381,7.7268,7.7374,7.7585,7.7659,7.7783,7.7871,7.7827,7.7783,0.0,0.0,0.0,0.0,0.0,7.4927,7.3752,0.0,0.0,0.0,0.0,0.0,0.0,4.2023,4.3073,4.5122,4.9067,5.3057,5.7326,6.2106,6.4819,6.6511,6.6979,6.4984,6.2952,6.1312,5.9281,5.8725,6.0069,6.2252,6.4709,6.742,6.9516,7.0928,7.1628,7.2296,7.2606,7.2496,7.2496,7.2569,7.2606,7.1926,7.165,7.1715,7.1294,7.0609,6.9843,7.0052,6.7632,6.3688,6.1425,6.0254,5.9487,5.7265,5.6127,5.5435,5.3851,0.0,0.0,0.0,0.0,0.0,0.0,0.0,0.0,0.0,0.0,0.0,0.0,0.0,0.0,0.0,0.0,0.0,0.0,0.0,0.0,0.0,0.0,0.0,0.0,6.2842,6.705,7.0183,7.1507,7.2916,7.5065,7.6154,7.7037,7.7869,7.7971,7.8043,7.8221,7.8235,7.8235,7.8235,7.8235,0.0,0.0,0.0,7.829,7.8162,7.8165,7.7954,7.753,7.726,7.7068,7.6943,7.6743,7.6858,7.718,7.7281,7.7322,7.7368,7.7454,7.7372,7.7138,7.6803,7.6692,7.6595,7.5939,7.5232,7.4643,0.0,0.0,0.0,0.0,0.0,0.0,4.0592,4.1994,4.4236,4.7642,5.1092,5.504,5.9815,6.2444,6.3579,6.283,6.1741,6.0419,5.8804,5.8866,6.0258,6.3162,6.504,6.7204,6.9795,7.1393,7.2304,7.2488,7.3155,7.312,7.2496,7.2496,7.2863,7.3413,7.2635,7.2686,7.3214,7.2604,7.1931,7.1299,7.1446,6.9594,6.6656,6.6185,6.4641,6.271,6.2166,6.0554,5.8495,5.7474,5.5633,5.3503,5.1885,4.976,0.0,0.0,0.0,0.0,0.0,0.0,0.0,0.0,0.0,0.0,0.0,0.0,0.0,0.0,0.0,0.0,0.0,0.0,0.0,6.3233,6.7417,7.105,7.3619,7.5264,7.6123,7.5954,7.6788,7.7496,7.7673,7.7791,7.7842,7.7908,7.7908,7.7908,7.7908,7.7908,7.7965,7.8057,7.8572,7.8913,7.9037,7.9106,7.907,7.8974,7.8347,0.0,7.7985,7.7809,7.7897,7.8189,7.7623,7.7516,7.7741,7.7004,7.6521,7.6306,7.6935,7.7154,7.7095,7.642,7.616,7.5994,0.0,0.0,0.0,0.0,0.0,0.0,4.0141,4.1334,4.3243,4.6104,4.9301,5.2668,5.6193,5.8323,5.9417,5.922,5.8841,5.8609,5.8609,6.0114,6.2341,6.5309,6.7747,6.9797,7.1567,7.3035,7.3809,7.3809,7.414,7.4111,7.3692,7.3692,7.3927,7.4294,7.3891,7.3927,7.4258,7.3486,7.3006,7.2672,7.2351,7.133,6.9887,6.8926,6.7688,6.6296,6.5084,6.3462,6.1662,6.0399,5.8577,5.6517,5.4913,5.2711,5.0352,0.0,0.0,0.0,0.0,0.0,0.0,0.0,0.0,0.0,0.0,0.0,0.0,0.0,0.0,5.5489,5.7116,0.0,6.4383,6.7247,7.072,7.3656,7.527,7.6494,7.7071,7.6631,7.7038,7.7341,7.7341,7.7417,7.7426,7.7389,7.7389,7.7389,7.7389,7.7389,7.7532,7.7769,7.8432,7.8747,7.8747,7.8999,7.8952,7.8679,7.8009,7.766,7.7531,7.7229,7.7248,7.7459,7.7177,7.7002,7.6875,7.61,7.5707,7.5584,7.6017,7.632,7.6465,7.6307,7.611,7.5855,0.0,0.0,0.0,0.0,0.0,0.0,0.0,4.0889,4.2359,4.4514,4.7456,5.0139,5.2299,5.3795,5.4896,5.5574,5.604,5.7068,5.8866,6.1692,6.4495,6.7234,7.0202,7.2171,7.3108,7.4449,7.505,7.4903,7.505,7.505,7.4903,7.4903,7.4977,7.5124,7.4977,7.4977,7.5087,7.4258,7.3927,7.3854,7.3046,7.2716,7.2539,7.0658,6.9736,6.9173,6.695,6.53,6.3947,6.2291,6.0723,5.9159,5.7545,5.5489,5.3151,5.0508,4.8122,0.0,0.0,0.0,0.0,0.0,0.0,0.0,0.0,5.2113,5.4572,5.539,5.8242,6.1068,6.2511,6.6012,6.9169,7.077,7.334,7.5417,7.624,7.6799,7.6988,7.6763,7.6872,7.6982,7.695,7.6918,7.6866,7.6813,7.6745,7.6801,7.6947,7.6984,7.7201,7.775,7.8348,7.8606,7.8488,7.8784,7.871,7.8293,7.7634,7.7225,7.7046,7.6699,7.6617,7.6805,7.685,7.6572,7.6076,7.5373,7.5109,7.5073,7.4894,7.4989,7.5281,7.5845,7.5754,7.539,0.0,0.0,0.0,0.0,0.0,0.0,0.0,0.0,4.195,4.2946,4.5316,4.7476,4.8965,4.9887,5.0664,5.14,5.3445,5.5647,5.7997,6.2475,6.6439,6.9587,7.2106,7.3832,7.4639,7.5506,7.5616,7.4903,7.5616,7.5616,7.4903,7.4903,7.527,7.5946,7.5197,7.5322,7.5909,7.5102,7.4757,7.4683,7.3891,7.356,7.3391,7.1745,7.0657,6.9798,6.8085,6.6014,6.3858,6.2169,6.1019,5.9967,5.8364,5.6712,5.474,5.1573,4.9397,4.7709,4.6177,4.6728,4.7976,4.883,5.0875,5.3031,0.0,5.6748,5.8756,5.9563,6.2915,6.5962,6.6856,6.9706,7.2496,7.4096,7.5249,7.624,7.7069,7.7129,7.6658,7.5495,7.6125,7.6578,7.6429,7.6225,7.6123,7.6123,7.595,7.6135,7.6784,7.682,7.7303,7.8389,7.8872,7.9251,7.9515,7.9475,7.9407,7.9329,7.8486,7.8084,7.8063,7.7808,7.7808,7.7972,7.7515,7.7017,7.6477,7.5488,7.5077,7.5027,7.4161,7.3757,7.3707,7.499,7.5512,7.5505,0.0,0.0,0.0,0.0,0.0,0.0,0.0,0.0,0.0,4.2532,4.4305,4.5725,4.631,4.7031,4.7986,4.9224,5.1573,5.462,5.8462,6.2829,6.694,7.066,7.312,7.4771,7.5579,7.6371,7.6628,7.6298,7.6628,7.6628,7.6298,7.6298,7.6481,7.6775,7.6445,7.6481,7.6738,7.5946,7.5616,7.5506,7.4221,7.3413,7.2789,7.0697,6.8811,6.721,6.6549,6.442,0.0,6.0052,5.8988,5.8095,5.6969,5.6136,5.5071,5.2317,5.0325,4.8719,4.7049,4.7792,4.9334,5.0665,5.3529,5.6418,5.8033,6.1006,6.3833,6.5068,6.7753,7.0116,7.0922,7.2937,7.4695,7.5355,7.62,7.6922,7.7252,7.6591,7.5657,7.4431,7.4227,7.4399,7.4901,7.4885,7.4923,7.5118,7.5472,7.5771,7.5979,7.65,7.7118,7.7828,7.8523,7.8897,7.8898,7.9049,7.9013,7.8747,7.8151,7.7828,7.7828,7.7588,7.7522,7.7597,7.7071,7.6698,7.6433,7.5686,7.5148,7.4715,7.4298,7.3833,7.338,7.41,7.4449,7.4604,0.0,0.0,0.0,0.0,0.0,0.0,0.0,0.0,0.0,0.0,4.3659,4.4464,4.4438,4.5111,4.603,4.7195,4.9774,5.3188,5.7581,6.2095,6.6426,7.0463,7.3362,7.527,7.6093,7.6885,7.7289,7.7289,7.7289,7.7289,7.7289,7.7289,7.7289,7.7289,7.7289,7.7289,7.7252,7.6665,7.6313,7.5946,7.4331,7.3083,7.1857,6.8995,6.6242,6.3894,6.3453,6.1484,5.8767,5.6712,5.5904,5.5636,5.4583,5.4583,5.441,5.1767,5.0151,4.9087,4.8333,4.9627,5.162,5.3518,5.6859,6.0199,6.2291,6.5228,6.7931,6.9504,7.1333,7.2782,7.3337,7.4543,7.5567,7.5771,7.6423,7.6955,7.7165,7.6124,7.4865,7.3388,7.2368,7.2032,7.2582,7.3203,7.3677,7.3921,7.4831,7.5403,7.5474,7.6298,7.7031,7.7598,7.8181,7.8421,7.8266,7.8445,7.849,7.8323,7.7771,7.771,7.8126,7.7705,7.7408,7.7189,7.6792,7.6682,7.6678,7.6066,7.5387,7.4691,7.4483,7.3885,7.317,7.3299,7.3522,7.3766,0.0,0.0,0.0,0.0,0.0,0.0,0.0,0.0,0.0,0.0,0.0,0.0,0.0,4.4268,4.4773,4.481,4.7802,5.1069,5.4326,5.9783,6.4701,6.8775,7.2775,7.527,7.6093,7.6885,7.7289,7.7289,7.7289,7.7289,7.7289,7.7289,7.7289,7.7289,7.7289,7.7289,7.7289,7.7289,7.6812,7.5946,7.4331,7.2753,7.0903,6.6903,6.338,6.0346,5.8767,5.7164,5.5254,5.2087,5.204,5.3031,5.1463,5.2003,5.2627,4.9361,4.837,4.8663,5.0241,5.3004,5.5989,5.8389,6.1484,6.4763,6.7907,6.9339,7.0398,7.1904,7.2848,7.341,7.3222,7.3899,7.4717,7.5468,7.5792,7.6147,7.6724,7.598,7.455,7.2245,7.0786,6.9777,6.9314,7.1252,7.2563,7.2543,7.379,7.4851,7.5568,7.6369,7.7207,7.8139,7.7996,7.8009,7.8188,7.7828,7.7982,7.8653,7.768,7.8017,7.9431,7.8706,7.7925,7.7201,7.7166,7.7323,7.7509,7.6712,7.595,7.5209,7.4426,7.3537,7.2713,7.2713,7.2984,7.334,0.0,0.0,0.0,0.0,0.0,0.0,0.0,0.0,0.0,0.0,0.0,0.0,0.0,0.0,0.0,0.0,4.6682,4.9334,5.2601,5.6602,6.0627,6.4664,6.7724,7.022,7.2092,7.2922,7.3582,7.4133,7.4133,7.4133,7.4133,7.4133,7.4404,7.4918,7.4918,7.5212,7.5674,7.5139,7.4441,7.3523,7.1394,6.9215,6.6866,6.2793,5.9233,5.5978,0.0,5.1583,5.1289,4.9104,4.87,4.9067,4.8517,4.9067,4.9838,4.9307,4.9931,5.1253,5.3408,5.6308,5.9355,6.1851,6.5301,6.8348,6.9449,7.1578,7.3113,7.2453,7.2408,7.2288,7.1612,7.1254,7.1342,7.2163,7.3337,7.4201,7.4269,7.4155,7.3058,7.0297,6.9583,6.8718,6.7256,6.9316,7.1131,7.2035,7.3913,7.5057,7.5129,7.6526,7.7489,7.7785,7.7885,7.785,7.782,7.813,7.839,7.8509,7.866,7.8718,7.8775,7.9017,7.8408,7.7235,7.7753,7.7729,7.73,7.7059,7.6506,7.5815,7.5539,7.4887,7.4167,7.4167,7.4274,7.4229,0.0,0.0,0.0,0.0,0.0,0.0,0.0,0.0,0.0,0.0,0.0,0.0,0.0,0.0,0.0,0.0,0.0,4.7379,5.0068,5.3298,5.6638,6.0089,6.3135,6.5595,6.7467,6.8591,6.9545,7.0367,7.0367,7.0513,7.077,7.077,7.1064,7.1592,7.1872,7.2275,7.2701,7.2202,7.1358,7.0146,6.7724,6.5251,6.2719,5.8902,5.5673,0.0,4.914,4.7865,4.7655,4.6278,4.6021,4.6195,4.5911,4.6571,4.7829,4.9858,5.1583,5.3518,5.6492,5.9905,6.3172,6.5632,6.8605,7.1027,7.1321,7.2312,7.2695,7.0894,6.9704,6.8684,6.7702,6.7092,6.731,6.8965,7.0984,7.2543,7.318,7.3499,7.2757,7.0345,6.9606,6.8759,6.7346,6.8951,7.0446,7.1275,7.371,7.5077,7.4925,7.6804,7.7896,7.7896,7.8294,7.8294,7.7896,7.8622,7.8912,7.881,7.9844,7.981,7.8844,7.9569,7.9201,7.8028,7.8292,7.812,7.7615,7.7304,7.6753,7.6097,7.6097,7.5615,7.4925,7.4925,7.4891,7.4753,0.0,0.0,0.0,0.0,0.0,0.0,0.0,0.0,0.0,0.0,0.0,0.0,0.0,0.0,0.0,0.0,0.0,0.0,4.6856,4.9921,5.2758,5.5108,5.8963,6.1447,6.2279,6.3894,6.5141,6.5925,6.5962,6.6402,6.715,6.7187,6.7223,6.7297,6.8054,6.8408,6.8444,6.8408,6.7467,6.5778,6.3343,6.0921,5.8425,5.5269,5.2601,5.0251,4.7846,4.5984,4.4516,4.3763,4.4048,4.4626,4.3947,4.4901,4.6985,5.0996,5.3408,5.5647,5.9648,6.3686,6.732,6.9633,7.1394,7.2716,7.3377,7.1688,6.9403,6.7454,6.5036,6.296,6.1901,6.1702,6.2752,6.5989,6.8732,7.1184,7.3185,7.3895,7.3637,7.207,7.0778,6.9817,6.936,7.0063,7.0567,7.0587,7.327,7.4925,7.496,7.7132,7.8396,7.8396,7.912,7.9166,7.8465,7.9189,7.9603,7.9638,8.1121,8.1017,7.9603,8.0304,8.0235,7.9442,7.881,7.8499,7.8396,7.7615,7.6891,7.627,7.627,7.5787,7.5098,7.5098,7.5029,7.5016,0.0,0.0,0.0,0.0,0.0,0.0,0.0,0.0,0.0,0.0,0.0,0.0,0.0,0.0,0.0,0.0,0.0,0.0,4.525,4.6654,4.8269,5.0068,5.2344,5.4216,5.5636,5.6627,5.7556,5.8375,5.8988,5.9391,5.9612,6.0199,6.0786,6.1361,6.1582,6.2022,6.2536,6.1949,6.0737,5.9098,5.7299,5.5097,5.27,5.0645,4.8746,4.6985,4.5764,4.4663,4.3763,4.3579,4.4415,4.5773,4.6764,4.8636,5.0996,5.3859,5.709,6.0529,6.4016,6.7467,7.0353,7.1578,7.2642,7.2973,7.1358,6.954,6.7328,6.4323,6.1228,5.8734,5.7733,5.7514,5.8565,6.1811,6.5873,6.9151,7.0574,7.2665,7.3456,7.1882,7.1453,7.1212,7.0932,7.1951,7.2721,7.2912,7.4132,7.5167,7.5753,7.7442,7.8396,7.8396,7.912,7.9431,7.9201,7.9959,8.0614,8.1224,8.1603,8.1293,8.0339,8.1155,8.0776,7.9511,7.9856,7.9741,7.9201,7.8994,7.8787,7.8615,7.8615,7.8166,7.7511,7.7511,7.7132,7.6615,0.0,0.0,0.0,0.0,0.0,0.0,0.0,0.0,0.0,0.0,0.0,0.0,0.0,0.0,0.0,0.0,0.0,0.0,0.0,4.4415,4.5406,4.6682,4.8296,4.9618,5.0488,5.1306,5.2123,5.2989,5.3419,5.3812,5.4168,5.462,5.5097,5.5526,5.5893,5.6308,5.6675,5.6235,5.5317,0.0,0.0,5.0682,4.903,4.7755,4.6471,4.5296,4.4847,4.4635,4.4718,4.5819,4.6774,4.7902,5.0251,5.2674,5.517,5.796,6.1374,6.491,6.7834,7.0683,7.2995,7.3435,7.3377,7.2459,6.9669,6.6616,6.3311,5.959,5.615,5.3608,5.301,5.3458,5.5196,5.9108,6.3999,6.8058,7.0061,7.2869,7.4315,7.3109,7.3058,7.3023,7.2704,7.3429,7.4125,7.4588,7.5123,7.5615,7.6063,7.7879,7.8879,7.8879,7.9948,8.0534,8.0534,8.058,8.0994,8.181,8.181,8.1569,8.1155,8.1603,8.1328,8.0534,8.058,8.0373,7.9959,7.9614,7.9477,7.9477,7.9477,7.9258,7.8879,7.8879,7.8373,7.7718,0.0,0.0,0.0,0.0,0.0,0.0,0.0,0.0,0.0,0.0,0.0,0.0,0.0,0.0,0.0,0.0,0.0,0.0,0.0,0.0,4.369,4.4516,4.5874,4.6608,4.6608,4.7305,4.8012,4.8802,4.8913,4.9307,4.9994,5.0105,5.0141,5.0178,5.0886,5.1179,5.1179,5.1179,5.0729,4.9848,4.8406,4.7342,4.6535,0.0,4.5149,4.4553,4.4553,4.5149,4.6287,4.8903,4.9931,5.0729,5.4142,5.6859,5.9428,6.2683,6.5778,6.8678,7.1123,7.3325,7.4867,7.4757,7.3362,7.1138,6.7797,6.3194,5.8493,5.4453,5.0929,4.8571,4.8434,4.9836,5.248,5.7043,6.241,6.7085,7.0116,7.3369,7.525,7.4807,7.4926,7.491,7.4591,7.4715,7.5123,7.5798,7.6068,7.6235,7.6235,7.8304,7.958,7.9787,8.1121,8.181,8.181,8.1121,8.1121,8.181,8.181,8.181,8.181,8.181,8.181,8.1776,8.1063,8.0752,8.0718,8.0086,7.981,7.981,7.981,7.9718,7.9649,7.9649,7.9166,7.8568,0.0,0.0,0.0,0.0,0.0,0.0,0.0,0.0,0.0,0.0,4.361,0.0,0.0,0.0,0.0,0.0,0.0,0.0,0.0,0.0,0.0,4.3653,4.3983,4.413,4.413,4.4277,4.4424,4.4571,4.5223,4.5617,4.5764,4.6434,4.6764,4.6764,4.6911,4.6948,4.6948,4.6948,4.6507,4.5727,4.5434,4.4856,4.413,4.3983,0.0,0.0,4.3726,4.4635,4.6397,4.9517,5.1903,5.4216,5.8143,6.1043,6.3649,6.6916,6.9178,7.1197,7.3619,7.4573,7.472,7.4074,7.1688,6.8481,6.4554,5.9786,5.5208,5.1828,4.8369,4.5955,4.5924,4.7761,5.0441,5.3965,5.9627,6.4634,6.7599,7.1495,7.4275,7.4868,7.5476,7.5952,7.6302,7.6245,7.6291,7.6565,7.6859,7.6994,7.6994,7.858,8.0086,8.1362,8.1672,8.181,8.181,8.1672,8.1672,8.181,8.181,8.181,8.181,8.181,8.181,8.181,8.1672,0.0,8.1569,8.1466,8.1397,8.1397,8.1397,8.1017,8.0407,8.0407,7.9925,7.9304,0.0,0.0,0.0,0.0,0.0,0.0,0.0,0.0,0.0,0.0,4.5589,4.5398,0.0,0.0,0.0,0.0,0.0,0.0,0.0,0.0,0.0,0.0,4.2249,4.2433,4.2882,4.2882,4.3065,4.3506,0.0,4.4085,4.4085,4.4461,4.4644,4.4644,4.4644,4.4644,4.4644,4.4644,4.4415,4.4085,4.4085,4.3836,4.3506,0.0,0.0,0.0,4.3506,4.4534,4.6324,4.9197,5.206,5.5244,6.0126,6.3649,6.6526,6.9325,7.1564,7.3509,7.5087,7.5542,7.5139,7.3487,7.033,6.6366,6.1447,5.6418,5.1864,4.8632,4.5876,4.4196,4.4584,4.6649,4.9318,5.2552,5.7887,6.2681,6.5786,7.0089,7.3279,7.4291,7.5337,7.6149,7.6599,7.6449,7.6402,7.6622,7.685,7.7031,7.7201,7.8649,8.0017,8.1155,8.1569,8.181,8.181,8.181,8.181,8.181,8.181,8.181,8.181,8.181,8.181,8.181,8.181,8.181,8.181,8.181,8.181,8.181,8.181,8.1569,8.1224,8.1224,8.0718,8.0063,0.0,0.0,0.0,0.0,0.0,0.0,0.0,4.3957,4.5963,4.7107,4.7939,4.7824,4.6248,4.536,4.3931,0.0,0.0,0.0,0.0,0.0,0.0,0.0,0.0,0.0,4.2029,0.0,0.0,4.3249,4.3433,0.0,0.0,0.0,0.0,0.0,4.3506,4.3506,4.3506,4.3506,4.3506,0.0,0.0,4.3506,4.3506,0.0,0.0,0.0,0.0,4.4424,4.5993,4.8279,5.0986,5.4252,5.938,6.3723,6.7444,7.0036,7.2371,7.439,7.5542,7.5726,7.5065,7.2789,6.9082,6.4494,5.8767,5.3745,4.9309,4.6032,4.4049,4.3073,4.3725,4.5671,4.8051,5.0778,5.5491,5.9877,6.2896,6.7741,7.1471,7.2727,7.4608,7.5898,7.6199,7.616,7.6192,7.6402,7.6668,7.6987,7.7442,7.8615,7.9649,8.058,8.1201,8.1638,8.181,8.181,8.181,8.181,8.181,8.181,8.181,8.181,8.181,8.181,8.181,8.181,8.181,8.181,8.181,8.181,8.181,8.181,8.181,8.181,8.1397,8.0856,0.0,0.0,0.0,0.0,0.0,0.0,0.0,4.4804,4.7181,4.9476,5.0516,5.0665,4.9648,4.6769,4.4189,0.0,0.0,0.0,0.0,0.0,0.0,0.0,0.0,0.0,0.0,0.0,0.0,4.2396,4.3139,0.0,0.0,0.0,0.0,0.0,0.0,4.3506,4.3506,4.3506,0.0,0.0,0.0,0.0,0.0,0.0,0.0,0.0,0.0,4.4048,4.5067,4.6755,4.8526,5.0629,5.4106,5.9428,6.5057,6.8201,7.0316,7.2114,7.439,7.4478,7.3523,7.1821,6.7834,6.2818,5.7127,5.25,4.847,4.5203,4.3659,4.2928,4.3,4.4377,4.5852,4.6866,5.0981,5.4875,5.7231,6.3066,6.7762,6.9444,7.2817,7.5107,7.539,7.5831,7.6122,7.6145,7.6553,7.7251,7.8235,7.843,7.9155,8.0545,8.0649,8.1063,8.181,8.181,8.181,8.181,8.181,8.181,8.181,8.181,8.181,8.181,8.181,8.181,0.0,8.181,8.181,8.181,8.181,8.181,8.181,8.181,8.1741,8.1707,0.0,0.0,0.0,0.0,0.0,0.0,0.0,4.4915,4.7367,4.9773,5.0859,5.1231,5.0769,4.8124,4.5306,0.0,0.0,0.0,0.0,0.0,0.0,0.0,0.0,0.0,0.0,0.0,4.1801,4.2286,4.3102,0.0,0.0,0.0,0.0,0.0,0.0,4.3506,4.3506,4.3506,0.0,0.0,0.0,0.0,0.0,0.0,0.0,0.0,0.0,0.0,4.4158,4.5287,4.6425,4.7765,5.0031,5.3188,5.7409,6.4053,6.7504,6.9779,7.2679,7.323,7.2496,7.0389,6.6573,6.1692,5.5434,5.1214,4.7611,4.4316,4.3239,4.2892,4.2892,4.3833,4.4838,4.5635,4.8872,5.209,5.4306,5.9501,6.3858,6.5986,6.9733,7.2567,7.3673,7.4659,7.5699,7.6912,7.7718,7.8259,7.8373,7.8396,7.8879,7.989,8.0373,8.1017,8.181,8.181,8.181,8.181,8.181,8.181,8.181,8.181,8.181,8.181,8.181,8.181,0.0,8.181,8.181,8.181,8.181,8.181,8.181,8.181,8.181,8.181,0.0,0.0,0.0,0.0,0.0,0.0,4.2248,4.4551,4.6995,4.9439,5.0488,5.1092,5.125,4.8973,4.6305,4.3439,0.0,0.0,0.0,0.0,0.0,0.0,0.0,0.0,0.0,0.0,4.1727,4.2286,4.3102,4.3506,0.0,0.0,4.3506,4.3506,0.0,0.0,0.0,0.0,0.0,0.0,0.0,0.0,0.0,0.0,0.0,0.0,0.0,0.0,0.0,0.0,0.0,4.5443,4.6792,4.8196,5.0949,5.9183,6.3295,6.5925,6.9449,7.055,7.022,6.8017,6.4578,6.0054,5.3719,4.9908,4.6795,4.3741,4.2994,4.2892,4.2892,4.3363,4.4015,4.4802,4.7181,4.9649,5.1874,5.6547,6.0587,6.2961,6.7231,7.0614,7.2267,7.4157,7.5977,7.7686,7.8561,7.8864,7.8603,7.8488,7.8741,7.9477,7.9994,8.0776,8.1776,8.181,8.181,8.181,8.181,8.181,8.181,8.181,8.181,8.181,8.181,8.181,0.0,8.181,8.181,8.181,8.181,8.181,8.181,8.181,8.181,8.181,0.0,0.0,0.0,0.0,0.0,0.0,0.0,4.3734,4.6186,4.8593,4.9624,5.0442,5.1305,4.9108,4.6906,4.5218,0.0,0.0,0.0,0.0,0.0,0.0,0.0,0.0,0.0,0.0,4.2286,4.2286,4.3102,4.3506,4.3506,4.3506,4.3506,4.3506,0.0,0.0,0.0,0.0,0.0,0.0,0.0,0.0,0.0,0.0,0.0,0.0,0.0,0.0,0.0,0.0,0.0,0.0,0.0,4.5296,4.7241,5.3786,5.7409,6.0187,6.4261,6.5962,6.6182,6.4543,6.163,5.7662,5.193,4.8596,4.6042,4.3613,4.2994,4.2892,4.2892,4.2892,4.3181,4.3978,4.549,4.7279,4.9441,5.4164,5.8267,6.0568,6.5739,6.977,7.1462,7.4801,7.7319,7.8298,7.8596,7.8834,7.907,7.8672,7.8741,7.9477,7.9534,8.0258,8.1776,8.181,8.181,8.181,8.181,8.181,8.181,8.181,8.181,8.181,8.181,8.181,0.0,8.181,8.181,8.181,8.181,8.181,8.181,8.181,8.181,8.181,0.0,0.0,0.0,0.0,0.0,0.0,0.0,4.2396,4.4283,4.6178,4.7627,4.8556,4.8853,4.7588,4.6054,4.4403,0.0,0.0,0.0,0.0,0.0,0.0,0.0,0.0,0.0,0.0,4.258,4.3139,4.3938,4.4599,4.5121,4.4599,4.4305,4.4305,4.3763,4.3506,0.0,0.0,0.0,0.0,0.0,0.0,4.3506,0.0,0.0,0.0,0.0,0.0,0.0,0.0,0.0,0.0,0.0,0.0,0.0,4.8059,5.1867,5.5967,6.004,6.1728,6.2071,6.1031,5.8649,5.5381,5.0759,4.7716,4.5341,4.3356,4.2947,4.2892,4.2892,4.2892,4.3117,4.3835,4.5296,4.7126,4.9243,5.3583,5.7385,5.9765,6.6133,7.1071,7.3005,7.6017,7.806,7.8562,7.9624,8.0001,7.9406,7.9247,7.9051,7.8775,7.9258,7.9982,8.0983,8.1535,8.181,8.181,8.181,8.181,8.181,8.181,8.181,8.181,8.181,8.181,8.181,8.181,8.181,8.181,8.181,8.181,8.181,8.181,8.181,8.181,0.0,0.0,0.0,0.0,0.0,0.0,0.0,4.1095,4.2515,4.422,4.5566,4.6591,4.7231,4.6479,4.551,4.4517,0.0,0.0,0.0,0.0,0.0,0.0,0.0,0.0,4.2029,4.2791,4.3461,4.3938,4.5067,4.5874,4.6361,4.5838,4.5434,4.5104,4.4305,4.38,0.0,0.0,0.0,0.0,0.0,0.0,4.3506,0.0,0.0,0.0,0.0,0.0,0.0,0.0,0.0,0.0,0.0,0.0,0.0,0.0,4.7599,5.0865,5.4939,5.6627,5.7042,5.6223,5.4569,5.2212,4.8699,4.6411,4.4631,4.321,4.2892,4.2892,4.2892,4.2892,4.3216,4.4183,4.5462,4.7252,5.002,5.3988,5.8384,6.3065,6.8335,7.2386,7.4377,7.6743,7.82,7.8271,7.9529,7.9867,7.8993,7.9017,7.8741,7.7959,7.8706,7.9442,8.0166,8.0672,8.0948,8.0948,8.1224,8.1362,8.1362,8.1672,8.181,8.181,8.181,8.181,0.0,8.181,8.181,8.181,8.181,8.181,8.181,8.181,8.181,8.181,0.0,0.0,0.0,0.0,0.0,0.0,0.0,0.0,0.0,0.0,4.3506,4.4608,4.6158,4.5677,4.522,0.0,0.0,0.0,0.0,0.0,0.0,0.0,0.0,0.0,4.3515,4.4305,4.4773,4.4883,4.6425,4.7259,4.7369,4.7223,4.6755,4.5957,4.5067,4.4268,4.3506,0.0,0.0,0.0,4.3506,4.3506,0.0,0.0,0.0,0.0,0.0,0.0,0.0,0.0,0.0,0.0,0.0,0.0,0.0,0.0,0.0,0.0,0.0,5.0949,5.1463,5.0729,4.9831,4.8523,4.6088,4.4826,0.0,4.3092,4.2892,4.2892,4.2892,4.2964,4.3433,4.4859,4.5848,4.7734,5.1429,5.5468,6.1076,6.9241,7.1761,7.3623,7.56,7.7091,7.7868,7.7658,7.8541,7.8795,7.8063,7.8259,7.8028,7.7235,7.7925,7.8672,7.9431,7.9477,7.9477,7.9534,8.0201,8.0545,8.0614,8.1397,8.1741,0.0,8.181,8.181,8.181,8.181,8.181,8.181,8.181,8.181,8.181,8.181,8.181,8.181,0.0,0.0,0.0,0.0,0.0,0.0,0.0,0.0,0.0,0.0,4.2386,4.3342,4.3722,4.4099,0.0,0.0,0.0,0.0,0.0,0.0,0.0,0.0,0.0,0.0,4.3592,4.4295,4.5278,4.6526,4.7526,4.8663,4.9911,4.8627,4.7599,4.6755,4.5324,4.4268,4.3506,4.3506,0.0,0.0,4.3506,4.3506,0.0,0.0,0.0,0.0,4.3506,4.3506,0.0,0.0,0.0,0.0,0.0,0.0,0.0,0.0,4.38,4.3983,4.4938,0.0,4.8223,4.8039,4.7303,4.6302,0.0,4.4015,4.3294,4.2983,4.2892,4.2892,4.2892,4.3399,4.4091,4.4875,4.6694,4.9039,5.2034,5.8686,6.526,7.0691,7.3078,7.4886,7.6301,7.7542,7.819,7.8133,7.8717,7.8889,7.8316,7.835,7.8028,7.7235,7.7373,7.7856,7.8672,7.9201,7.9477,7.9477,7.9683,8.0028,8.0614,8.0787,8.1224,8.181,8.181,8.181,8.181,8.181,8.181,8.181,8.181,8.181,8.181,8.181,8.181,8.181,0.0,0.0,0.0,0.0,0.0,0.0,0.0,0.0,0.0,0.0,0.0,0.0,0.0,0.0,0.0,0.0,0.0,0.0,0.0,0.0,0.0,0.0,0.0,4.3659,4.3617,4.4671,4.57,4.6535,4.848,5.0105,5.1316,5.0435,4.9591,4.8663,4.5948,4.4268,4.3506,4.3506,4.3506,4.3506,4.3506,0.0,0.0,0.0,0.0,0.0,4.3506,4.3506,0.0,4.3506,4.3506,4.3506,0.0,0.0,0.0,0.0,4.3506,4.3579,4.3938,4.4745,4.5434,4.5434,4.5077,4.461,4.4044,4.3534,4.3105,4.3012,4.2956,4.3,4.3363,4.4123,4.5084,4.6406,4.858,5.1835,5.678,6.3123,6.8682,7.2559,7.498,7.6643,7.7468,7.7976,7.8155,7.7989,7.8121,7.8133,7.7856,7.7534,7.7304,7.7201,7.6856,7.7063,7.7821,7.8235,7.8442,7.8442,7.8821,7.9201,7.958,7.9925,8.0327,8.0776,8.1121,8.1259,8.1293,8.1638,8.181,8.181,8.181,8.181,8.181,8.181,8.181,8.181,0.0,0.0,0.0,0.0,0.0,0.0,0.0,0.0,0.0,0.0,0.0,0.0,0.0,0.0,0.0,0.0,0.0,0.0,0.0,0.0,0.0,0.0,4.3861,4.3816,4.3843,4.5348,4.6287,4.6682,4.9684,5.1667,5.2538,5.2317,5.1499,5.0058,4.6351,4.4268,4.3506,4.3506,4.3506,4.3506,4.3506,0.0,0.0,0.0,0.0,0.0,0.0,0.0,0.0,4.3506,4.3506,4.3506,4.3506,0.0,0.0,0.0,0.0,0.0,4.4333,4.4121,4.3726,4.3836,4.3763,4.3664,4.3604,4.3405,4.3233,4.3268,4.3184,4.3382,4.4304,4.5236,4.6556,4.8686,5.1442,5.5728,6.2706,6.7386,7.123,7.4416,7.6792,7.8281,7.8649,7.8371,7.7996,7.7528,7.7184,7.6994,7.6856,7.627,7.6201,7.6822,7.6235,7.6201,7.6856,7.7097,7.7201,7.7201,7.789,7.8292,7.843,7.9051,7.9396,7.9511,8.0166,0.0,8.0476,8.1293,8.1638,8.1638,8.1741,8.181,8.181,8.181,8.181,8.181,0.0,0.0,0.0,0.0,0.0,0.0,0.0,0.0,0.0,0.0,0.0,0.0,0.0,0.0,0.0,0.0,0.0,0.0,0.0,0.0,0.0,4.4,4.3921,4.4198,4.4848,4.6398,4.8145,5.0149,5.1989,5.365,5.5034,5.3665,5.1086,4.759,4.5581,4.4268,4.3506,4.3506,4.3506,4.3506,4.3506,0.0,0.0,0.0,0.0,0.0,0.0,0.0,0.0,4.3506,4.3506,4.3506,4.3506,0.0,0.0,0.0,0.0,0.0,4.3653,4.4085,4.4663,4.5369,4.5039,4.4499,4.4437,4.3861,4.3515,4.4024,4.4086,4.4483,4.5872,4.7363,4.905,5.1131,5.5864,6.0828,6.5282,6.8805,7.2081,7.525,7.7247,7.856,7.9059,7.8539,7.7851,7.7002,7.6534,7.596,7.5304,7.5167,7.5132,7.527,7.5132,7.5132,7.527,7.6546,7.7201,7.7201,7.7339,7.7718,7.8396,7.8534,7.8913,7.9534,0.0,7.9649,7.9741,8.0476,8.0787,8.0856,8.1535,8.181,8.181,8.181,8.181,8.181,0.0,0.0,0.0,0.0,0.0,0.0,0.0,0.0,0.0,0.0,0.0,0.0,0.0,0.0,0.0,0.0,0.0,0.0,0.0,0.0,4.4209,4.4692,4.5106,4.5428,4.5749,4.7736,4.9704,5.1649,5.3691,5.5469,5.696,5.4836,5.194,4.8343,4.6287,4.4672,4.3506,4.3506,4.3506,4.3506,0.0,0.0,0.0,0.0,0.0,0.0,0.0,0.0,0.0,0.0,4.3506,4.3506,4.3506,0.0,0.0,0.0,0.0,0.0,4.4011,4.4745,4.5544,4.6351,4.5948,4.5351,4.5315,4.5306,4.5434,4.5715,4.6001,4.6702,4.8275,4.9807,5.2375,5.7028,6.1652,6.5671,6.8695,7.18,7.4339,7.5776,7.7511,7.8381,7.8012,7.7454,7.6824,7.6195,7.5725,7.5304,7.4925,7.4511,7.4477,7.4891,7.4511,7.4477,7.4925,7.5615,7.6166,7.6615,7.6615,7.6994,7.7753,7.7753,7.7925,7.827,0.0,7.8913,7.8982,7.9683,8.0235,8.0649,8.1017,8.1431,8.1845,8.2259,8.2155,8.1845,0.0,0.0,0.0,0.0,0.0,0.0,0.0,0.0,0.0,0.0,0.0,0.0,0.0,0.0,0.0,0.0,0.0,0.0,0.0,0.0,4.4426,4.5289,4.6309,4.6975,4.7191,4.976,5.198,5.3763,5.6113,5.7575,5.8097,5.5581,5.2564,4.9197,4.692,4.5011,4.3506,4.3506,4.3506,4.3506,0.0,0.0,0.0,0.0,0.0,0.0,0.0,0.0,0.0,0.0,0.0,0.0,0.0,0.0,0.0,4.3506,4.3506,4.3616,4.4268,4.5002,4.581,4.6608,4.6645,4.6507,4.6691,4.7341,4.798,4.8317,4.8918,4.9851,5.1457,5.3527,5.6955,6.289,6.6753,6.9799,7.205,7.4597,7.6307,7.6486,7.7725,7.8167,7.714,7.6638,7.6091,7.5478,7.4959,7.4624,7.4408,7.3843,7.3774,7.4373,7.3843,7.3809,7.4373,7.4373,7.4856,7.5822,7.5822,7.6201,7.6925,7.6925,7.7028,7.7235,7.7856,7.812,7.8189,7.8948,7.9603,8.0097,8.0476,8.1224,8.2121,8.2707,8.2673,8.2397,0.0,0.0,0.0,0.0,0.0,0.0,0.0,0.0,0.0,0.0,0.0,0.0,0.0,0.0,0.0,0.0,0.0,0.0,0.0,0.0,4.4556,4.5368,4.6983,4.851,4.981,5.2995,5.5758,5.8063,6.0384,6.0335,5.7971,5.5537,5.2234,4.8306,4.6654,4.5011,4.3506,4.3506,4.3506,4.3506,4.3506,0.0,0.0,0.0,0.0,0.0,0.0,0.0,0.0,0.0,0.0,0.0,0.0,0.0,4.3506,4.3506,4.3506,4.3506,4.3579,4.4158,4.4993,4.5773,4.7058,4.8306,4.9077,4.9921,5.0908,5.227,5.32,5.4228,5.5758,5.953,6.3529,6.6822,6.9744,7.2469,7.4887,7.6051,7.6911,7.7609,7.7971,7.7952,7.7506,7.7069,7.6296,7.4971,7.4413,7.378,7.2899,7.2795,7.2795,7.2864,7.2795,7.2795,7.2864,7.2864,7.3567,7.4994,7.4994,7.5408,7.6166,7.6166,7.6546,7.7201,7.727,7.727,7.7339,7.8154,7.8499,7.8706,8.0063,8.1511,8.2845,8.288,8.3328,8.3855,0.0,0.0,0.0,0.0,0.0,0.0,0.0,0.0,0.0,0.0,0.0,0.0,0.0,0.0,0.0,0.0,0.0,0.0,0.0,4.4146,4.4788,4.6084,4.7327,4.9392,5.2382,5.5181,5.7773,6.0183,6.1883,6.1367,5.8682,5.5757,5.2784,4.9764,4.7599,4.5764,4.4268,4.4268,4.3975,4.3506,4.3506,4.3506,0.0,0.0,0.0,0.0,0.0,0.0,0.0,0.0,4.3506,4.3506,4.3506,4.3506,4.3506,4.3506,4.3506,4.3506,4.3506,4.4452,4.5626,4.6461,4.8627,5.0702,5.0996,5.2858,5.4965,5.6534,5.7881,5.9042,6.004,6.2748,6.5794,6.8831,7.2201,7.4897,7.6212,7.7487,7.8026,7.7326,7.7326,7.7038,7.6135,7.5785,7.5224,7.4352,7.3996,7.353,7.2901,7.288,7.2838,7.2692,7.2692,7.2692,7.2692,7.2692,7.3002,7.3533,7.4016,7.4636,7.5339,7.5339,7.5787,7.6511,7.6511,7.6787,7.7235,7.7511,7.7948,7.8568,8.0028,8.1545,8.2983,8.3407,8.3752,8.4062,0.0,0.0,0.0,0.0,0.0,0.0,0.0,0.0,0.0,0.0,0.0,0.0,0.0,0.0,0.0,0.0,0.0,0.0,4.3994,4.4131,4.4826,4.6198,4.7158,4.928,5.2733,5.5463,5.8412,6.1585,6.2399,6.1453,5.8756,5.5526,5.2711,5.0288,4.8076,4.6205,4.47,4.47,4.4232,4.3506,4.3506,4.3506,0.0,0.0,0.0,0.0,0.0,0.0,0.0,0.0,4.3506,4.3506,4.3506,4.3506,4.3506,4.3506,4.3506,4.3506,4.3506,4.4488,4.5847,4.7159,4.9774,5.2391,5.3922,5.6381,5.8914,6.1068,6.2743,6.3972,6.4377,6.6061,6.8218,7.0739,7.4165,7.6615,7.7017,7.8279,7.8585,7.7252,7.6873,7.6355,7.5478,7.5153,7.4765,7.4132,7.3876,7.3502,7.3026,7.3005,7.2922,7.2692,7.2692,7.2692,7.2692,7.2692,7.2692,7.2692,7.3209,7.3843,7.4546,7.4546,7.5098,7.6097,7.6097,7.6511,7.7201,7.7201,7.7787,7.8844,7.9856,8.1338,8.2983,8.3466,8.3787,8.4062,0.0,0.0,0.0,0.0,0.0,0.0,0.0,0.0,0.0,0.0,0.0,0.0,0.0,0.0,0.0,0.0,0.0,0.0,4.3994,4.4184,4.4647,4.5462,4.6473,4.8047,5.033,5.3616,5.7615,6.2365,6.2103,6.0605,5.7923,5.4682,5.1893,4.949,4.7856,4.6232,4.4737,4.4737,4.4268,4.3506,4.3506,4.3506,4.3506,0.0,0.0,0.0,0.0,0.0,0.0,0.0,4.3506,4.3506,4.3506,4.3506,4.3506,4.3506,4.3506,4.3506,4.3506,4.4085,4.5287,4.7709,5.0215,5.3298,5.8132,6.0493,6.2585,6.5888,6.7834,6.888,6.8778,6.9887,7.1278,7.2777,7.5522,7.747,7.747,7.8195,7.8376,7.7579,7.6799,7.6176,7.5833,7.5639,7.5171,7.4364,7.4112,7.3697,7.3046,7.3005,7.2922,7.2692,7.2692,7.2692,7.2692,7.2692,7.2692,7.2692,7.2692,7.3071,7.3796,7.3796,7.4636,7.6063,7.6097,7.6511,7.7201,7.7201,7.8097,7.95,7.9477,8.089,8.288,8.2914,8.3362,8.3993,0.0,0.0,0.0,0.0,0.0,0.0,0.0,0.0,0.0,0.0,0.0,0.0,0.0,0.0,0.0,0.0,0.0,0.0,4.4207,4.4289,4.4647,4.5462,4.633,4.7906,5.0282,5.3395,5.6796,6.0426,5.9779,5.8367,5.6246,5.3602,5.227,5.204,5.0425,4.9114,4.8059,4.6902,4.5617,4.4305,4.3726,4.3506,4.3506,0.0,0.0,0.0,0.0,0.0,0.0,0.0,0.0,0.0,4.3506,4.3506,4.3506,4.3506,4.3506,4.3506,4.3506,4.4929,4.6975,4.9434,5.2747,5.6638,6.152,6.3906,6.6292,7.066,7.1505,7.1417,7.1374,7.1531,7.2161,7.3733,7.5495,7.6724,7.6841,7.7447,7.763,7.695,7.654,7.6227,7.5971,7.5901,7.5621,7.4968,7.4744,7.4271,7.3481,7.3279,7.3067,7.2713,7.2692,7.2692,7.2692,7.2692,7.2692,7.2692,7.2692,7.2795,7.3037,7.3037,7.3554,7.4499,7.5029,7.5718,7.6477,7.6994,7.7787,7.8775,7.9327,8.0569,8.219,8.2707,8.3362,8.3993,0.0,0.0,0.0,0.0,0.0,0.0,0.0,0.0,0.0,0.0,4.1555,4.2302,0.0,0.0,0.0,0.0,0.0,0.0,0.0,4.4318,4.4505,4.4984,4.5798,4.7357,4.9726,5.1853,5.3859,5.5744,5.6193,5.5817,5.462,5.2831,5.2417,5.3141,5.1526,5.0372,4.9454,4.7462,4.5874,4.4626,4.3836,4.3506,4.3506,0.0,0.0,0.0,0.0,0.0,0.0,0.0,0.0,0.0,4.3506,4.3506,4.3506,4.3506,4.3506,4.3579,4.391,4.5736,4.8333,5.1463,5.5233,5.9869,6.6035,6.8678,7.077,7.4001,7.4808,7.4735,7.4037,7.3976,7.4232,7.4889,7.6061,7.6858,7.668,7.7151,7.7319,7.6752,7.6462,7.6258,7.6261,7.6193,7.5917,7.5424,7.5208,7.4711,7.3885,7.3662,7.3354,7.2838,7.2901,7.2901,7.2818,7.2901,7.2901,7.2818,7.2818,7.2818,7.2818,7.2818,7.3274,7.4133,7.5064,7.5737,7.6166,7.6891,7.7649,7.843,7.8913,7.981,8.0983,8.1707,8.2269,8.2683,0.0,0.0,0.0,0.0,0.0,0.0,0.0,0.0,0.0,0.0,4.2452,4.3216,0.0,0.0,0.0,0.0,0.0,0.0,0.0,0.0,4.4318,4.4423,4.523,4.6744,4.8927,4.958,4.9871,4.9788,5.1999,5.3019,5.2957,5.2307,5.2491,5.3361,5.183,5.0692,4.9747,4.7214,4.5626,4.4737,4.3836,4.3506,4.3506,4.3506,0.0,0.0,0.0,0.0,0.0,0.0,0.0,0.0,4.3506,4.3506,4.3506,4.3506,4.3543,4.38,4.459,4.6682,4.9581,5.3628,5.7923,6.316,7.077,7.3802,7.527,7.6166,7.7488,7.8038,7.6607,7.6725,7.6836,7.6141,7.6951,7.7496,7.6911,7.7162,7.7243,7.6879,7.6508,7.6395,7.6614,7.6445,7.6121,7.5669,7.5531,7.5064,7.4168,7.4042,7.3697,7.3026,7.3211,7.3211,7.3005,7.3211,7.3211,7.3026,7.3026,7.3026,7.3067,7.3026,7.3525,7.4525,7.5689,7.611,7.6063,7.6787,7.7511,7.8223,7.8361,7.881,7.9477,8.0304,8.058,8.0718,0.0,0.0,0.0,0.0,0.0,0.0,0.0,0.0,0.0,0.0,0.0,0.0,0.0,0.0,0.0,0.0,0.0,0.0,0.0,0.0,4.4573,4.5208,4.6531,4.7743,4.8916,4.8997,4.9046,4.9028,5.0008,5.0785,5.1342,5.1793,5.3088,5.5034,5.4069,5.3188,5.2234,4.9104,4.6948,4.5516,4.4093,4.3506,4.3506,4.3506,4.3506,0.0,0.0,0.0,0.0,0.0,0.0,0.0,4.3506,4.3506,4.3506,4.3506,4.3938,4.4635,4.5406,4.8343,5.2013,5.5427,6.1728,6.8054,7.1688,7.4221,7.6276,7.7745,7.7818,7.7693,7.8002,7.7547,7.7035,7.6873,7.6842,7.6911,7.7034,7.6772,7.6693,7.6982,7.659,7.6409,7.6741,7.6627,7.6175,7.5286,7.5625,7.5191,7.3635,7.3937,7.3786,7.3026,7.3211,7.3211,7.3005,7.3211,7.3293,7.3252,7.3088,7.3191,7.3516,7.317,7.3442,7.4211,7.446,7.4796,7.5235,7.5994,7.6442,7.6718,7.7948,7.8499,7.881,8.0097,8.058,8.0718,0.0,0.0,0.0,0.0,0.0,0.0,0.0,0.0,0.0,0.0,0.0,0.0,0.0,0.0,0.0,0.0,0.0,0.0,0.0,0.0,4.4804,4.5943,4.7082,4.8073,4.889,4.8469,4.824,4.824,4.8818,4.9727,5.0862,5.2059,5.3498,5.4987,5.4179,5.3141,5.182,4.8563,4.6434,4.5223,4.3983,4.3506,4.3506,4.3506,4.3506,4.3506,4.3506,0.0,0.0,0.0,0.0,0.0,0.0,0.0,4.3506,4.3506,4.4085,4.4957,4.6131,4.9187,5.3419,5.9391,6.5228,7.011,7.2532,7.4037,7.5432,7.7047,7.8002,7.8516,7.8589,7.7814,7.7186,7.7108,7.6621,7.6448,7.7003,7.6397,7.6029,7.6476,7.5697,7.5317,7.575,7.5623,7.5382,7.4945,7.5112,7.4899,7.4119,7.4151,7.4019,7.3587,7.3702,7.3697,7.3476,7.3697,7.3737,7.3637,7.338,7.3401,7.3657,7.3637,7.3786,7.4069,7.4432,7.4566,7.458,7.5375,7.5655,7.5649,7.6822,7.7304,7.7499,7.8994,7.9545,7.9707,0.0,0.0,0.0,0.0,0.0,0.0,0.0,0.0,0.0,0.0,0.0,0.0,0.0,0.0,0.0,0.0,0.0,0.0,0.0,0.0,0.0,4.6446,4.7256,4.8073,4.889,4.819,4.7813,4.7813,4.8439,4.9591,5.1182,5.2745,5.3897,5.4583,5.3765,5.2517,5.0802,4.7498,4.5626,4.481,4.3873,4.3506,4.3506,4.3506,4.3506,4.3506,4.3506,4.3506,4.3506,4.3506,0.0,0.0,0.0,0.0,4.3506,4.3506,4.4085,4.5067,4.6672,5.0021,5.4997,6.3062,6.7504,7.0477,7.2753,7.3487,7.4089,7.5395,7.7414,7.8788,7.8259,7.7472,7.6839,7.6721,7.6141,7.5906,7.6549,7.5805,7.5289,7.5603,7.4627,7.4115,7.4632,7.4524,7.442,7.4495,7.4482,7.4424,7.441,7.4361,7.4225,7.4085,7.4155,7.4095,7.3897,7.4075,7.4095,7.3956,7.381,7.3782,7.3766,7.4271,7.4325,7.4104,7.4682,7.4566,7.4017,7.4793,7.4934,7.4787,7.5624,7.6026,7.6336,7.7784,7.8383,7.8648,0.0,0.0,0.0,0.0,0.0,0.0,0.0,0.0,0.0,0.0,4.5451,4.5541,0.0,0.0,0.0,0.0,0.0,0.0,0.0,0.0,0.0,4.6446,4.7256,4.8073,4.889,4.8799,4.8724,4.8724,4.9453,5.061,5.2139,5.3587,5.4678,5.5401,5.4583,5.3335,5.162,4.8333,4.6461,4.5626,4.4093,4.3506,4.3506,4.3506,4.3506,4.3506,4.3506,4.3506,4.3506,4.3506,4.3506,0.0,0.0,0.0,4.3506,4.3506,4.4085,4.5067,4.6672,5.204,5.8327,6.3062,6.6696,6.9522,7.1233,7.2716,7.3758,7.3979,7.4845,7.5711,7.6313,7.5763,7.5189,7.5037,7.4949,7.4851,7.4764,7.4524,7.4404,7.4572,7.4183,7.4115,7.4632,7.4524,7.4201,7.3711,7.4296,7.4139,7.2947,7.4035,7.4383,7.3683,7.3736,7.3678,7.3489,7.3678,7.3771,7.3734,7.4237,7.4425,7.4408,7.4989,7.4896,7.4248,7.4319,7.3981,7.3461,7.4003,7.416,7.4037,7.5025,7.5803,7.6496,7.758,7.8244,7.8863,0.0,0.0,0.0,0.0,0.0,0.0,0.0,0.0,0.0,0.0,0.0,4.5568,0.0,0.0,0.0,0.0,0.0,0.0,0.0,0.0,0.0,4.5815,4.7033,4.7887,4.8221,4.8667,4.8864,4.8849,5.0472,5.2067,5.357,5.596,5.6565,5.5585,5.5218,5.3676,5.1169,4.8773,4.6792,4.5186,4.4452,4.3901,4.3506,4.3506,4.3506,4.3506,4.3506,4.3506,4.3506,4.3506,4.3506,4.3506,4.3506,0.0,0.0,0.0,4.4085,4.525,4.7792,5.2491,5.7531,6.1117,6.4824,6.7981,6.9582,7.1197,7.2349,7.2349,7.301,7.3949,7.5212,7.4771,7.4279,7.4513,7.429,7.4159,7.428,7.3999,7.3759,7.3629,7.3151,7.2761,7.2552,7.2546,7.2291,7.1647,7.2358,7.2687,7.2443,7.3363,7.3826,7.3596,7.351,7.3422,7.3333,7.3422,7.3636,7.3994,7.4151,7.4506,7.5026,7.5513,7.546,7.4987,7.4897,7.4484,7.3801,7.381,7.3684,7.358,7.4322,7.4905,7.5483,7.6806,7.7324,7.7626,0.0,0.0,0.0,0.0,0.0,0.0,0.0,0.0,0.0,0.0,0.0,0.0,0.0,0.0,0.0,0.0,0.0,0.0,0.0,0.0,0.0,4.5295,4.6661,4.7478,4.7701,4.8481,4.8884,4.8796,5.0933,5.2847,5.4575,5.7517,5.8143,5.6796,5.6393,5.4557,5.161,4.9738,4.7636,4.5581,4.5397,4.47,4.3791,4.3791,4.369,4.3506,4.3506,4.3506,0.0,4.3506,4.3506,4.3506,4.3506,4.3506,0.0,0.0,0.0,4.5287,4.7948,5.1473,5.5097,5.8107,6.1924,6.5448,6.7247,6.9082,7.0426,7.0646,7.1321,7.2275,7.3435,7.3523,7.3509,7.3809,7.3603,7.345,7.3629,7.3216,7.278,7.247,7.1818,7.1164,7.0624,7.069,7.06,7.0146,7.066,7.1287,7.2014,7.2619,7.313,7.3497,7.3333,7.3197,7.3197,7.3197,7.3509,7.4093,7.4205,7.4636,7.5332,7.5929,7.6055,7.5832,7.5655,7.51,7.4373,7.3944,7.3642,7.3511,7.3967,7.4397,7.4986,7.6376,7.6824,7.6932,0.0,0.0,0.0,0.0,0.0,0.0,0.0,0.0,0.0,0.0,0.0,0.0,4.5514,4.5438,4.5346,4.5213,0.0,0.0,0.0,0.0,0.0,4.5257,4.6104,0.0,4.7664,4.8481,4.8884,4.8796,5.0388,5.2304,5.4538,5.694,5.8804,6.0089,5.8547,5.6492,5.4069,5.1683,4.9691,4.8039,4.7259,4.6049,4.4626,4.4626,4.4158,4.3506,4.3506,0.0,0.0,0.0,0.0,0.0,4.3506,4.3506,4.3506,0.0,0.0,0.0,4.5847,4.8526,5.1646,5.4106,5.774,6.1374,6.3796,6.6195,6.8104,6.8862,6.9669,7.0257,7.033,7.1578,7.2511,7.2438,7.2504,7.2453,7.2142,7.1611,7.1143,7.093,7.0208,6.977,6.9943,6.9958,6.9992,7.011,7.0146,7.0513,7.1293,7.1977,7.2619,7.3202,7.3083,7.2989,7.2917,7.2917,7.3221,7.3819,7.4652,7.505,7.505,7.6227,7.6737,7.6705,7.6191,7.562,7.5009,7.4411,7.4061,7.39,7.4116,7.4768,7.5758,7.6802,7.7386,7.7811,0.0,0.0,0.0,0.0,0.0,0.0,0.0,0.0,0.0,0.0,0.0,0.0,0.0,4.5324,4.5219,4.5033,4.4699,0.0,0.0,0.0,0.0,4.5257,4.6067,4.6884,4.7664,4.8481,4.8812,4.8669,5.0831,5.2485,5.3744,5.7164,5.9086,5.96,5.9013,5.7728,5.5783,5.3361,5.1379,4.9801,4.8406,4.7232,4.6168,4.5654,4.5296,0.0,0.0,0.0,0.0,0.0,0.0,0.0,0.0,0.0,4.3506,4.3506,4.369,4.4121,4.492,4.7122,4.9664,5.161,5.5097,5.8572,6.0517,6.3246,6.5608,6.6426,6.765,6.8728,6.9229,7.022,7.1095,7.1487,7.1221,7.1024,7.1193,7.0785,7.033,7.0069,6.9959,6.9707,6.9116,6.9164,6.9064,6.8568,6.9045,6.9449,6.9729,7.0494,7.1201,7.183,7.1822,7.2011,7.2522,7.2522,7.2893,7.3634,7.4326,7.4981,7.5603,7.6548,7.7061,7.7103,7.6817,7.6326,7.5637,7.5172,7.486,7.4673,7.4731,7.5076,7.567,7.7065,7.7385,7.7318,0.0,0.0,0.0,0.0,0.0,0.0,0.0,0.0,0.0,4.5267,0.0,0.0,0.0,0.0,4.5846,4.5627,4.5301,4.5081,4.5058,4.492,4.5101,4.5658,4.6475,4.7144,4.7701,4.8456,4.8767,4.8615,5.0478,5.1882,5.2847,5.6077,5.7875,5.8389,5.8389,5.7802,5.6701,5.5086,5.3177,5.1132,5.0278,4.914,4.7902,4.7352,0.0,0.0,0.0,0.0,0.0,0.0,0.0,0.0,0.0,0.0,0.0,0.0,4.3506,4.3616,4.4158,4.5847,4.7829,4.9214,5.2186,5.5196,5.6811,5.9501,6.1961,6.3013,6.4751,6.6292,6.7136,6.7944,6.8981,7.0519,7.037,7.0223,7.0522,7.0057,6.9623,6.9374,6.9068,6.8637,6.7941,6.7766,6.7467,6.6916,6.765,6.8201,6.8495,6.9265,7.0031,7.0724,7.0761,7.1164,7.197,7.197,7.2373,7.3178,7.3842,7.4501,7.5193,7.6255,7.6793,7.6922,7.7071,7.6817,7.6242,7.5847,7.5602,7.5496,7.5478,7.562,7.5993,7.7595,7.779,7.7481,0.0,0.0,0.0,0.0,0.0,0.0,0.0,0.0,4.4784,4.5714,0.0,0.0,0.0,0.0,0.0,4.7071,4.6862,4.6693,4.6613,4.6525,4.6513,4.6513,0.0,0.0,4.7738,4.8432,4.8714,4.8615,4.9324,5.0461,5.195,5.3592,5.5207,5.6701,5.6737,5.6737,5.6737,5.6737,5.495,5.2171,5.2931,5.183,4.9757,0.0,0.0,0.0,4.8443,4.7929,0.0,4.7223,0.0,0.0,0.0,0.0,0.0,0.0,0.0,0.0,0.0,0.0,0.0,4.6892,4.8957,5.1169,5.2737,5.4976,5.7141,5.8719,6.0958,6.2903,6.3796,6.464,6.6206,6.9412,6.9926,6.9963,7.0,6.9302,6.8775,6.8775,6.743,6.6476,6.6476,6.5778,6.5288,6.5288,6.6035,6.6806,6.7627,6.8458,6.9265,7.0036,7.0073,7.0477,7.1307,7.1307,7.1711,7.2496,7.3303,7.3722,7.3758,7.5359,7.6093,7.613,7.6959,7.7103,7.6785,7.6406,7.6256,7.6292,7.6256,7.6409,7.6796,7.8358,7.8681,7.8441,0.0,0.0,0.0,0.0,0.0,0.0,4.526,4.5709,4.6165,0.0,0.0,0.0,4.7812,4.8475,4.8604,4.7994,4.7769,4.7367,4.6693,4.6557,4.6773,4.733,4.759,4.7961,4.8556,4.8729,4.8714,4.8615,4.9324,4.9882,5.0298,5.2527,5.3765,5.4242,5.5427,5.5611,5.5097,5.5684,5.5438,5.4557,5.4216,5.3665,5.3004,0.0,0.0,0.0,0.0,5.1342,5.0655,0.0,4.9297,4.7388,0.0,0.0,0.0,0.0,0.0,0.0,4.5232,0.0,0.0,0.0,0.0,0.0,5.0482,5.2454,5.4499,5.5537,5.7178,5.9049,6.108,6.163,6.2622,6.5314,6.6256,6.6843,6.7393,6.6806,6.6279,6.6279,6.5912,6.5618,6.5618,6.5435,6.5288,6.5288,6.5508,6.5999,6.6769,6.8164,6.9009,6.9229,6.9816,7.0477,7.1307,7.1307,7.1711,7.2496,7.3303,7.3722,7.3758,7.5359,7.6093,7.613,7.6959,7.7227,7.7134,7.6929,7.6769,7.6672,7.6801,7.6918,7.7133,7.8756,7.9055,7.8899,0.0,0.0,0.0,0.0,0.0,0.0,4.6523,4.7125,4.7764,0.0,0.0,0.0,5.0471,5.1079,5.1066,5.0306,5.0069,4.9475,4.8273,4.8074,4.8073,4.8184,4.8184,4.8407,4.889,4.8767,4.8669,4.8615,4.9314,4.9622,4.9647,5.172,5.2711,5.2747,5.4032,5.4326,5.3959,5.4766,5.5108,5.5108,5.5317,5.5207,0.0,5.4363,5.4216,0.0,0.0,0.0,5.2931,5.2601,5.0618,0.0,0.0,0.0,0.0,0.0,0.0,0.0,0.0,0.0,0.0,4.7113,0.0,0.0,4.8563,4.9911,5.1379,5.2244,5.3959,5.593,5.7997,5.8657,5.96,6.1704,6.2426,6.349,6.5705,6.5582,6.5288,6.5288,6.4995,6.4787,6.4787,6.4481,6.4261,6.4261,6.4591,6.5154,6.5962,6.721,6.7907,6.7907,6.8678,6.9486,7.0279,7.061,7.1197,7.2004,7.2826,7.3193,7.323,7.4515,7.5285,7.5652,7.6445,7.6995,7.7273,7.7233,7.7103,7.7009,7.7155,7.7186,7.7369,7.9034,7.9406,7.9344,0.0,0.0,0.0,4.5708,4.7071,4.8125,4.8199,4.8905,4.9734,0.0,5.145,5.2641,5.4307,5.4503,5.4138,5.326,5.2975,5.2176,5.0546,5.0309,4.9921,4.9224,4.9187,4.9187,4.9187,4.8973,4.8873,4.8873,4.945,4.9711,4.9747,5.1289,5.1987,5.2024,5.2847,5.3214,5.3251,5.4142,5.4509,5.4656,5.6187,5.6492,0.0,0.0,5.6062,5.6136,5.6136,5.5548,5.4656,5.3544,5.1269,0.0,0.0,0.0,0.0,0.0,4.6296,0.0,0.0,0.0,0.0,0.0,4.7223,0.0,4.7113,4.7709,4.8526,4.9307,5.1242,5.3298,5.4887,5.5794,5.6811,5.8535,5.8792,6.0187,6.4187,6.4774,6.4774,6.4774,6.4127,6.3699,6.3699,6.2989,6.2572,6.2646,6.3576,6.442,6.5141,6.5999,6.6512,6.6512,6.7297,6.8104,6.8885,6.9706,7.0513,7.1307,7.2129,7.2496,7.2532,7.334,7.4147,7.494,7.5763,7.6555,7.7289,7.7289,7.7289,7.7289,7.7289,7.7289,7.7509,7.9176,7.9684,7.9743,0.0,0.0,0.0,4.7194,4.8742,5.0016,5.0686,5.1954,5.2902,5.3107,5.4445,5.5748,5.6786,5.6907,5.634,5.496,5.4186,5.3041,5.1356,5.1201,5.1082,5.0933,5.0896,5.0896,5.0896,5.0704,5.06,5.06,5.0581,5.0582,5.0582,5.1546,5.1987,5.2024,5.2847,5.3214,5.3287,5.473,5.5365,5.5438,5.6418,5.7471,5.8499,5.8499,5.8902,5.9465,5.9465,5.8547,5.6895,5.4132,5.2774,5.2003,0.0,0.0,0.0,0.0,0.0,0.0,0.0,0.0,0.0,0.0,0.0,0.0,4.7259,4.7709,4.8343,4.8526,4.9481,5.0775,5.2391,5.2831,5.3676,5.5952,5.6319,5.7483,6.0896,6.1374,6.1374,6.1374,6.1227,6.1117,6.1117,6.097,6.1153,6.1777,6.3246,6.4176,6.4323,6.5705,6.6512,6.6512,6.7297,6.8104,6.8885,6.9706,7.0513,7.1307,7.2129,7.2496,7.2532,7.334,7.4147,7.494,7.5763,7.6555,7.7289,7.7289,7.7289,7.7289,7.7289,7.7289,7.7509,7.9176,7.98,7.9957,0.0,0.0,0.0,4.8191,5.0093,5.1703,5.2512,5.4333,5.5642,5.5642,5.7472,5.9043,5.9913,5.9998,5.92,5.7156,5.6605,5.5274,5.2819,5.2624,5.2234,5.1454,5.1416,5.1352,5.1297,5.1156,5.1088,5.0993,5.1287,5.1389,5.1426,5.2234,5.2601,5.2637,5.3031,5.3434,5.3838,5.4656,5.5464,5.6271,5.7079,5.8132,5.9196,5.9196,5.971,6.0419,6.0419,5.9355,5.7703,5.5673,5.4205,0.0,0.0,5.1463,5.0729,0.0,5.0178,5.0068,0.0,0.0,0.0,4.9554,0.0,0.0,0.0,4.7709,4.7709,4.7709,4.8379,4.9344,5.0555,5.0812,5.1473,5.3492,5.3786,5.452,5.6528,5.818,5.9208,5.9208,5.9563,5.9783,5.9783,6.015,6.0566,6.097,6.2157,6.2854,6.2854,6.4433,6.5485,6.5888,6.6659,6.7504,6.8274,6.9486,7.0293,7.0734,7.1908,7.2496,7.2496,7.2936,7.378,7.4903,7.5322,7.6188,7.7289,7.7289,7.7289,7.7289,7.7289,7.7289,7.7509,7.9176,7.9816,8.0021,4.5802,0.0,0.0,4.9187,5.1305,5.3162,0.0,0.0,5.8205,5.8836,6.0635,6.222,6.3185,6.2977,6.1842,5.9552,5.9043,5.7654,0.0,0.0,0.0,5.2159,5.1936,5.1807,5.1694,5.1608,5.1502,5.1347,5.1955,5.2234,5.2244,5.2894,5.3214,5.3214,5.3361,5.3801,5.4436,5.473,5.5684,5.7116,5.7923,5.8719,5.9453,5.96,6.015,6.086,6.0676,5.9685,5.8327,5.7373,5.5636,5.3875,5.3691,5.2674,0.0,0.0,0.0,0.0,0.0,0.0,0.0,0.0,0.0,4.8737,0.0,0.0,0.0,4.7369,4.7856,4.8526,4.9233,4.9344,4.9821,5.1289,5.1546,5.184,5.2627,5.4987,5.6712,5.7042,5.7802,5.8279,5.8279,5.9123,5.9758,5.9942,6.0676,6.119,6.1374,6.2952,6.4163,6.4811,6.5925,6.6806,6.748,6.9242,7.011,7.011,7.1725,7.2496,7.2496,7.2496,7.3377,7.4903,7.4903,7.5821,7.7289,7.7289,7.7289,7.7289,7.7289,7.7289,7.7509,7.9176,7.9816,8.0036,4.7421,4.7553,0.0,0.0,5.2531,5.4193,0.0,0.0,6.0656,6.359,6.4119,6.4827,6.6395,6.5126,6.3502,6.1777,0.0,0.0,5.7021,0.0,0.0,0.0,0.0,0.0,5.3407,5.3282,5.3172,5.3013,5.3046,5.3067,5.3067,5.3177,5.3214,5.3214,5.3959,5.4326,5.4509,5.5941,5.7042,5.7923,5.8756,5.9563,0.0,6.1043,6.1814,6.2426,6.1704,6.0896,5.9905,0.0,5.7226,5.626,0.0,5.4693,5.3849,5.3141,0.0,0.0,0.0,0.0,0.0,0.0,5.0655,0.0,0.0,0.0,4.9087,4.8306,0.0,4.8333,4.8416,0.0,0.0,4.9721,4.9867,5.0151,5.0949,5.1389,5.216,5.3581,5.4462,5.495,5.495,5.6334,5.7508,5.8217,5.9013,5.9783,6.0493,6.2059,6.2976,6.3086,6.5301,6.6549,6.6623,6.8935,7.011,7.011,7.1725,7.2496,7.2496,7.2496,7.3377,7.4903,7.4903,7.5821,7.7289,7.7289,7.7289,7.7289,7.7289,7.7289,7.7509,7.9176,7.9816,8.0036,4.7784,4.8073,0.0,0.0,5.2345,5.3831,0.0,0.0,6.2379,6.5618,6.6359,6.7246,6.8897,6.8402,6.7293,0.0,0.0,6.2045,0.0,0.0,0.0,0.0,0.0,0.0,0.0,5.4869,0.0,5.4621,5.4604,5.4583,5.4583,5.4583,5.4583,5.462,5.4961,5.5611,5.6528,5.7226,5.851,6.0162,6.0958,6.1802,0.0,6.1851,6.2108,6.2683,6.1887,6.1374,6.0933,0.0,5.8547,0.0,0.0,0.0,0.0,0.0,0.0,0.0,0.0,0.0,0.0,0.0,0.0,0.0,5.1179,0.0,5.0178,0.0,0.0,0.0,0.0,0.0,0.0,0.0,4.8857,4.8967,4.9287,4.9361,4.9948,5.1599,5.2527,5.3188,5.3654,5.4315,5.5049,5.5868,5.6675,5.7666,5.8951,6.0517,6.1838,6.2756,6.4738,6.6035,6.6512,6.8421,6.9633,7.011,7.1248,7.2041,7.2496,7.2496,7.312,7.4221,7.4683,7.5527,7.6628,7.7105,7.7289,7.7289,7.7289,7.7289,7.7509,7.9176,7.9816,8.0036,4.8519,0.0,0.0,0.0,5.2057,5.3588,5.6712,6.0407,6.3943,6.7122,6.8622,7.0059,7.1927,7.207,7.1379,0.0,6.8138,6.589,0.0,0.0,5.8943,0.0,0.0,0.0,0.0,0.0,0.0,5.5585,5.5585,5.5585,5.5585,5.5585,5.5585,5.5622,5.6062,5.7042,5.8364,5.8804,6.0272,6.234,6.2915,6.3686,6.431,6.3062,6.2842,6.3086,6.2475,6.201,6.152,6.0933,5.9795,0.0,5.8657,0.0,0.0,0.0,0.0,0.0,5.5658,0.0,0.0,0.0,0.0,0.0,0.0,0.0,0.0,0.0,0.0,0.0,0.0,0.0,0.0,0.0,0.0,4.8296,4.8296,4.8296,4.8737,4.9958,5.0839,5.1646,5.2443,5.2553,5.2894,5.3665,5.4473,5.5548,5.6932,5.8767,6.037,6.1765,6.3637,6.5105,6.6145,6.776,6.9082,7.011,7.0903,7.1711,7.2496,7.2496,7.2936,7.3744,7.4551,7.5359,7.6166,7.6959,7.7289,7.7289,7.7289,7.7289,7.7472,7.8919,7.9596,8.0,5.0116,4.9447,0.0,5.1119,5.1955,5.3997,5.8758,6.2246,6.5521,6.8796,7.1185,7.3482,7.5949,7.6051,7.5264,0.0,0.0,7.0002,6.69,0.0,6.1786,0.0,0.0,5.7207,0.0,0.0,0.0,0.0,5.5585,5.5585,5.5585,5.5585,5.5585,5.5658,5.7237,5.84,5.9269,6.0823,6.2487,6.4029,6.4066,6.453,6.5251,0.0,6.4714,6.4066,6.4029,0.0,0.0,6.1569,6.1006,0.0,0.0,0.0,0.0,0.0,0.0,0.0,0.0,0.0,0.0,5.5585,0.0,0.0,0.0,0.0,5.173,0.0,0.0,0.0,0.0,0.0,0.0,0.0,0.0,0.0,0.0,4.8296,4.8333,4.837,4.916,5.0004,5.0802,5.0875,5.1206,5.2024,5.2821,5.3654,5.4473,5.6785,5.8474,5.9306,6.1618,6.3673,6.5325,6.6916,6.8545,7.011,7.0903,7.1711,7.2496,7.2496,7.2936,7.3744,7.4551,7.5359,7.6166,7.6959,7.7289,7.7289,7.7289,7.7289,7.7399,7.8295,7.914,7.9926,0.0,0.0,0.0,5.1853,5.2665,5.4726,5.9536,6.3456,6.6992,7.0211,7.3147,7.6095,7.9108,7.9869,7.991,7.936,0.0,7.4044,7.0946,6.7204,0.0,0.0,0.0,6.0259,0.0,0.0,0.0,0.0,0.0,5.7189,5.7189,5.7189,5.7483,5.8022,5.8535,5.982,6.1655,6.2768,6.4506,6.6599,6.765,6.8238,6.8238,0.0,6.4787,6.4103,6.4103,6.3356,0.0,6.3062,6.2695,6.2095,6.2658,6.1887,6.075,6.0456,5.9795,0.0,0.0,0.0,5.851,5.7446,0.0,0.0,0.0,0.0,0.0,0.0,0.0,0.0,0.0,0.0,0.0,0.0,0.0,0.0,0.0,4.8296,4.8296,4.8296,4.8563,4.8857,4.9114,4.915,4.9517,5.0335,5.0618,5.1573,5.3508,5.539,5.7262,5.9159,6.1545,6.36,6.5288,6.6366,6.7724,6.9339,7.011,7.0917,7.1711,7.2275,7.2642,7.2973,7.4316,7.505,7.5417,7.6738,7.7289,7.7362,7.7949,7.8148,7.8222,7.8479,7.9103,8.0,5.162,5.1996,5.2306,5.2367,5.3692,5.617,6.0329,6.4645,6.876,7.2532,7.635,7.9837,8.281,8.4132,8.4535,8.3948,8.1452,7.8599,7.5515,7.1724,0.0,6.7478,6.5188,0.0,0.0,0.0,0.0,0.0,0.0,5.8437,5.8437,5.8143,5.8437,5.9196,5.949,6.0994,6.3356,6.4457,6.6182,6.8238,0.0,7.011,0.0,0.0,6.6072,6.5314,0.0,6.398,6.3356,6.3919,6.3723,6.3429,6.4273,6.3796,6.2842,6.2548,6.2108,6.1594,6.1006,6.0823,0.0,5.9171,5.8437,0.0,5.6686,0.0,0.0,0.0,0.0,0.0,0.0,0.0,0.0,0.0,0.0,0.0,0.0,4.8296,4.8296,4.8296,4.8296,4.8296,4.8296,4.8296,4.8526,4.9087,4.938,5.0362,5.226,5.4142,5.6271,5.8682,6.0848,6.3013,6.5288,6.5815,6.7026,6.8898,6.9706,7.0513,7.1344,7.2114,7.2496,7.2606,7.4206,7.4903,7.5014,7.6628,7.7289,7.7399,7.8259,7.8589,7.8626,7.8919,7.9543,8.0424,5.249,5.3662,5.426,5.2924,5.5175,5.8232,6.1361,6.5962,7.0807,7.5616,8.0445,8.4372,8.6794,8.8482,8.8849,8.7308,8.5673,8.3427,8.0409,7.7134,0.0,0.0,6.9891,6.7726,6.6905,0.0,0.0,0.0,0.0,5.9196,5.9196,5.84,5.8437,5.9306,6.004,6.1814,6.4249,6.5888,6.754,6.9142,6.9926,7.0183,7.0073,6.9265,6.8458,6.7554,6.5925,6.4861,6.4176,6.4213,6.4213,6.436,6.5191,6.5398,6.5215,6.442,6.4213,6.3809,6.2218,6.1741,6.152,6.0713,5.9355,0.0,0.0,0.0,5.5768,0.0,0.0,0.0,0.0,0.0,0.0,0.0,0.0,0.0,0.0,0.0,4.8343,4.8296,4.8296,4.8296,4.8296,4.8296,4.8296,4.8296,4.9087,4.9894,0.0,5.3041,5.5464,5.7923,5.9612,6.2034,6.5251,6.5325,6.6536,6.8862,6.9669,7.0477,7.127,7.2078,7.2459,7.2606,7.4206,7.4903,7.5014,7.6628,7.7326,7.7436,7.8332,7.8699,7.8883,7.9596,8.0351,8.1122,5.3953,5.5679,5.7356,5.8187,5.8972,6.0822,6.4653,6.8862,7.312,7.7414,8.1672,8.5233,8.7619,8.9344,9.0152,8.9693,8.7655,0.0,0.0,0.0,0.0,7.622,7.3031,7.068,6.9247,6.6232,0.0,6.2499,0.0,0.0,5.9196,5.84,5.8767,6.0114,6.0297,6.2108,6.5118,6.6696,6.9009,7.1578,7.1798,7.1541,7.0903,0.0,6.9302,6.8385,6.6769,6.5668,6.5081,6.5668,6.5888,6.5999,6.6819,6.6659,6.6145,6.5925,6.5448,6.4897,6.4457,6.3906,6.3258,6.2389,6.141,6.0529,0.0,0.0,0.0,0.0,0.0,0.0,0.0,0.0,0.0,0.0,0.0,0.0,0.0,0.0,0.0,4.8379,4.8296,4.8296,4.8296,4.8296,4.8296,4.8296,4.8526,4.926,5.0729,5.2517,5.4876,5.7886,6.0126,6.2585,6.5251,6.5888,6.6806,6.8031,6.8825,6.9633,7.044,7.1233,7.1931,7.2606,7.4206,7.4903,7.5014,7.6628,7.7693,7.8369,7.9192,8.022,8.1232,8.0828,8.0828,8.1122,5.5527,5.7452,5.9905,6.2585,6.3649,6.5007,6.765,7.1798,7.6078,8.0167,8.4205,8.7344,8.905,9.0702,9.1546,9.1179,8.9564,0.0,8.6757,0.0,0.0,8.0005,7.7231,7.4588,7.2239,6.9398,0.0,6.3894,0.0,5.9893,5.9196,5.84,5.8841,6.0419,6.0419,6.2205,6.5435,6.776,7.0,7.2004,7.2349,7.2239,0.0,7.055,6.9816,6.9229,6.7577,6.6512,6.5888,6.6366,6.6512,6.6623,6.7444,6.7407,6.704,6.704,6.6696,6.6256,6.5925,6.5485,6.4861,6.3686,6.2732,6.1924,6.1117,6.004,5.9196,0.0,5.7545,5.6025,0.0,0.0,0.0,0.0,0.0,0.0,0.0,0.0,0.0,0.0,4.9077,4.8866,4.8866,4.8526,4.8296,4.8296,4.8296,4.904,0.0,5.2333,5.4682,5.7886,6.0346,6.2805,6.5288,6.6109,6.688,6.77,6.8531,6.9339,7.011,7.094,7.1931,7.3083,7.4353,7.5087,7.5542,7.6775,7.7803,7.8699,7.9874,8.1085,8.2113,8.1305,8.1012,8.1048,5.774,5.9682,6.2438,6.6439,6.8641,7.022,7.1358,7.4992,7.905,8.3051,8.6867,8.9546,9.0354,9.195,9.2611,9.1877,9.1069,9.028,8.9583,8.7288,8.5343,8.3931,8.1452,7.8589,7.527,7.2738,0.0,0.0,0.0,6.0786,5.9196,5.84,5.8841,6.0419,6.0419,6.2279,6.5655,6.8678,7.0477,7.138,7.2202,7.2459,7.2202,7.066,7.0036,6.9743,6.8251,6.726,6.6659,6.6659,6.6659,6.6769,6.748,6.77,6.77,6.77,6.77,6.7554,6.6843,6.6586,6.6145,6.4763,6.3686,6.2793,6.2071,6.0676,5.949,5.938,5.8095,5.6712,0.0,0.0,0.0,0.0,0.0,0.0,0.0,0.0,0.0,0.0,0.0,0.0,4.9747,4.8857,4.8296,4.8296,4.8296,4.904,0.0,0.0,5.4682,5.7886,6.0419,6.2915,6.5288,6.6219,6.699,6.77,6.8421,6.9229,7.011,7.083,7.2092,7.3744,7.4551,7.5359,7.6166,7.6959,7.7876,7.8919,8.0424,8.1489,8.2113,8.1305,8.1012,8.1012,6.2438,6.4249,6.6476,6.9876,7.2899,7.5799,7.8662,7.925,8.0571,8.3948,8.6738,8.872,8.951,9.1069,9.195,9.1803,9.1069,0.0,0.0,0.0,0.0,8.639,8.3434,8.0241,7.6959,7.3839,6.9986,0.0,6.2805,6.0786,5.9196,5.84,5.8841,6.0419,6.0419,6.2585,6.6402,6.8311,0.0,7.138,7.2202,7.2078,7.1417,7.0477,6.9706,6.9009,6.8031,6.7627,6.748,6.748,6.748,6.7517,6.7664,6.77,6.77,6.77,6.77,6.7664,6.7517,6.699,6.6439,6.6145,6.4971,6.3846,6.3699,6.2377,6.1006,6.0334,5.8914,5.7556,5.6748,0.0,0.0,0.0,0.0,0.0,0.0,0.0,0.0,0.0,0.0,5.0582,0.0,4.9187,4.8296,4.8296,4.8296,4.904,0.0,0.0,5.4682,0.0,6.1006,6.3453,0.0,0.0,6.7554,6.77,6.7847,6.8692,7.011,7.0257,7.1541,7.3744,7.4551,7.5359,7.6166,7.6959,7.8206,7.9669,8.0645,8.1489,8.2113,8.1305,8.1012,8.1012,6.6182,6.7907,7.0132,7.3766,7.6423,7.925,8.292,8.3875,8.4719,8.6261,8.8206,8.9601,8.9987,9.1106,9.1803,9.1803,9.1436,9.1216,9.1216,8.9748,8.85,8.7655,8.5343,0.0,7.8699,7.5432,7.1394,6.6549,6.3649,6.1178,5.9184,5.8792,5.9269,6.0456,6.1741,6.3649,0.0,0.0,0.0,7.077,7.2018,7.2275,7.1821,7.1027,7.0463,6.9986,6.8752,6.8311,6.8238,6.7847,6.77,6.77,6.77,6.77,6.77,6.77,6.77,6.77,6.77,6.7407,6.704,6.6586,6.5595,6.4604,6.4213,6.2818,6.1496,6.108,5.9758,5.8242,5.7031,5.6124,0.0,0.0,0.0,0.0,0.0,0.0,0.0,0.0,0.0,0.0,0.0,0.0,4.9407,4.9013,4.8967,4.9517,0.0,0.0,5.4252,0.0,0.0,0.0,6.5288,0.0,6.8311,6.8311,6.8765,6.9559,7.0734,7.0734,7.2055,7.4331,7.472,7.5601,7.6775,7.7619,7.8699,7.989,8.0681,8.1489,8.2113,8.1305,8.1012,8.1012,7.0073,7.16,7.3802,7.7656,7.9727,8.2129,8.5967,8.7802,8.8647,8.85,8.9711,9.0592,9.0592,9.1326,9.1803,9.1803,9.1803,9.1803,9.1803,9.1069,8.9968,8.8536,8.6738,8.4001,8.0147,7.6827,7.2716,0.0,6.4787,6.1985,5.9453,5.9453,5.9893,6.075,0.0,0.0,0.0,0.0,6.9449,7.0477,7.1908,7.2606,7.2642,7.1674,7.1307,7.1123,6.9655,6.9155,6.9045,6.8435,6.8104,6.7994,6.8178,6.8104,6.7958,6.7958,6.7847,6.77,6.77,6.77,6.7554,6.6916,6.6145,6.5338,6.453,6.3221,6.2047,6.1667,6.0309,5.8829,5.7545,5.6638,0.0,0.0,0.0,0.0,0.0,0.0,0.0,0.0,0.0,0.0,5.227,5.1683,5.0986,5.0151,4.9931,5.0225,5.1022,0.0,0.0,0.0,0.0,6.2805,6.5288,0.0,6.9009,6.9155,6.9816,7.0513,7.1307,7.1307,7.2628,7.4903,7.4903,7.5821,7.7362,7.8023,7.8919,7.9853,8.0498,8.1342,8.2113,8.1489,8.1269,8.1269,7.4955,7.6114,7.7803,8.1158,8.3067,8.527,8.8556,8.9803,9.0097,8.9363,9.006,9.0592,9.0592,9.1326,9.1803,9.1803,9.1803,9.1803,9.1803,9.1069,9.0207,8.9326,8.7031,8.4242,8.0975,7.7671,7.3266,0.0,6.5925,6.3417,0.0,6.0309,6.0713,0.0,0.0,0.0,0.0,6.7857,6.9802,7.127,7.2165,7.2936,7.3413,7.1857,7.1307,7.1197,7.0293,7.0,6.9963,6.9889,6.9376,6.8898,6.9633,6.9376,6.8788,6.8788,6.8274,6.77,6.77,6.77,6.7664,6.7627,6.699,6.6182,6.5362,6.4494,6.3442,6.19,6.0309,5.9159,5.9001,5.8327,5.7556,0.0,0.0,0.0,0.0,0.0,0.0,0.0,0.0,0.0,0.0,5.3031,5.2627,5.184,5.1096,5.1022,0.0,0.0,0.0,5.6811,5.9942,6.2805,6.5288,6.7674,6.9265,7.0,7.0073,7.0513,7.1307,7.1307,7.2628,7.4903,7.4903,7.5821,7.7326,7.7399,7.8369,7.9816,7.989,8.0844,8.2186,8.2113,8.2076,8.2076,7.9286,8.0424,8.184,8.4609,8.6004,8.7509,8.9767,9.0812,9.1216,9.0886,9.1106,9.1326,9.1326,9.162,9.1803,9.1803,9.1803,9.1803,9.1803,9.151,9.0959,9.017,8.828,8.5967,8.3214,7.9507,7.5542,0.0,0.0,0.0,0.0,0.0,0.0,0.0,0.0,6.5999,6.688,6.9339,7.0977,7.2092,7.2899,7.3413,7.356,7.2459,7.2004,7.1894,7.1087,7.083,7.083,7.083,7.0293,6.9669,7.0,6.9559,6.8885,6.8885,6.8311,6.77,6.77,6.77,6.77,6.77,6.7113,6.6292,6.5472,6.4677,6.3759,6.2585,6.141,6.0493,6.0003,5.9269,5.8609,5.8279,0.0,0.0,0.0,0.0,0.0,0.0,0.0,0.0,0.0,5.3214,5.3067,5.2747,5.1977,0.0,0.0,0.0,0.0,5.7446,0.0,6.3025,6.5999,6.8421,7.0036,7.0844,7.1321,7.1945,7.2753,7.2753,7.378,7.5652,7.6114,7.6702,7.7289,7.7289,7.828,7.9816,7.9816,8.0771,8.2186,8.2186,8.2186,8.2186,8.3214,8.4278,8.5399,8.7381,8.839,8.9381,9.0739,9.1436,9.1803,9.1803,9.2024,9.206,9.184,9.1803,9.1803,9.1803,9.1803,9.1803,9.1803,9.1803,9.1436,9.0629,8.905,0.0,8.5013,8.1232,7.7708,7.4419,7.0858,0.0,0.0,0.0,0.0,0.0,6.6476,6.765,6.8545,7.0734,7.2261,7.323,7.356,7.3817,7.3927,7.2899,7.2496,7.2422,7.1857,7.1637,7.1637,7.1637,7.1284,7.0807,7.0807,7.0257,6.9619,6.9619,6.8862,6.8054,6.8054,6.7884,6.77,6.77,6.726,6.6623,6.5852,6.5191,6.4494,6.3429,6.2328,6.141,6.086,6.0114,5.949,5.9233,0.0,0.0,0.0,0.0,0.0,0.0,5.4399,5.3471,5.3214,5.3214,5.3214,5.3214,0.0,0.0,0.0,0.0,0.0,0.0,0.0,0.0,6.6476,6.8898,7.0624,7.1674,7.2459,7.3156,7.3707,7.4199,7.5028,7.613,7.6959,7.7289,7.7289,7.7289,7.828,7.9816,7.9816,8.0771,8.2186,8.2186,8.2186,8.2186,8.6775,8.7582,8.839,8.9216,9.0024,9.0849,9.1657,9.1803,9.1803,9.1803,9.2537,9.2758,9.1877,9.1803,9.1803,9.1803,9.1803,9.1803,9.1803,9.1803,9.1436,0.0,0.0,8.7435,8.582,8.2627,7.936,7.6056,0.0,0.0,6.8848,0.0,6.7223,6.6549,6.8164,6.9339,7.0183,7.1798,7.3413,7.4793,7.4001,7.4184,7.472,7.312,7.2496,7.2496,7.2496,7.2496,7.2496,7.2496,7.2496,7.2459,7.2459,7.1931,7.127,7.127,7.0132,6.8898,6.8898,6.8311,6.77,6.77,6.77,6.748,6.6659,6.6476,6.5999,6.4433,6.2781,6.1606,6.1594,6.0933,6.0114,5.9343,0.0,0.0,0.0,0.0,0.0,0.0,5.4876,5.4069,5.3287,5.3214,5.3214,5.3214,0.0,0.0,0.0,0.0,0.0,5.7923,6.0346,0.0,6.6476,6.8898,7.0881,7.2496,7.3303,7.367,7.3758,7.5359,7.6093,7.613,7.6959,7.7289,7.7289,7.7289,7.828,7.9816,7.9816,8.0771,8.2186,8.2186,8.2186,8.2186,8.9197,8.9674,9.0078,9.0886,9.1253,9.151,9.1767,9.1803,9.1803,9.1803,9.2574,9.2978,9.2721,9.3161,9.3272,0.0,9.2684,9.2427,0.0,9.1803,9.1693,9.1436,9.0408,8.9087,8.7472,8.5343,8.27,7.9433,0.0,0.0,0.0,7.0844,7.055,6.9839,7.1468,7.2312,7.2642,7.4258,7.5249,7.5689,7.5432,7.5506,7.5542,7.3927,7.3303,7.323,7.2716,7.2496,7.2496,7.2496,7.2496,7.2496,7.2496,7.1931,7.1307,7.1307,7.0536,6.9706,6.9706,6.9119,6.8531,6.8531,6.8091,6.748,6.6659,6.6072,6.5558,6.5007,6.4053,6.3295,6.3295,6.2144,6.0933,6.015,5.9563,0.0,0.0,0.0,0.0,0.0,5.5721,5.5108,5.4851,5.484,0.0,0.0,0.0,0.0,0.0,0.0,0.0,0.0,6.2548,0.0,6.8128,7.055,7.2275,7.334,7.4147,7.4808,7.5359,7.6408,7.6922,7.6922,7.7179,7.7289,7.7289,7.7289,7.828,7.9816,7.9816,8.0771,8.2186,8.2186,8.2186,8.2186,9.0849,9.1069,9.1216,9.1693,9.1803,9.1803,9.1803,9.1803,9.1913,9.2244,9.3015,9.3675,9.3969,9.4703,0.0,9.3639,9.3272,9.2868,9.2317,9.1987,9.1803,9.1803,9.1033,9.0152,8.9124,8.7215,0.0,8.237,7.9271,7.6041,7.2665,7.3487,7.3266,7.2275,7.356,7.4331,7.4661,7.5652,7.6276,7.6518,7.624,7.6093,7.5946,7.4661,7.3964,7.3634,7.312,7.2753,7.2496,7.2496,7.2716,7.2899,7.2606,7.2349,7.2151,7.1821,7.116,7.055,7.055,6.9963,6.9339,6.9339,6.8972,6.8398,6.7577,6.6769,6.6109,6.5815,6.5118,6.453,6.453,6.3429,6.2181,6.1043,6.0187,5.9269,5.8143,0.0,0.0,0.0,0.0,0.0,0.0,5.5768,5.5842,0.0,0.0,0.0,0.0,0.0,5.9501,6.1704,6.4383,6.705,6.9765,7.1615,7.3046,7.4147,7.4992,7.5763,7.657,7.7069,7.7289,7.7289,7.7289,7.7289,7.7289,7.7289,7.828,7.9816,7.9816,8.0771,8.2186,8.2186,8.2186,8.2186,9.1803,9.1803,9.1803,9.1803,9.1803,9.1803,9.1803,9.184,9.217,9.2978,9.3859,9.4666,9.5418,9.6208,9.6098,9.4593,0.0,0.0,9.3088,9.2281,9.1803,9.1803,9.1069,9.0665,9.0592,8.8335,8.628,8.4535,8.0718,7.7598,7.527,7.5946,7.5469,7.4074,7.4771,7.5491,7.6166,7.6166,7.6644,7.7252,7.6497,7.6166,7.6093,7.527,7.4515,7.3868,7.378,7.3303,7.2679,7.2679,7.3156,7.3634,7.2899,7.3193,7.3597,7.2753,7.1967,7.138,7.138,7.0807,7.0183,7.0183,7.0146,6.9889,6.9155,6.8385,6.7627,6.6843,6.6035,6.5435,6.5398,6.4677,6.3552,6.1851,6.0933,5.9832,5.8217,0.0,0.0,0.0,0.0,0.0,5.7031,5.6381,5.6539,0.0,0.0,0.0,0.0,0.0,6.1104,6.4176,6.5925,6.8311,7.1344,7.2298,7.3523,7.5087,7.5836,7.6592,7.7289,7.7289,7.7289,7.7289,7.7289,7.7289,7.7289,7.7289,7.8243,7.9706,7.9779,8.0771,8.2113,8.2186,8.2186,8.2186,9.1803,9.1803,9.1803,9.1803,9.1803,9.1803,9.1803,9.2354,9.2868,9.3088,9.4336,9.529,9.5493,9.6208,9.6539,9.6171,9.4813,9.3749,9.3125,9.2281,9.1803,9.1803,9.162,9.1216,9.0629,8.9436,8.7124,8.3675,8.2113,8.0424,7.8641,7.8222,7.7781,7.7414,7.6922,7.6848,7.7032,7.7032,7.7142,7.7289,7.7105,7.7032,7.6922,7.6114,7.5689,7.5432,7.4845,7.45,7.4316,7.4316,7.4463,7.4573,7.439,7.4463,7.4331,7.2936,7.2386,7.2224,7.2224,7.1637,7.1013,7.1013,7.055,7.0036,6.9853,6.9669,6.9302,6.8495,6.7687,6.6953,6.6329,6.5044,6.3552,6.1851,6.0933,5.9832,5.8217,5.7997,0.0,0.0,5.8646,5.8866,5.9501,5.9391,5.9428,0.0,0.0,6.119,6.2169,6.3857,6.5118,6.5925,6.8665,7.083,7.2202,7.4221,7.5763,7.6738,7.6922,7.7105,7.7289,7.7289,7.7289,7.7289,7.7289,7.7289,7.7289,7.7289,7.7913,7.8956,7.9559,8.0404,8.1379,8.1966,8.2186,8.2186,9.1803,9.2134,9.2281,9.1877,9.2134,9.2244,9.184,9.2537,9.3235,9.3602,9.474,9.5658,9.5988,9.6428,9.6685,9.6685,9.5547,9.452,9.3712,9.2868,9.2207,9.1803,9.1803,9.1583,9.1179,8.9987,8.7785,8.4499,8.3324,8.2113,8.0881,8.0057,7.9286,7.8589,7.8112,7.7656,7.7289,7.7289,7.7289,7.7289,7.7289,7.7289,7.7252,7.6812,7.6423,7.6056,7.5616,7.5197,7.4903,7.4903,7.5124,7.538,7.5014,7.516,7.5212,7.3964,7.334,7.2973,7.2606,7.2202,7.1857,7.1857,7.1541,7.1101,7.0734,7.066,7.044,6.9596,6.8825,6.8128,6.7687,6.5999,6.409,6.2438,6.1153,5.9832,5.8217,5.8327,5.8829,5.9636,6.0077,6.0786,6.1961,6.1741,6.1802,6.2572,6.2695,0.0,6.4971,6.7026,6.8128,6.8128,7.0536,7.2606,7.4147,7.5821,7.6885,7.7289,7.7289,7.7289,7.7289,7.7289,7.7289,7.7289,7.7289,7.7289,7.7289,7.7289,7.8023,7.9176,7.9633,8.0514,8.1599,8.2039,8.2186,8.2186,9.1987,9.2684,9.3051,9.2317,9.2794,9.3015,9.2281,9.2905,9.3712,9.4373,9.518,9.5932,9.6649,9.6685,9.6685,9.6685,9.6098,9.529,9.4336,9.3565,9.2721,9.184,9.1803,9.1803,9.1803,9.0207,8.8262,8.5967,8.4389,8.3177,8.237,8.1415,8.0277,7.8956,7.8846,7.8369,7.7693,7.7693,7.7693,7.7693,7.7693,7.7693,7.7693,7.7693,7.7268,7.6644,7.6644,7.624,7.5637,7.5637,7.6093,7.6533,7.5873,7.6019,7.6313,7.5491,7.4698,7.3854,7.2936,7.2606,7.2496,7.2496,7.2496,7.2312,7.1637,7.149,7.1233,7.044,6.9743,6.9178,6.8921,6.7013,6.4921,6.327,6.1545,5.9905,5.8547,0.0,5.971,6.0664,6.1594,6.2768,6.4323,6.3906,6.4114,6.5558,6.5154,6.5718,6.7774,6.9522,7.0513,7.0624,7.2202,7.4111,7.6276,7.6959,7.7289,7.7289,7.7289,7.7289,7.7289,7.7289,7.7289,7.7289,7.7289,7.7289,7.7289,7.7289,7.8222,7.9633,7.9743,8.0697,8.2039,8.215,8.2186,8.2223,9.2905,9.3565,9.4079,9.3932,9.4006,9.4079,9.3932,9.4593,9.5161,9.5308,9.6025,9.6575,9.6685,9.6685,9.6685,9.6685,9.6575,9.5878,9.441,9.3565,9.2721,9.184,9.1803,9.1803,9.1803,9.0207,8.8556,8.6811,8.5196,8.4005,8.3161,8.1693,8.0865,8.0608,7.9926,7.9559,7.9396,7.9396,7.9396,7.9396,7.9396,7.9396,7.9396,7.9396,7.9339,7.9229,7.9229,7.9155,7.9045,7.9045,7.9119,7.9192,7.9082,7.8662,7.8038,7.7179,7.6371,7.5395,7.3927,7.301,7.2496,7.2496,7.2496,7.2459,7.2349,7.2312,7.2092,7.127,7.1013,7.0499,6.9142,6.7467,6.5778,6.4163,6.1924,6.0297,6.0052,0.0,6.0774,6.2242,6.3783,6.5081,6.6035,6.6623,6.704,6.7297,6.7834,6.8311,6.8678,7.0881,7.2422,7.3134,7.4698,7.6056,7.7105,7.7252,7.7289,7.7289,7.7289,7.7289,7.7289,7.7289,7.7289,7.7289,7.7289,7.7289,7.7289,7.7289,7.7876,7.8846,7.9522,8.0351,8.1269,8.1929,8.2186,8.2296,9.3088,9.4116,9.4813,9.4373,9.4666,9.4813,9.4373,9.4997,9.5492,9.5492,9.6208,9.6685,9.6685,9.6685,9.6685,9.6685,9.6685,9.6208,9.5034,9.4189,9.3161,9.184,9.1803,9.1583,9.1179,8.9987,8.8812,8.7655,8.604,8.4829,8.4005,8.283,8.184,8.0975,8.0608,8.0204,7.9816,7.9816,7.9816,7.9816,7.9816,7.9816,7.9816,7.9816,7.9816,7.9816,7.9816,7.9816,7.9816,7.9816,7.9816,7.9816,7.9816,7.9559,7.9066,7.8259,7.679,7.5285,7.4551,7.3744,7.3266,7.367,7.3487,7.3266,7.3707,7.378,7.3546,7.2753,7.2261,7.1454,6.9853,6.8238,6.6623,6.5007,6.3025,0.0,6.1692,6.1692,6.2462,6.4567,6.5852,6.7063,6.8311,6.8752,6.8985,6.8985,6.9743,7.0389,7.0807,7.2716,7.4353,7.5601,7.6827,7.7818,7.8626,7.8662,7.8662,7.8662,7.8662,7.8662,7.8662,7.8662,7.8405,7.7986,7.7986,7.7986,7.7986,7.7986,7.8772,7.9947,8.0314,8.0938,8.1672,8.2039,8.248,8.292,9.3382,9.4666,9.5584,9.496,9.5364,9.5584,9.496,9.5401,9.5804,9.5804,9.6318,9.6685,9.6685,9.6685,9.6685,9.6685,9.6685,9.6355,9.5528,9.474,9.3639,9.217,9.1913,9.151,9.0886,9.0097,8.929,8.85,8.6885,8.5673,8.4866,8.4058,8.3014,8.1819,8.1619,8.1232,8.0608,8.044,8.0367,8.0367,8.0367,8.0367,8.0367,8.0367,8.0367,8.0367,8.0367,8.0367,8.0367,8.0367,8.0367,8.0367,8.0367,8.022,7.9947,7.9323,7.7561,7.5674,7.527,7.4588,7.4147,7.4757,7.4441,7.4147,7.4757,7.4903,7.472,7.4111,7.3487,7.2569,7.0954,6.9486,6.8017,6.6389,0.0,6.371,6.3894,6.393,6.4714,6.6806,6.8091,6.9316,7.055,7.0991,7.1211,7.1211,7.1784,7.2408,7.2995,7.4573,7.6298,7.8096,7.8626,7.9192,7.9779,7.9816,7.9816,7.9816,7.9816,7.9816,7.9816,7.9816,7.9449,7.8883,7.8883,7.8883,7.8883,7.8883,7.9727,8.1012,8.1012,8.1489,8.2186,8.2186,8.259,8.3161,9.4189,9.5511,9.6575,9.6539,9.6575,9.6575,9.6539,9.6575,9.6612,9.6612,9.6649,9.6685,9.6685,9.6685,9.6685,9.6685,9.6685,9.6355,9.5528,9.474,9.3896,9.3051,9.2244,9.1767,9.1693,9.0922,9.0097,8.9326,8.7711,8.6518,8.569,8.4903,8.4462,8.4315,8.3564,8.3197,8.3087,8.2333,8.2003,8.2003,8.2003,8.2003,8.2003,8.2003,8.2003,8.2003,8.2003,8.2003,8.2003,8.2003,8.2003,8.2003,8.2003,8.1525,8.0901,8.0828,7.9653,7.8002,7.6423,7.5432,7.483,7.4903,7.4867,7.483,7.4903,7.4903,7.4867,7.483,7.4757,7.4243,7.2606,7.16,7.0499,6.8885,0.0,0.0,6.7223,6.7333,6.77,6.8605,7.077,7.2202,7.2312,7.3656,7.4536,7.4536,7.461,7.4647,7.472,7.6261,7.8243,8.0629,8.0057,7.9743,7.9816,7.9816,7.9816,7.9816,7.9816,7.9816,7.9816,7.9816,7.9779,7.9706,7.9706,7.9706,7.9706,7.9706,8.0204,8.1012,8.1012,8.1489,8.2186,8.2186,8.2223,8.248,9.4299,9.5584,9.6685,9.6685,9.6685,9.6685,9.6685,9.6685,9.6685,9.6685,9.6685,9.6685,9.6685,9.6685,9.6685,9.6685,9.6685,9.6575,9.6282,9.5511,9.4226,9.2354,9.1987,9.1803,9.1803,9.1033,9.0207,8.94,8.828,8.7068,8.5783,8.549,8.5086,8.4609,8.4278,8.4132,8.4095,8.3287,8.2957,8.2957,8.2957,8.2957,8.2994,8.3508,8.3398,8.2957,8.2957,8.2627,8.2186,8.2186,8.2186,8.2296,8.281,8.272,8.239,8.1893,8.0608,7.9229,7.8568,7.7414,7.6518,7.7047,7.7194,7.7341,7.7818,7.7928,7.7635,7.6592,7.6408,7.5747,7.3634,7.2973,7.2422,7.1321,0.0,6.9192,7.0477,6.983,6.9853,7.1651,7.2679,7.345,7.3949,7.4536,7.4903,7.4903,7.5359,7.5858,7.6371,7.8427,8.0041,8.0975,8.1195,8.1285,8.1285,8.1285,8.1285,8.1285,8.1285,8.1285,8.1285,8.1285,8.1012,8.0534,8.0534,8.0534,8.0534,8.0534,8.1012,8.1746,8.1746,8.1929,8.2186,8.2186,8.2517,8.3104,9.4299,9.5584,9.6685,9.6685,9.6685,9.6685,9.6685,9.6685,9.6685,9.6685,9.6685,9.6685,9.6685,9.6685,9.6685,9.6685,9.6685,9.6685,9.6685,9.5731,9.4263,9.2281,9.195,9.1803,9.1803,9.1253,9.0482,8.94,8.8849,8.7766,8.6187,8.6187,8.5894,8.5343,8.5086,8.4976,8.4903,8.4132,8.3785,8.3785,8.3785,8.3785,8.3821,8.4389,8.4278,8.3785,8.3785,8.3434,8.2957,8.2957,8.2957,8.303,8.3618,8.3785,8.3581,8.2517,8.1415,8.044,7.9926,7.914,7.8537,7.8883,7.8993,7.9119,7.9669,7.9816,7.9486,7.8332,7.8096,7.7524,7.5579,7.5249,7.4882,7.3817,7.2716,7.2275,7.3105,7.2312,7.2239,7.3891,7.4294,7.4661,7.5212,7.5747,7.6041,7.6041,7.6827,7.7598,7.8427,8.0078,8.1122,8.1379,8.1893,8.2186,8.2186,8.2186,8.2186,8.2186,8.2186,8.2186,8.2186,8.2186,8.1893,8.1379,8.1379,8.1379,8.1379,8.1379,8.1709,8.2186,8.2186,8.2186,8.2186,8.2186,8.2553,8.3161,9.4299,9.5584,9.6685,9.6685,9.6685,9.6685,9.6685,9.6685,9.6685,9.6685,9.6685,9.6685,9.6685,9.6685,9.6685,9.6685,9.6685,9.6685,9.6685,9.518,9.3932,9.3125,9.2281,9.1803,9.1803,9.1803,9.1033,8.94,8.94,8.8592,8.6978,8.6978,8.6978,8.6978,8.6151,8.58,8.5747,8.4939,8.4609,8.4609,8.4609,8.4609,8.4609,8.4609,8.4609,8.4609,8.4609,8.4609,8.4609,8.4609,8.4609,8.4609,8.4609,8.4609,8.4315,8.27,8.2223,8.1856,8.0257,8.0424,8.0828,8.0,7.9816,7.9816,7.9816,7.9816,7.9816,7.9816,7.9816,7.9559,7.8772,7.8589,7.8075,7.6387,7.613,7.5836,7.505,7.494,7.494,7.494,7.5652,7.613,7.613,7.7635,7.8589,7.8589,7.9339,8.0183,8.0975,8.1012,8.1379,8.215,8.2186,8.2186,8.2186,8.2186,8.2186,8.2186,8.2186,8.2186,8.2186,8.2186,8.2186,8.2186,8.2186,8.2186,8.2186,8.2186,8.2186,8.2186,8.2186,8.2186,8.2186,8.2186,8.2186,8.2443,9.4299,9.5584,9.6685,9.6685,9.6685,9.6685,9.6685,9.6685,9.6685,9.6685,9.6685,9.6685,9.6685,9.6685,9.6685,9.6685,9.6685,9.6685,9.6685,9.5731,9.4777,9.3969,9.2574,9.1803,9.1803,9.1803,9.1033,8.94,8.94,8.8592,8.6978,8.6978,8.6978,8.6978,8.6775,8.6628,8.6591,8.5783,8.5416,8.5416,8.5416,8.5416,8.549,8.6077,8.593,8.5416,8.5416,8.5086,8.4609,8.4609,8.4609,8.4682,8.527,8.5416,8.5343,8.4866,8.4315,8.3765,8.3287,8.3324,8.3067,8.1122,8.1048,8.1505,8.1505,8.1505,8.1305,8.0755,8.0645,8.0388,7.9596,7.9449,7.9302,7.8788,7.8222,7.7965,7.8295,7.7855,7.7708,7.8259,7.8568,7.8715,7.8715,7.9155,7.9449,7.9449,8.0167,8.0755,8.1012,8.1525,8.1929,8.2186,8.2186,8.2186,8.2186,8.2186,8.2186,8.2186,8.2186,8.2186,8.2186,8.2186,8.2186,8.2186,8.2186,8.2186,8.2186,8.2186,8.2186,8.2186,8.2186,8.2186,8.2186,8.2186,8.2186,8.2443,9.4703,9.5804,9.6685,9.6685,9.6685,9.6795,9.7126,9.7163,9.7273,9.7603,9.764,9.753,9.7199,9.7163,9.7052,9.6722,9.6685,9.6685,9.6685,9.5951,9.5272,9.4813,9.3492,9.2464,9.1803,9.1803,9.1179,8.9877,8.9546,8.8739,8.7472,8.7124,8.6978,8.6978,8.6978,8.6978,8.6978,8.6481,8.6261,8.6261,8.6261,8.6261,8.6334,8.6811,8.6701,8.6261,8.6261,8.5967,8.5563,8.5563,8.5563,8.5637,8.6114,8.6261,8.6224,8.5894,8.5453,8.5013,8.4682,8.4609,8.4242,8.281,8.2553,8.2774,8.3067,8.2884,8.2627,8.248,8.2406,8.2186,8.1379,8.1232,8.1012,8.0388,7.9874,7.9617,7.9779,7.9376,7.9265,7.9743,7.9816,7.9816,7.9816,8.011,8.0404,8.0734,8.1195,8.1489,8.1489,8.1929,8.2333,8.2663,8.2663,8.2663,8.2663,8.2663,8.2517,8.2186,8.2186,8.2186,8.2186,8.2186,8.2186,8.2186,8.2186,8.2186,8.2186,8.2186,8.2186,8.2186,8.2186,8.2186,8.2186,8.2186,8.2186,8.2443,9.5345,9.6171,9.6685,9.6685,9.6685,9.6979,9.7787,9.7916,9.819,9.8978,9.9108,9.8814,9.808,9.7933,9.7603,9.6869,9.6722,9.6685,9.6685,9.6025,9.5565,9.5492,9.4813,9.3639,9.206,9.195,9.1473,9.0592,8.9803,8.8996,8.8169,8.7399,8.6978,8.6978,8.6978,8.6978,8.6978,8.6978,8.6978,8.6978,8.6978,8.6978,8.6978,8.6978,8.6978,8.6978,8.6978,8.6978,8.6978,8.6978,8.6978,8.6978,8.6978,8.6978,8.6885,8.6114,8.5911,8.5747,8.5013,8.4829,8.4829,8.4829,8.4205,8.3785,8.4462,8.4022,8.3711,8.4462,8.4609,8.4389,8.3638,8.3491,8.3014,8.1452,8.1232,8.0938,8.0147,8.0,8.0,8.0,8.0,8.0,8.0,8.0755,8.1525,8.226,8.2296,8.2296,8.2296,8.2296,8.27,8.3491,8.3491,8.3491,8.3491,8.3491,8.3067,8.2186,8.2186,8.2186,8.2186,8.2186,8.2186,8.2186,8.2186,8.2186,8.2186,8.2186,8.2186,8.2186,8.2186,8.2186,8.2186,8.2186,8.2186,8.2443,9.5455,9.6171,9.6685,9.6685,9.6685,9.6979,9.7787,9.7916,9.819,9.8978,9.9108,9.9035,9.8851,9.8264,9.7823,9.764,9.7052,9.6685,9.6685,9.6539,9.6171,9.5528,9.5308,9.4777,9.3786,9.3125,9.2097,9.0592,8.9803,8.8996,8.8169,8.7399,8.6978,8.6978,8.6978,8.6978,8.6978,8.6978,8.6978,8.6978,8.6978,8.6978,8.6978,8.6978,8.6978,8.6978,8.6978,8.6978,8.6978,8.6978,8.6978,8.6978,8.6978,8.6978,8.6978,8.6811,8.6738,8.6701,8.6554,8.6481,8.6481,8.6481,8.5857,8.5159,8.4682,8.4462,8.4389,8.4572,8.4609,8.4535,8.4389,8.4352,8.4022,8.3051,8.2867,8.2574,8.1782,8.1689,8.1689,8.1689,8.1689,8.1689,8.1689,8.2406,8.2941,8.3124,8.3124,8.3124,8.3124,8.3124,8.3508,8.4315,8.4352,8.4352,8.4352,8.4352,8.3618,8.2186,8.2186,8.2186,8.2186,8.2186,8.2186,8.2186,8.2186,8.2186,8.2186,8.2186,8.2186,8.2186,8.2186,8.2186,8.2186,8.2186,8.2186,8.2443,9.6025,9.6428,9.6685,9.6685,9.6685,9.7089,9.83,9.8484,9.8888,10.0099,10.0209,10.0099,9.9695,9.8961,9.8154,9.7383,9.6942,9.6685,9.6685,9.6685,9.6502,9.6098,9.6061,9.5694,9.4887,9.4483,9.3455,9.1803,9.0574,8.9767,8.9344,8.8519,8.7932,8.7582,8.7582,8.7362,8.6978,8.6978,8.6978,8.6978,8.6978,8.6978,8.6978,8.6978,8.6978,8.6978,8.6978,8.6978,8.6978,8.6978,8.6978,8.6978,8.6978,8.6978,8.6978,8.6978,8.6978,8.6978,8.6978,8.6978,8.6978,8.6978,8.6701,8.6261,8.5857,8.5453,8.527,8.5673,8.5747,8.5637,8.5233,8.5159,8.4903,8.4095,8.3968,8.3691,8.2884,8.2774,8.2627,8.226,8.2186,8.2333,8.2737,8.3161,8.3564,8.3931,8.3968,8.3968,8.3968,8.3968,8.4352,8.5159,8.5159,8.5159,8.5159,8.5159,8.4572,8.3324,8.2957,8.2553,8.2186,8.2186,8.2186,8.2186,8.2186,8.2186,8.2186,8.2186,8.2186,8.2186,8.2186,8.2186,8.2186,8.2186,8.27,8.3471,9.6575,9.6685,9.6685,9.6685,9.6685,9.7199,9.8668,9.8888,9.9475,10.111,10.1294,10.098,10.0393,9.9475,9.83,9.6832,9.6685,9.6685,9.6685,9.6685,9.6685,9.6685,9.6685,9.6392,9.5712,9.5565,9.4703,9.3088,9.1546,9.0739,9.0592,8.9767,8.8959,8.8206,8.8206,8.7766,8.6978,8.6978,8.6978,8.6978,8.6978,8.6978,8.6978,8.6978,8.6978,8.6978,8.6978,8.6978,8.6978,8.6978,8.6978,8.6978,8.6978,8.6978,8.6978,8.6978,8.6978,8.6978,8.6978,8.6978,8.6978,8.6978,8.6978,8.6978,8.6978,8.6481,8.6187,8.6885,8.6978,8.6794,8.6114,8.6004,8.5747,8.4939,8.4792,8.4535,8.3711,8.3491,8.3161,8.248,8.2406,8.2737,8.3528,8.3711,8.4095,8.4756,8.4792,8.4792,8.4792,8.4792,8.5159,8.5967,8.6004,8.6004,8.6004,8.6004,8.56,8.4792,8.4132,8.3398,8.259,8.248,8.248,8.259,8.2296,8.226,8.237,8.226,8.226,8.2406,8.2406,8.248,8.259,8.2443,8.3324,8.4609,9.6685,9.6685,9.6685,9.6685,9.6685,9.7016,9.7897,9.8043,9.8631,10.0283,10.0503,10.0393,10.0283,9.8961,9.7676,9.6795,9.6685,9.6685,9.6685,9.6685,9.6685,9.6685,9.6685,9.6649,9.6539,9.5859,9.4703,9.3088,9.2134,9.1289,9.0592,8.9767,8.8959,8.8206,8.8206,8.7766,8.6978,8.6978,8.6978,8.6978,8.6978,8.6978,8.6978,8.6978,8.6978,8.6978,8.6978,8.6978,8.6978,8.6978,8.6978,8.6978,8.6978,8.6978,8.6978,8.6978,8.6978,8.6978,8.6978,8.6978,8.6978,8.6978,8.6978,8.6978,8.6978,8.6921,8.6867,8.6978,8.6978,8.6978,8.6885,8.6848,8.6591,8.5747,8.5637,8.5343,8.4535,8.3821,8.3344,8.3234,8.3234,8.3528,8.4352,8.5086,8.5527,8.5654,8.5637,8.5637,8.5637,8.5637,8.6004,8.6811,8.6848,8.6848,8.6848,8.6848,8.6444,8.5637,8.5527,8.5049,8.4242,8.3528,8.3618,8.4205,8.281,8.259,8.3161,8.248,8.2627,8.3234,8.3234,8.3654,8.4205,8.3491,8.3838,8.4609,9.7273,9.7346,9.7493,9.797,9.7676,9.764,9.8447,9.819,9.8484,10.0099,10.0283,10.0503,10.0907,9.9512,9.808,9.6795,9.6685,9.6685,9.6685,9.6685,9.6906,9.7346,9.6942,9.6906,9.7346,9.6575,9.5621,9.4446,9.3161,9.2097,9.1253,9.0922,9.0298,8.9528,8.9069,8.8409,8.7655,8.7215,8.6978,8.6978,8.6978,8.6978,8.6978,8.6978,8.6978,8.6978,8.6978,8.6978,8.6978,8.6978,8.6978,8.6978,8.6978,8.6978,8.6978,8.6978,8.6978,8.6978,8.6978,8.6978,8.6978,8.6978,8.6978,8.6978,8.6978,8.6978,8.6978,8.6978,8.6978,8.6978,8.6978,8.6978,8.6867,8.6518,8.6481,8.6187,8.538,8.4976,8.4572,8.4132,8.4058,8.4389,8.5196,8.56,8.5967,8.6444,8.6481,8.6481,8.6481,8.6481,8.6628,8.6978,8.6978,8.6978,8.6978,8.6978,8.6794,8.6481,8.6481,8.582,8.4609,8.4242,8.4278,8.4572,8.3838,8.3728,8.4058,8.3691,8.3765,8.4058,8.4058,8.4278,8.4572,8.4205,8.4572,8.527]}]]